[[{"header":{"parameterUnit":"m.s-1","parameterCategory":1,"la1":30.6,"la2":29.2853,"lo1":-89.7004,"lo2":-87.6739,"dy":0.0162,"dx":0.0183,"nx":112,"ny":82,"refTime":"2023-10-02T12:00:00:Z","depth":0,"parameterNumber":2,"parameterNumberName":"U-component_of_WINDS"},"data":[0.0,0.0,0.0,0.0,0.0,0.0,0.0,0.0,0.0,0.0,0.0,0.0,0.0,0.0,0.0,0.0,0.0,0.0,0.0,0.0,0.0,0.0,0.0,0.0,0.0,0.0,0.0,0.0,0.0,0.0,0.0,0.0,0.0,0.0,0.0,0.0,0.0,0.0,0.0,0.0,0.0,0.0,0.0,0.0,0.0,0.0,0.0,0.0,0.0,0.0,0.0,0.0,0.0,0.0,0.0,0.0,0.0,0.0,0.0,0.0,0.0,0.0,0.0,0.0,0.0,0.0,0.0,0.0,0.0,0.0,0.0,0.0,0.0,0.0,0.0,0.0,0.0,0.0,0.0,0.0,0.0,0.0,0.0,0.0,0.0,0.0,0.0,0.0,0.0,0.0,0.0,6.2109,6.2109,6.2109,6.2109,6.1992,6.1953,6.2109,0.0,0.0,0.0,0.0,0.0,0.0,0.0,0.0,0.0,0.0,0.0,0.0,0.0,0.0,0.0,0.0,0.0,0.0,0.0,0.0,0.0,0.0,0.0,0.0,0.0,0.0,0.0,0.0,0.0,0.0,0.0,0.0,0.0,0.0,0.0,0.0,0.0,0.0,0.0,0.0,0.0,0.0,0.0,0.0,0.0,0.0,0.0,0.0,0.0,0.0,0.0,0.0,0.0,0.0,0.0,0.0,0.0,0.0,0.0,0.0,0.0,0.0,0.0,0.0,0.0,0.0,0.0,0.0,0.0,0.0,0.0,0.0,0.0,0.0,0.0,0.0,0.0,0.0,0.0,0.0,0.0,0.0,0.0,0.0,0.0,0.0,0.0,0.0,0.0,0.0,0.0,0.0,0.0,0.0,0.0,0.0,0.0,0.0,0.0,0.0,0.0,0.0,0.0,0.0,6.3086,6.3828,6.3906,6.3906,6.3906,6.3242,6.3125,6.3867,0.0,0.0,0.0,0.0,0.0,0.0,0.0,0.0,0.0,0.0,0.0,0.0,0.0,0.0,0.0,0.0,0.0,0.0,0.0,0.0,0.0,0.0,0.0,0.0,0.0,0.0,0.0,0.0,0.0,0.0,0.0,0.0,0.0,0.0,0.0,0.0,0.0,0.0,0.0,0.0,0.0,0.0,0.0,0.0,0.0,0.0,0.0,0.0,0.0,0.0,0.0,0.0,0.0,0.0,0.0,0.0,0.0,0.0,0.0,0.0,0.0,0.0,0.0,0.0,0.0,0.0,0.0,0.0,0.0,0.0,0.0,0.0,0.0,0.0,0.0,0.0,0.0,0.0,0.0,0.0,0.0,0.0,0.0,0.0,0.0,0.0,0.0,0.0,0.0,0.0,0.0,0.0,0.0,0.0,0.0,0.0,0.0,0.0,0.0,0.0,0.0,0.0,0.0,6.3711,6.3867,6.4258,6.4297,6.4297,6.4297,6.3945,6.3867,6.4258,6.3555,0.0,0.0,0.0,0.0,0.0,0.0,0.0,0.0,0.0,0.0,0.0,0.0,0.0,0.0,0.0,0.0,0.0,0.0,0.0,0.0,0.0,0.0,0.0,0.0,0.0,0.0,0.0,0.0,0.0,0.0,0.0,0.0,0.0,0.0,0.0,0.0,0.0,0.0,0.0,0.0,0.0,0.0,0.0,0.0,0.0,0.0,0.0,0.0,0.0,0.0,0.0,0.0,0.0,0.0,0.0,0.0,0.0,0.0,0.0,0.0,0.0,0.0,0.0,0.0,0.0,0.0,0.0,0.0,0.0,0.0,0.0,0.0,0.0,0.0,0.0,0.0,0.0,0.0,0.0,0.0,0.0,0.0,0.0,0.0,0.0,0.0,0.0,0.0,0.0,0.0,0.0,0.0,0.0,0.0,0.0,0.0,0.0,0.0,0.0,0.0,0.0,0.0,6.4805,6.4922,6.4922,6.4922,6.4922,6.4922,6.4726,6.4687,6.4883,6.4531,0.0,0.0,0.0,0.0,0.0,0.0,0.0,0.0,0.0,0.0,0.0,0.0,0.0,0.0,0.0,0.0,0.0,0.0,0.0,0.0,0.0,0.0,0.0,0.0,0.0,0.0,0.0,0.0,0.0,0.0,0.0,0.0,0.0,0.0,0.0,0.0,0.0,0.0,0.0,0.0,0.0,0.0,0.0,0.0,0.0,0.0,0.0,0.0,0.0,0.0,0.0,0.0,0.0,0.0,0.0,0.0,0.0,0.0,0.0,0.0,0.0,0.0,0.0,0.0,0.0,0.0,0.0,0.0,0.0,0.0,0.0,0.0,0.0,0.0,0.0,0.0,0.0,0.0,0.0,0.0,0.0,0.0,0.0,0.0,0.0,0.0,0.0,0.0,0.0,0.0,0.0,0.0,0.0,0.0,0.0,0.0,0.0,0.0,0.0,0.0,0.0,0.0,6.6211,6.6719,6.6719,6.6719,6.6719,6.6719,6.5976,6.5859,6.668,6.5195,0.0,0.0,0.0,0.0,0.0,0.0,0.0,0.0,0.0,0.0,0.0,0.0,0.0,0.0,0.0,0.0,0.0,0.0,0.0,0.0,0.0,0.0,0.0,0.0,0.0,0.0,0.0,0.0,0.0,0.0,0.0,0.0,0.0,0.0,0.0,0.0,0.0,0.0,0.0,0.0,0.0,0.0,0.0,0.0,0.0,0.0,0.0,0.0,0.0,0.0,0.0,0.0,0.0,0.0,0.0,0.0,0.0,0.0,0.0,0.0,0.0,0.0,0.0,0.0,0.0,0.0,0.0,0.0,0.0,0.0,0.0,0.0,0.0,0.0,0.0,0.0,0.0,0.0,0.0,0.0,0.0,0.0,0.0,0.0,0.0,0.0,0.0,0.0,0.0,0.0,0.0,0.0,0.0,0.0,0.0,0.0,0.0,0.0,0.0,0.0,0.0,0.0,6.6719,6.6914,0.0,6.6914,6.6914,6.6914,6.6601,6.6562,6.6875,0.0,0.0,0.0,0.0,0.0,0.0,0.0,0.0,0.0,0.0,0.0,0.0,0.0,0.0,0.0,0.0,0.0,0.0,0.0,0.0,0.0,0.0,0.0,0.0,0.0,0.0,0.0,0.0,0.0,0.0,0.0,0.0,0.0,0.0,0.0,0.0,0.0,0.0,0.0,0.0,0.0,0.0,0.0,0.0,0.0,0.0,0.0,0.0,0.0,0.0,0.0,0.0,0.0,0.0,0.0,0.0,0.0,0.0,0.0,0.0,0.0,0.0,0.0,0.0,0.0,0.0,0.0,0.0,0.0,0.0,0.0,0.0,0.0,0.0,0.0,0.0,0.0,0.0,0.0,0.0,0.0,0.0,0.0,0.0,0.0,0.0,0.0,0.0,0.0,0.0,0.0,0.0,0.0,0.0,0.0,0.0,0.0,0.0,0.0,0.0,0.0,0.0,6.6836,6.6914,6.6914,0.0,6.6914,6.6914,6.6914,6.6914,6.6914,6.6914,0.0,0.0,0.0,0.0,0.0,0.0,0.0,0.0,0.0,0.0,0.0,0.0,0.0,0.0,0.0,0.0,0.0,0.0,0.0,0.0,0.0,0.0,0.0,0.0,0.0,0.0,0.0,0.0,0.0,0.0,0.0,0.0,0.0,0.0,0.0,0.0,0.0,0.0,0.0,0.0,0.0,0.0,0.0,0.0,0.0,0.0,0.0,0.0,0.0,0.0,0.0,0.0,0.0,0.0,0.0,0.0,0.0,0.0,0.0,0.0,0.0,0.0,0.0,0.0,0.0,0.0,0.0,0.0,0.0,0.0,0.0,0.0,0.0,0.0,0.0,0.0,0.0,0.0,0.0,0.0,0.0,0.0,0.0,0.0,0.0,0.0,0.0,0.0,0.0,0.0,0.0,0.0,0.0,0.0,0.0,0.0,0.0,0.0,0.0,0.0,0.0,0.0,6.6914,6.6914,6.6914,6.6914,6.6914,6.6914,6.6914,6.6914,6.6914,0.0,0.0,0.0,0.0,0.0,0.0,0.0,0.0,0.0,0.0,0.0,0.0,0.0,0.0,0.0,0.0,0.0,0.0,0.0,0.0,0.0,0.0,0.0,0.0,0.0,0.0,0.0,0.0,0.0,0.0,0.0,0.0,0.0,0.0,0.0,0.0,0.0,0.0,0.0,0.0,0.0,0.0,0.0,0.0,0.0,0.0,0.0,0.0,0.0,0.0,0.0,0.0,0.0,0.0,0.0,0.0,0.0,0.0,0.0,0.0,0.0,0.0,0.0,0.0,0.0,0.0,0.0,0.0,0.0,0.0,0.0,0.0,0.0,0.0,0.0,0.0,0.0,0.0,0.0,0.0,0.0,0.0,0.0,0.0,0.0,0.0,0.0,0.0,0.0,0.0,0.0,0.0,0.0,0.0,0.0,0.0,0.0,0.0,0.0,0.0,0.0,0.0,0.0,6.6914,6.6914,6.6914,6.6914,6.6914,6.6914,6.6914,6.6914,6.6914,6.6914,0.0,0.0,0.0,0.0,0.0,0.0,0.0,0.0,0.0,0.0,0.0,0.0,0.0,0.0,0.0,0.0,0.0,0.0,0.0,0.0,0.0,0.0,0.0,0.0,0.0,0.0,0.0,0.0,0.0,0.0,0.0,0.0,0.0,0.0,0.0,0.0,0.0,0.0,0.0,0.0,0.0,0.0,0.0,0.0,0.0,0.0,0.0,0.0,0.0,0.0,0.0,0.0,0.0,0.0,0.0,0.0,0.0,0.0,0.0,0.0,0.0,0.0,0.0,0.0,0.0,0.0,0.0,0.0,0.0,0.0,0.0,0.0,0.0,0.0,0.0,0.0,0.0,0.0,0.0,0.0,0.0,0.0,0.0,0.0,0.0,0.0,0.0,0.0,0.0,0.0,0.0,0.0,0.0,0.0,0.0,0.0,0.0,0.0,0.0,0.0,0.0,0.0,6.6914,6.6914,6.6914,6.6914,6.6914,6.6914,6.6914,6.6914,6.6914,6.6914,0.0,0.0,0.0,0.0,0.0,0.0,0.0,0.0,0.0,0.0,0.0,0.0,0.0,0.0,0.0,0.0,0.0,0.0,0.0,0.0,0.0,0.0,0.0,0.0,0.0,0.0,0.0,0.0,0.0,0.0,0.0,0.0,0.0,0.0,0.0,0.0,0.0,0.0,0.0,0.0,0.0,0.0,0.0,0.0,0.0,0.0,0.0,0.0,0.0,0.0,0.0,0.0,0.0,0.0,0.0,0.0,0.0,0.0,0.0,0.0,0.0,0.0,0.0,0.0,0.0,0.0,0.0,0.0,0.0,0.0,0.0,0.0,0.0,0.0,0.0,0.0,0.0,0.0,0.0,0.0,0.0,0.0,0.0,0.0,0.0,0.0,0.0,0.0,0.0,0.0,0.0,0.0,0.0,0.0,0.0,0.0,0.0,0.0,0.0,0.0,0.0,0.0,6.6914,6.6914,6.6914,6.6914,6.6914,6.6914,6.6914,6.6914,6.6914,6.6914,0.0,0.0,0.0,0.0,0.0,0.0,0.0,0.0,0.0,0.0,0.0,0.0,0.0,0.0,0.0,0.0,0.0,0.0,0.0,0.0,0.0,0.0,0.0,0.0,0.0,0.0,0.0,0.0,0.0,0.0,0.0,0.0,0.0,0.0,0.0,0.0,0.0,0.0,0.0,0.0,0.0,0.0,0.0,0.0,0.0,0.0,0.0,0.0,0.0,0.0,0.0,0.0,0.0,0.0,0.0,0.0,0.0,0.0,0.0,0.0,6.6914,0.0,0.0,0.0,0.0,0.0,0.0,0.0,0.0,0.0,0.0,0.0,0.0,0.0,0.0,0.0,0.0,0.0,0.0,0.0,0.0,0.0,0.0,0.0,0.0,0.0,0.0,0.0,0.0,0.0,0.0,0.0,0.0,0.0,0.0,0.0,0.0,0.0,0.0,0.0,0.0,0.0,6.6914,6.6914,6.6914,6.6914,6.6914,6.6914,6.6914,6.6914,6.6914,6.6914,6.6914,0.0,0.0,0.0,0.0,0.0,0.0,0.0,0.0,0.0,0.0,0.0,0.0,0.0,0.0,0.0,0.0,0.0,0.0,0.0,0.0,0.0,0.0,0.0,0.0,0.0,0.0,0.0,0.0,0.0,0.0,0.0,0.0,0.0,0.0,0.0,0.0,0.0,0.0,0.0,0.0,0.0,0.0,0.0,0.0,0.0,0.0,0.0,0.0,0.0,0.0,0.0,0.0,0.0,0.0,0.0,0.0,0.0,0.0,0.0,0.0,6.6914,0.0,0.0,0.0,0.0,0.0,0.0,0.0,0.0,0.0,0.0,0.0,0.0,0.0,0.0,0.0,0.0,0.0,0.0,0.0,0.0,0.0,0.0,0.0,0.0,0.0,0.0,0.0,0.0,0.0,0.0,0.0,0.0,0.0,0.0,0.0,0.0,0.0,0.0,0.0,0.0,6.6914,6.6914,6.6914,6.6914,6.6914,6.6914,6.6914,6.6914,6.6914,6.6914,6.6914,0.0,0.0,0.0,0.0,0.0,0.0,0.0,0.0,0.0,0.0,0.0,0.0,0.0,0.0,0.0,0.0,0.0,0.0,0.0,0.0,0.0,0.0,0.0,0.0,0.0,0.0,0.0,0.0,0.0,0.0,0.0,0.0,0.0,0.0,0.0,0.0,0.0,0.0,0.0,0.0,0.0,0.0,0.0,0.0,0.0,0.0,0.0,0.0,0.0,0.0,0.0,0.0,0.0,6.6336,6.6336,6.6335,6.6339,6.6375,6.6414,6.6727,6.6863,6.6836,0.0,0.0,0.0,0.0,0.0,0.0,0.0,0.0,0.0,0.0,0.0,0.0,0.0,0.0,0.0,0.0,0.0,0.0,0.0,0.0,0.0,0.0,0.0,0.0,0.0,6.6914,6.6914,0.0,0.0,0.0,0.0,0.0,0.0,0.0,0.0,0.0,0.0,0.0,0.0,6.6914,6.6914,6.6914,6.6914,6.6914,6.6914,6.6914,6.6914,6.6914,6.6914,6.6914,6.6914,0.0,0.0,0.0,0.0,0.0,0.0,0.0,0.0,0.0,0.0,0.0,0.0,0.0,0.0,0.0,0.0,0.0,0.0,0.0,0.0,0.0,0.0,0.0,0.0,0.0,0.0,0.0,0.0,0.0,0.0,0.0,0.0,6.1935,6.1935,0.0,0.0,0.0,0.0,0.0,0.0,0.0,0.0,0.0,0.0,0.0,0.0,0.0,6.6113,6.619,6.6113,6.6111,6.6138,6.6019,6.6019,6.6144,6.6159,6.6232,6.6428,6.6585,0.0,6.664,6.6836,0.0,0.0,0.0,0.0,0.0,0.0,0.0,0.0,0.0,0.0,0.0,0.0,0.0,0.0,0.0,0.0,0.0,0.0,0.0,0.0,0.0,0.0,6.6914,6.6914,6.6914,6.6914,0.0,6.6914,6.6914,6.6914,0.0,0.0,0.0,0.0,0.0,0.0,0.0,0.0,6.6914,6.6914,6.6914,6.6914,6.6914,6.6914,6.6914,6.6914,6.6914,6.6914,6.6914,6.6914,6.6914,6.6914,0.0,0.0,0.0,0.0,0.0,0.0,0.0,0.0,0.0,0.0,0.0,0.0,0.0,0.0,0.0,0.0,0.0,0.0,0.0,0.0,0.0,0.0,0.0,0.0,0.0,0.0,0.0,0.0,0.0,6.1855,6.227,6.2725,6.3074,6.3471,0.0,0.0,0.0,0.0,0.0,0.0,0.0,0.0,0.0,6.5981,6.5981,6.6019,6.6138,6.6019,6.5981,6.5981,6.5939,6.5939,6.5981,6.5981,6.6058,6.6138,6.6256,6.6371,6.6523,6.6797,6.6914,6.6914,0.0,0.0,0.0,0.0,0.0,6.6914,6.6914,6.6914,0.0,0.0,0.0,0.0,0.0,0.0,0.0,0.0,0.0,0.0,0.0,0.0,0.0,6.6914,6.6914,6.6914,6.6914,6.6914,6.6914,0.0,6.6914,6.6914,6.6914,0.0,0.0,0.0,0.0,0.0,6.6914,6.6914,6.6914,6.6914,6.6914,6.6914,6.6914,6.6914,6.6914,6.6914,6.6914,6.6914,6.6914,6.6914,6.6914,0.0,0.0,0.0,0.0,0.0,0.0,0.0,0.0,0.0,0.0,0.0,0.0,0.0,0.0,0.0,0.0,0.0,0.0,0.0,0.0,0.0,0.0,0.0,0.0,0.0,0.0,0.0,0.0,6.2613,6.2974,6.3569,6.3838,6.4235,0.0,0.0,0.0,0.0,0.0,0.0,6.59,6.59,6.59,6.59,6.59,6.59,6.59,6.59,6.59,6.59,6.59,6.59,6.59,6.59,6.6019,6.6218,6.6378,6.6632,6.6972,6.687,6.6836,6.6914,6.6914,6.6914,6.6914,6.6914,6.6914,6.6914,6.6914,6.6914,6.6914,6.6914,0.0,6.6914,6.6914,0.0,0.0,0.0,0.0,6.6914,6.6914,6.6914,6.6914,6.6914,6.6914,6.6914,6.6914,6.6914,6.6914,0.0,6.6914,6.6914,6.6914,0.0,0.0,0.0,0.0,6.6992,6.7187,6.7226,6.7305,6.7539,6.7383,6.7226,6.7226,6.7031,6.6914,6.6914,6.6914,6.6914,6.6914,6.6914,6.6914,6.6914,0.0,0.0,0.0,0.0,0.0,0.0,0.0,0.0,0.0,0.0,0.0,0.0,0.0,0.0,0.0,0.0,0.0,0.0,0.0,0.0,0.0,0.0,0.0,0.0,0.0,0.0,0.0,0.0,0.0,6.4513,6.5266,0.0,0.0,0.0,0.0,6.59,6.59,6.59,6.59,6.59,6.59,6.59,6.59,6.59,6.59,6.59,6.59,6.59,6.59,6.59,6.59,6.59,6.6336,6.7051,6.725,6.7762,6.8389,6.7119,6.6719,6.6914,6.6914,6.6914,6.6914,6.6914,6.6914,6.6914,6.6914,6.6914,6.6914,6.6914,6.6914,6.6914,6.6914,6.6914,0.0,0.0,6.6914,6.6914,6.6914,6.6914,6.6914,6.6914,6.6914,6.6914,6.6914,6.6914,6.6914,0.0,6.6914,6.6914,6.6914,0.0,6.6914,6.6914,6.6914,6.7187,6.8047,6.8125,6.8437,6.9297,6.8633,6.8125,6.8125,6.7383,6.6914,6.6914,6.6914,6.6914,6.6914,6.6914,6.6914,6.6914,6.6914,0.0,0.0,0.0,0.0,0.0,0.0,0.0,0.0,0.0,0.0,0.0,0.0,0.0,0.0,0.0,0.0,0.0,0.0,0.0,0.0,0.0,0.0,0.0,0.0,0.0,0.0,0.0,0.0,6.5385,6.5702,0.0,6.59,6.59,6.59,6.59,6.59,6.59,6.59,6.59,6.59,6.59,6.59,6.59,6.59,6.59,6.59,6.59,6.6416,6.6654,6.6692,6.725,6.7683,6.7959,6.8167,6.8455,6.8774,6.841,6.8303,6.8359,6.789,6.7734,6.7656,6.7109,6.6914,6.6914,6.6914,6.6914,6.6914,6.6914,6.6914,6.6914,6.6914,6.6914,6.6914,6.6914,6.6914,6.6914,6.6914,6.6914,6.6914,6.6914,6.6914,6.6914,6.6914,6.6914,6.6914,6.6914,6.6914,6.6914,6.6914,6.7383,6.7734,6.7734,6.8203,6.8672,6.8945,6.8984,6.9101,6.9453,6.9219,6.9023,6.8984,6.8203,6.7734,6.7734,6.7226,6.6914,6.6914,6.6914,6.6914,6.6914,6.6914,6.6758,0.0,0.0,0.0,0.0,0.0,0.0,0.0,0.0,0.0,0.0,0.0,0.0,0.0,0.0,0.0,0.0,0.0,0.0,0.0,0.0,0.0,0.0,0.0,0.0,0.0,0.0,6.5266,6.582,6.59,6.59,6.59,6.59,6.59,6.59,6.59,6.59,6.59,6.59,6.59,6.59,6.59,6.59,6.59,6.6167,6.6285,6.6298,6.7131,6.7545,6.7555,6.8148,6.8546,6.8857,6.8983,6.927,6.9707,6.9906,6.9982,6.9961,6.8984,6.8594,6.8515,6.7969,6.7773,6.7734,6.7422,6.7148,6.6914,6.6914,6.6914,6.6914,6.6914,6.6914,6.6914,6.6914,6.6914,6.6914,6.6914,6.6914,6.6914,6.6914,6.6914,6.6914,6.6914,6.6914,6.6992,6.7265,6.7109,6.6992,6.7305,6.7812,6.8281,6.8594,6.914,6.957,6.9805,6.9844,6.9961,7.0312,7.0078,6.9883,6.9844,6.9062,6.8476,6.8203,6.7656,6.7226,6.6914,6.6914,6.6914,6.6914,6.6914,6.6758,6.6445,0.0,0.0,0.0,0.0,0.0,0.0,0.0,0.0,0.0,0.0,0.0,0.0,0.0,0.0,0.0,0.0,0.0,0.0,0.0,0.0,0.0,0.0,0.0,6.59,6.59,6.59,6.59,6.59,6.59,6.59,6.59,6.59,6.59,6.59,6.59,6.59,6.59,6.59,6.59,6.5939,6.5939,6.5936,6.6737,6.7135,6.7164,6.8036,6.8421,6.844,6.8478,6.8953,6.9749,6.9749,7.0304,7.122,7.1424,7.1579,7.1562,7.0039,6.9453,6.9453,6.9414,6.9453,6.9375,6.8515,6.7695,6.6953,6.6953,6.6953,6.6953,6.6914,6.6914,6.6914,6.6914,6.6914,6.6914,6.6914,6.6914,6.6914,6.6914,6.6914,6.6914,6.6914,6.6953,6.7187,6.8086,6.7578,6.7265,6.8086,6.8242,6.8555,6.9414,6.957,0.0,7.0625,7.0742,7.1055,7.1914,7.125,7.0742,7.0742,6.9922,6.9101,6.832,6.8242,6.7812,6.6992,6.6914,6.6914,6.6914,6.6914,6.6484,6.5586,0.0,0.0,0.0,0.0,0.0,0.0,0.0,0.0,0.0,0.0,0.0,0.0,0.0,0.0,0.0,0.0,0.0,0.0,0.0,0.0,0.0,0.0,6.59,6.59,6.59,6.59,6.59,6.59,6.59,6.59,6.59,6.59,6.59,6.59,6.59,6.59,6.59,6.59,6.59,6.6471,6.6766,6.6788,6.7612,6.8032,6.8047,6.892,6.9339,6.9351,6.9948,7.0343,7.058,7.0699,7.0937,7.1216,7.1511,7.1689,7.1601,7.0703,7.0351,7.0273,6.9648,6.9453,6.9453,6.9219,6.8945,6.8633,6.8047,6.7851,6.7734,6.7109,6.6914,6.6914,6.6914,6.6914,6.6914,6.6914,6.6914,6.6914,6.6914,6.6914,6.707,6.7695,6.7851,6.8086,6.8984,6.8906,6.8789,6.9023,6.9609,7.0078,7.0195,7.0859,0.0,7.1406,7.1562,7.1719,7.1953,7.1797,7.164,7.164,7.0859,7.0234,7.0039,6.8867,6.8086,6.7851,6.7226,6.6914,6.6914,6.6914,6.6484,0.0,0.0,0.0,0.0,0.0,0.0,0.0,0.0,0.0,0.0,0.0,0.0,0.0,0.0,0.0,0.0,0.0,0.0,0.0,0.0,0.0,0.0,6.59,6.59,6.59,6.59,6.59,6.59,6.59,6.59,6.59,6.59,6.59,6.59,6.59,6.59,6.59,6.59,6.6054,6.6401,6.6856,6.7269,6.7637,6.85,6.8958,6.8938,6.9794,7.0186,7.0224,7.0699,7.0898,0.0,7.1017,7.1136,7.1203,7.1391,7.1571,0.0,0.0,0.0,0.0,0.0,7.0273,7.0,7.0,6.9726,6.9336,6.8906,6.8711,6.8594,6.8086,6.7969,6.7969,6.7969,6.7969,6.7969,6.7969,6.7969,6.7969,6.7969,6.7969,6.8086,6.8594,6.8711,6.8945,6.9844,0.0,0.0,7.0312,7.0508,7.0703,7.0976,7.1461,7.1765,7.1717,7.1797,7.1914,7.1992,7.1992,7.1992,7.1992,7.1523,0.0,0.0,0.0,6.8437,6.7695,6.7187,0.0,0.0,0.0,6.664,6.6133,0.0,0.0,0.0,6.3359,6.2734,0.0,0.0,0.0,0.0,0.0,0.0,0.0,0.0,0.0,0.0,0.0,0.0,0.0,0.0,0.0,0.0,6.59,6.59,6.59,6.59,6.59,6.59,6.59,6.59,6.59,6.59,6.59,6.59,6.59,6.5939,6.6016,0.0,0.0,0.0,0.0,6.7744,6.8545,6.9395,6.9825,6.9835,7.0559,7.0898,7.0898,7.0898,7.0898,7.0898,7.0898,7.1017,7.1174,7.1178,7.1407,7.1716,7.1914,7.1992,7.1992,7.1992,7.1523,0.0,7.0859,0.0,0.0,6.9648,6.9609,6.9531,6.9414,6.9414,6.9414,6.9453,6.9453,6.9414,6.9492,6.9453,6.9414,6.9492,6.9453,6.9414,6.9531,6.9531,6.9805,7.0664,7.082,7.1015,7.1562,7.1094,7.0858,7.1551,7.1575,7.1517,7.1641,7.1677,7.1758,7.1953,0.0,0.0,7.1992,7.1992,7.168,7.0898,7.0,6.875,6.7109,6.6953,6.6914,6.6914,6.6914,6.6914,6.6914,6.6914,6.6484,6.5703,6.3945,6.3086,0.0,0.0,0.0,0.0,0.0,0.0,0.0,0.0,0.0,0.0,0.0,0.0,0.0,0.0,0.0,6.59,6.59,6.59,6.59,6.59,6.59,6.59,6.59,6.59,6.59,6.59,6.59,6.59,6.59,6.617,6.6824,6.6865,0.0,6.8125,6.8818,6.9283,6.9433,7.0244,7.0671,7.0671,0.0,0.0,7.0898,7.0898,7.0898,7.0898,7.0898,7.0937,7.0979,7.1136,7.1314,7.1561,7.1862,7.1992,7.1992,7.1992,7.1875,7.1758,7.1758,7.164,7.1367,7.0703,7.0469,7.0312,6.9609,6.9414,0.0,6.9414,6.9414,6.9414,6.9492,6.9492,6.9492,6.9492,6.9453,6.9609,7.0312,7.0469,7.0664,7.1367,7.1523,7.1523,7.1523,7.1484,7.1447,7.13,7.1389,7.1435,7.1291,7.1518,7.1719,7.1758,7.1914,7.1992,7.1992,7.1992,7.1914,7.1758,7.0273,6.8984,6.8008,6.7265,6.6914,6.6914,6.6914,6.6914,6.6914,6.6914,6.6797,6.6601,6.4844,6.3672,0.0,0.0,0.0,0.0,0.0,0.0,0.0,0.0,0.0,0.0,0.0,6.59,0.0,0.0,6.59,6.59,6.59,6.59,6.59,6.59,6.59,6.59,6.59,6.59,6.59,6.59,6.59,6.59,6.6285,6.667,6.7093,6.7513,6.8164,6.901,6.9472,6.9898,7.0283,7.0706,7.0898,7.0898,7.0898,7.0898,7.0898,7.0898,7.0898,7.0898,7.0898,7.0898,7.0937,7.1136,7.126,7.1363,7.1643,7.178,7.1836,7.1836,7.1914,7.1992,7.1992,7.1992,7.1914,7.1484,7.1367,7.1289,7.082,7.0703,7.0703,7.0703,7.0703,7.0703,7.0742,7.0742,7.0742,7.0742,7.0742,7.0781,7.1133,7.1211,7.1289,7.1562,7.16,7.1562,7.1366,7.1407,7.1385,7.1242,7.1216,7.1216,7.1216,7.1368,7.1529,7.1678,7.1797,7.1875,7.1992,7.1992,7.1797,7.1367,7.0156,6.9062,6.8242,6.7344,6.6914,6.6914,6.6914,6.6914,6.6914,6.6914,6.6914,6.6875,6.5547,6.4492,0.0,0.0,0.0,0.0,0.0,0.0,0.0,6.59,6.59,6.59,6.59,6.59,6.59,6.59,6.59,6.59,6.59,6.59,6.59,6.59,6.59,6.59,6.59,6.59,6.59,6.6054,6.6131,6.6131,6.6901,6.7439,6.7593,6.8279,6.9048,6.9898,6.9937,7.0244,7.0898,7.0898,7.0898,7.0898,7.0898,7.0898,7.0898,7.0898,7.0898,7.0898,7.0898,7.0898,7.0898,7.1059,7.1136,7.1174,7.1335,7.1463,7.1603,7.1663,7.1747,7.1904,7.1904,7.1904,7.1904,7.1904,7.1911,7.1953,7.1953,7.1953,7.1992,7.1992,7.1992,7.1992,7.1992,7.1992,7.1992,7.1953,7.1953,7.1875,7.1719,7.1668,7.1639,7.1482,7.1441,7.1374,7.1178,7.1136,7.1136,7.1136,7.1017,7.0979,7.1136,7.1178,7.1305,7.1571,7.1673,7.1797,7.1992,7.1992,7.1719,7.1015,7.0195,6.9336,6.8476,6.7617,6.707,6.6914,6.6914,6.6914,6.6914,6.6914,6.6914,6.6875,6.6172,6.539,6.59,6.59,6.59,6.59,6.59,6.59,0.0,6.59,6.59,6.59,6.59,6.59,6.59,6.59,6.59,6.59,6.59,6.59,6.59,6.59,6.59,6.59,6.59,6.59,6.59,6.6555,6.6981,6.6981,6.7779,6.8587,6.936,6.951,6.9937,7.0744,7.0783,7.0821,7.0898,7.0898,7.0898,7.0898,7.0898,7.0898,7.0898,7.0898,7.0898,7.0898,7.0898,7.0898,7.0898,7.0937,7.0937,7.0937,7.0979,7.1075,7.1279,7.1459,7.1539,7.1578,7.1578,7.1578,7.1578,7.1578,7.1654,7.1719,7.1719,7.1875,7.1992,7.1992,7.1992,7.1992,7.1992,7.1992,7.1953,7.1797,7.1719,7.168,7.1562,7.1519,7.1487,7.1287,7.1246,7.1174,7.0979,7.0937,7.0937,7.0937,7.0898,7.0898,7.0937,7.1097,7.12,7.1234,7.1503,7.1797,7.1992,7.1992,7.1953,7.1875,7.1055,7.0156,6.9297,6.8476,6.7695,6.6914,6.6914,6.6914,6.6914,6.6914,6.6914,6.6914,6.6797,6.6289,6.59,6.59,6.59,6.59,6.59,6.59,6.59,6.59,6.59,6.59,6.59,6.59,6.59,6.59,6.59,0.0,6.59,6.59,6.59,6.59,6.6054,6.6555,6.6593,6.6593,6.6593,6.6901,6.7324,6.7818,6.8664,6.9318,6.9664,7.0129,7.0552,7.0898,7.0898,7.0898,7.0898,7.0898,7.0898,7.0898,7.0898,7.0898,7.0898,7.0898,7.0898,7.0898,7.0898,7.0898,7.0898,7.0898,7.0898,7.0898,7.0898,7.094,7.1054,7.1254,7.1385,7.1504,7.1504,7.1504,7.1504,7.1504,7.1542,7.159,7.1584,7.1625,7.1728,7.1715,7.1719,7.1719,7.1719,7.1719,7.168,7.1601,7.1582,7.1544,7.1348,7.133,7.1255,7.1056,7.1017,7.1017,7.0898,7.0898,7.0898,7.0898,7.0898,7.0898,7.0898,7.0979,7.1136,7.1335,7.1662,7.1914,7.1992,7.1992,7.1992,7.1992,7.1172,7.0312,6.9453,6.8633,6.7773,6.6914,6.6914,6.6914,6.6914,6.6914,6.6914,6.6914,6.6914,6.6719,6.59,6.59,6.59,6.59,6.59,6.59,6.59,6.59,6.59,6.59,6.59,6.59,6.59,6.59,6.59,6.59,6.59,6.59,6.59,6.6093,6.6439,6.7019,6.7324,6.7555,6.7786,6.7824,6.809,6.8702,6.9549,7.001,7.001,7.0591,7.0898,7.0898,7.0898,7.0898,7.0898,7.0898,7.0898,7.0898,7.0898,7.0898,7.0898,7.0898,7.0898,7.0898,7.0898,7.0898,7.0898,7.0898,7.0898,7.0898,7.0898,7.0898,7.0937,7.1056,7.1216,7.1335,7.1335,7.1335,7.1335,7.1335,7.1374,7.1432,7.1436,7.1467,7.1495,7.151,7.1518,7.1518,7.1518,7.1518,7.1479,7.144,7.1419,7.1374,7.1174,7.1136,7.1059,7.0937,7.0898,7.0898,7.0898,7.0898,7.0898,7.0898,7.0898,7.0898,7.0898,7.094,7.113,7.1508,7.1783,7.1953,7.1992,7.1992,7.1992,7.1992,7.1406,7.0547,6.9453,6.8867,6.8047,6.6914,6.6914,6.6914,6.6914,6.6914,6.6914,6.6914,6.6914,6.6914,6.59,6.59,6.59,6.59,6.59,6.59,6.59,6.59,6.59,6.59,6.59,6.59,6.59,6.59,6.59,6.59,6.59,6.59,6.59,6.6555,6.7055,6.7096,6.7859,6.8702,0.0,6.9629,6.9625,6.9667,7.0398,7.086,7.086,7.0898,7.0898,7.0898,7.0898,7.0898,7.0898,7.0898,7.0898,7.0898,7.0898,7.0898,7.0898,7.0898,7.0898,7.0898,7.0898,7.0898,7.0898,7.0898,7.0898,7.0898,7.0898,7.0898,7.0898,7.0898,7.0898,7.0937,7.0937,7.0937,7.0937,7.0937,7.1056,7.122,7.1202,7.1369,7.1491,7.1511,7.1518,7.1518,7.1518,7.1518,7.1441,7.1242,7.1208,7.1136,7.094,7.0898,7.0898,7.0898,7.0898,7.0898,7.0898,7.0898,7.0898,7.0898,7.0898,7.0898,7.0898,7.1059,7.1337,7.1669,7.1718,7.1797,7.1992,7.1992,7.1992,7.1992,7.1992,7.1172,6.9453,6.9453,6.8633,6.6914,6.6914,6.6914,6.6914,6.6914,6.6914,6.6914,6.6914,6.6914,6.59,6.59,6.59,6.59,6.59,6.59,6.59,6.59,6.59,6.59,6.59,6.59,6.59,6.59,6.59,6.59,6.59,6.6093,6.6631,6.6942,6.7516,6.8706,6.909,0.0,0.0,0.0,0.0,7.0475,7.0744,7.0898,7.0898,7.0898,7.0898,7.0898,7.0898,7.0898,7.0898,7.0898,7.0898,7.0898,7.0898,7.0898,7.0898,7.0898,7.0898,7.0898,7.0898,7.0898,7.0898,7.0898,7.0898,7.0898,7.0898,7.0898,7.0898,7.0898,7.0898,7.0898,7.0898,7.0898,7.0898,7.0898,7.094,7.1017,7.1017,7.1056,7.1097,7.1097,7.1097,7.1097,7.1097,7.1097,7.1097,7.1017,7.1017,7.0979,7.0898,7.0898,7.0898,7.0898,7.0898,7.0898,7.0898,7.0898,7.0898,7.0898,7.0898,7.0898,7.0898,7.1074,7.1298,7.1523,7.164,7.1797,7.1992,7.1992,7.1992,7.1992,7.1992,7.1484,7.0312,6.9765,6.8945,6.7773,6.7187,6.6914,6.6914,6.6914,6.6914,6.6914,6.6914,6.6914,6.59,6.59,6.59,6.59,6.59,6.59,6.59,6.59,6.59,6.59,6.59,6.59,6.59,6.59,6.59,6.59,6.6131,6.6516,6.7019,6.7632,6.8436,6.9552,6.9937,7.0321,0.0,0.0,0.0,7.086,7.0898,7.0898,7.0898,7.0898,7.0898,7.0898,7.0898,7.0898,7.0898,7.0898,7.0898,7.0898,7.0898,7.0898,7.0898,7.0898,7.0898,7.0898,7.0898,7.0898,7.0898,7.0898,7.0898,7.0898,7.0898,7.0898,7.0898,7.0898,7.0898,7.0898,7.0898,7.0898,7.0898,7.0898,7.0898,7.0898,7.0898,7.0898,7.0898,7.0898,7.0898,7.0898,7.0898,7.0898,7.0898,7.0898,7.0898,7.0898,7.0898,7.0898,7.0898,7.0898,7.0898,7.0898,7.0898,7.0898,7.0898,7.0898,7.0898,7.0937,7.1017,7.1137,7.1266,7.1462,7.1618,7.1758,7.1875,7.1953,7.1992,7.1992,7.1992,7.1601,7.0742,6.9883,6.9062,6.8203,6.7344,6.6914,6.6914,6.6914,6.6914,6.6914,6.6914,6.6914,6.59,6.59,6.59,6.59,6.59,6.59,6.59,6.59,6.59,6.59,6.59,6.59,6.59,6.59,6.59,6.5939,6.6593,6.7132,6.7212,6.8667,6.9706,0.0,0.0,0.0,0.0,0.0,0.0,7.0898,0.0,7.0898,7.0898,7.0898,7.0898,7.0898,7.0898,7.0898,7.0898,7.0898,7.0898,7.0898,7.0898,7.0898,7.0898,7.0898,7.0898,7.0898,7.0898,7.0898,7.0898,7.0898,7.0898,7.0898,7.0898,7.0898,7.0898,7.0898,7.0898,7.0898,7.0898,7.0898,7.0898,7.0898,7.0898,7.0898,7.0898,7.0898,7.0898,7.0898,7.0898,7.0898,7.0898,7.0898,7.0898,7.0898,7.0898,7.0898,7.0898,7.0898,7.0898,7.0898,7.0898,7.0898,7.0898,7.0898,7.0898,7.0898,7.0898,7.0979,7.1174,7.1178,7.1255,7.1454,7.1595,7.1678,7.1719,7.1875,7.1992,7.1992,7.1992,7.164,7.0781,6.9883,6.9062,6.8281,6.7383,6.6914,6.6914,6.6914,6.6914,6.6914,6.6914,6.6914,6.59,6.59,6.59,6.59,6.59,6.59,6.59,6.59,6.59,6.59,6.59,6.59,6.59,6.59,6.6093,6.6712,6.6981,6.7555,6.8859,6.9436,6.9933,7.0514,7.0783,7.0898,7.0898,7.0898,0.0,0.0,7.0898,7.0898,7.0898,7.0898,7.0898,7.0898,7.0898,7.0898,7.0898,7.0898,7.0898,7.0898,7.0898,7.0898,7.0898,7.0898,7.0898,7.0898,7.0898,7.0898,7.0898,7.0898,7.0898,7.0898,7.0898,7.0898,7.0898,7.0898,7.0898,7.0898,7.0898,7.0898,7.0898,7.0898,7.0898,7.0898,7.0898,7.0898,7.0898,7.0898,7.0898,7.0898,7.0898,7.0898,7.0898,7.0898,7.0898,7.0898,7.0898,7.0898,7.0898,7.0898,7.0898,7.0898,7.0898,7.0898,7.0898,7.0898,7.0898,7.0937,7.0979,7.0979,7.1056,7.1255,7.1326,7.1437,7.1678,7.1758,7.1836,7.1992,7.1992,7.1914,7.168,7.0273,6.9375,6.918,6.7656,6.6914,6.6914,6.6914,6.6914,6.6914,6.6914,6.6914,6.59,6.59,6.59,6.59,6.59,6.59,6.59,6.59,6.59,6.59,6.59,6.59,6.59,6.6208,6.6555,6.7019,6.7747,6.859,6.9552,7.0014,7.0398,7.086,7.0898,7.0898,7.0898,7.0898,7.0898,0.0,7.0898,7.0898,7.0898,7.0898,7.0898,7.0898,7.0898,7.0898,7.0898,7.0898,7.0898,7.0898,7.0898,7.0898,7.0898,7.0898,7.0898,7.0898,0.0,7.0898,7.0898,7.0898,7.0898,7.0898,7.0898,7.0898,7.0898,7.0898,7.0898,7.0898,7.0898,7.0898,7.0898,7.0898,7.0898,7.0898,7.0898,7.0898,7.0898,7.0898,7.0898,7.0898,7.0898,7.0898,7.0898,7.0898,7.0898,7.0898,7.0898,7.0898,7.0898,7.0898,7.0898,7.0898,7.0898,7.0898,7.0898,7.0898,7.0898,7.0898,7.0898,7.0898,7.0937,7.1056,7.1136,7.1326,7.1594,7.1687,7.1797,7.1992,7.1992,7.1992,7.1992,7.0742,6.9844,6.9492,6.8164,6.7265,6.6914,6.6914,6.6914,6.6914,6.6914,6.6914,6.59,6.59,6.59,6.59,6.59,6.59,6.59,6.59,6.59,6.59,6.59,6.59,6.59,6.6555,6.7135,6.7247,6.8629,6.9741,6.986,7.0475,7.0898,7.0898,7.0898,7.0898,7.0898,7.0898,7.0898,7.0898,7.0898,7.0898,7.0898,7.0898,7.0898,7.0898,7.0898,7.0898,7.0898,7.0898,7.0898,7.0898,7.0898,7.0898,7.0898,7.0898,7.0898,7.0898,0.0,0.0,7.0898,7.0898,7.0898,7.0898,7.0898,7.0898,7.0898,7.0898,7.0898,7.0898,7.0898,7.0898,7.0898,7.0898,7.0898,7.0898,7.0898,7.0898,7.0898,7.0898,7.0898,7.0898,7.0898,7.0898,7.0898,7.0898,7.0898,7.0898,7.0898,7.0898,7.0898,7.0898,7.0898,7.0898,7.0898,7.0898,7.0898,7.0898,7.0898,7.0898,7.0898,7.0898,7.0898,7.0898,7.1056,7.1255,7.1492,7.1596,7.1758,7.1992,7.1992,7.1992,7.1992,7.1172,7.0312,6.9492,6.8633,6.7773,6.6914,6.6914,6.6914,6.6914,6.6914,6.6914,6.59,6.59,6.59,6.59,6.59,6.59,6.59,6.59,6.59,6.59,6.59,6.59,6.59,6.6555,6.7324,6.8048,6.9048,6.9937,7.0591,7.0821,7.0898,7.0898,7.0898,7.0898,7.0898,7.0898,0.0,0.0,0.0,7.0898,7.0898,7.0898,7.0898,7.0898,7.0898,7.0898,7.0898,7.0898,7.0898,7.0898,7.0898,7.0898,7.0898,7.0898,7.0898,7.0898,7.0898,0.0,7.0898,7.0898,7.0898,7.0898,7.0898,7.0898,7.0898,7.0898,7.0898,7.0898,7.0898,7.0898,7.0898,7.0898,7.0898,7.0898,7.0898,7.0898,7.0898,7.0898,7.0898,7.0898,7.0898,7.0898,7.0898,7.0898,7.0898,7.0898,7.0898,7.0898,7.0898,7.0898,7.0898,7.0898,7.0898,7.0898,7.0898,7.0898,7.0898,7.0898,7.0898,7.0898,7.0898,7.0898,7.0937,7.1097,7.1454,7.1517,7.168,7.1992,7.1992,7.1992,7.1992,7.1172,7.0312,6.9414,6.8633,6.7773,6.6914,6.6914,6.6914,6.6914,6.6914,6.6914,6.59,6.59,6.59,6.59,6.59,6.59,6.59,6.59,6.59,6.59,6.59,6.59,6.59,6.6936,6.7894,6.8314,6.9472,7.0475,7.086,7.0898,7.0898,7.0898,7.0898,7.0898,7.0898,7.0898,7.0898,7.0898,7.0898,7.0898,7.0898,7.0898,7.0898,7.0898,7.0898,7.0898,7.0898,7.1363,7.1594,7.1594,7.2052,7.2241,7.2241,7.2241,7.2241,7.2241,7.2241,0.0,7.1594,7.1594,7.1325,7.0898,7.0898,7.0898,7.0898,7.0898,7.0898,7.0898,7.0898,7.0898,7.0898,7.0898,7.0898,7.0898,7.0898,7.0898,7.0898,7.0898,7.0898,7.0898,7.0898,7.0898,7.0898,7.0898,7.0898,7.0898,7.0898,7.0898,7.0898,7.0898,7.0898,7.0898,7.0898,7.0898,7.0898,7.0898,7.0898,7.0898,7.0898,7.0898,7.0898,7.0898,7.0898,7.1017,7.1335,7.1439,7.1601,7.1836,7.1953,7.1992,7.1992,7.1601,7.0976,7.0078,6.9297,6.8437,6.7578,6.7109,6.6914,6.6914,6.6914,6.6836,6.59,6.59,6.59,6.59,6.59,6.59,6.59,6.59,6.59,6.59,6.59,6.5939,6.6131,6.7398,6.8468,6.866,6.9937,7.0898,7.0898,7.0898,7.0898,7.0898,7.0898,7.0898,7.0898,7.0898,0.0,7.0898,7.0898,0.0,7.0898,7.0898,7.0898,7.0898,7.1091,7.1171,7.1171,7.2056,7.2479,7.2479,7.3164,7.3507,7.3507,7.3507,7.3507,7.3507,7.3507,0.0,0.0,7.2479,7.2052,7.1437,7.1245,7.1171,7.1168,7.0975,7.0898,7.0898,7.0898,7.0898,7.0898,7.0898,7.0898,7.0898,7.0898,7.0898,7.0898,7.0898,7.0898,7.0898,7.0898,7.0898,7.0898,7.0898,7.0898,7.0898,7.0898,7.0898,7.0898,7.0898,7.0898,7.0898,7.0898,7.0898,7.0898,7.0898,7.0898,7.0898,7.0898,7.0898,7.0898,7.0898,7.0898,7.0979,7.1178,7.1349,7.1498,7.1679,7.1836,7.1953,7.1992,7.1992,7.1601,7.0703,6.9922,6.9062,6.8203,6.7344,6.6875,6.6836,6.6836,6.6752,6.59,6.59,6.59,6.59,6.59,6.59,6.59,6.59,6.59,6.59,6.59,6.6131,6.6865,6.7741,6.866,6.9433,7.0321,7.0898,7.0898,7.0898,7.0898,7.0898,7.0898,7.0898,7.0898,7.0898,7.0898,7.0898,0.0,0.0,7.0898,7.0898,7.0898,7.0898,7.1671,7.2094,7.2094,7.2934,7.3392,7.3392,7.3469,7.3507,7.3507,7.3507,7.3507,7.3507,7.3507,0.0,0.0,7.3392,7.3315,7.3161,7.2402,7.2094,7.1979,7.1209,7.0898,7.0898,7.0898,7.0898,7.0898,7.0898,7.0898,7.0898,7.0898,7.0898,7.0898,7.0898,7.0898,7.0898,7.0898,7.0898,7.0898,7.0898,7.0898,7.0898,7.0898,7.0898,7.0898,7.0898,7.0898,7.0898,7.0898,7.0898,7.0898,7.0898,7.0898,7.0898,7.0898,7.0898,7.0898,7.0898,7.0898,7.0979,7.1178,7.1217,7.1376,7.1678,7.1719,7.1797,7.1992,7.1992,7.1601,7.0703,6.9922,6.9062,6.8203,6.7344,6.6797,6.664,6.664,6.6533,6.59,6.59,6.59,6.59,6.59,6.59,6.59,6.59,6.59,6.59,6.59,6.6131,6.6939,6.7821,6.8702,6.9549,7.0398,7.0898,7.0898,7.0898,7.0898,7.0898,7.0898,7.0898,7.0898,7.0898,7.0898,7.0898,0.0,0.0,7.1671,7.1671,7.1671,7.1671,7.2514,7.2972,7.2972,7.3818,7.4199,7.4242,7.4742,7.5011,7.5011,7.5011,7.5011,7.5011,7.5011,0.0,0.0,7.4199,7.393,7.3469,7.3126,7.2972,7.2899,7.2017,7.1671,7.1594,7.1091,7.0898,7.0898,7.0898,7.0898,7.0898,7.0898,7.0898,7.0898,7.0898,7.0898,7.0898,7.0898,7.0898,7.0898,7.0898,7.0898,7.0898,7.0898,7.0898,7.0898,7.0898,7.0898,7.0898,7.0898,7.0898,7.0898,7.0898,7.0898,7.0898,7.0898,7.0898,7.0898,7.0898,7.0898,7.0937,7.1017,7.1136,7.1294,7.1575,7.1586,7.164,7.1797,7.1758,7.1562,7.1328,7.0,6.914,6.8789,6.7383,6.6636,6.647,6.647,6.6392,6.59,6.59,6.59,6.59,6.59,6.59,6.59,6.59,6.59,6.59,6.59,6.6208,6.7285,6.7971,6.8776,6.9856,7.0514,7.0898,7.0898,7.0898,7.0898,7.0898,7.0898,7.0898,7.0898,7.0898,7.1014,7.1283,0.0,0.0,7.2552,7.2822,7.2825,7.2591,7.3395,7.3853,7.3853,7.4665,7.5088,7.5088,7.5707,7.6015,7.6015,7.6015,7.6015,7.6015,0.0,0.0,0.0,7.5088,7.4742,7.4203,7.3972,7.3853,7.3738,7.2899,7.2591,7.2476,7.1594,7.1283,7.1248,7.0975,7.0898,7.0898,7.0898,7.0898,7.0898,7.0898,7.0898,7.0898,7.0898,7.0898,7.0898,7.0898,7.0898,7.0898,7.0898,7.0898,7.0898,7.0898,7.0898,7.0898,7.0898,7.0898,7.0898,7.0898,7.0898,7.0898,7.0898,7.0898,7.0898,7.0898,7.0898,7.0898,7.0898,7.1017,7.1216,7.1412,7.1412,7.1476,7.1628,7.1545,7.1545,7.1623,7.0223,6.9366,6.9094,6.7608,6.6701,6.6298,6.6298,6.6218,6.59,6.59,6.59,6.59,6.59,6.59,6.59,6.59,6.59,6.59,6.59,6.6401,6.8084,6.8391,6.893,7.0629,7.0898,7.0898,7.0898,7.0898,7.0898,7.0898,7.0898,7.0898,7.0898,7.0898,7.1245,7.2133,0.0,0.0,7.343,7.4242,7.4318,7.3507,7.4276,7.4703,7.4703,7.5553,7.5976,7.5976,7.6015,7.6015,7.6015,7.6015,7.6015,0.0,0.0,0.0,0.0,7.5976,7.5976,7.5899,7.5011,7.4703,7.4588,7.3776,7.3507,7.3353,7.2479,7.2171,7.2056,7.1171,7.0898,7.0898,7.0898,7.0898,7.0898,7.0898,7.0898,7.0898,7.0898,7.0898,7.0898,7.0898,7.0898,7.0898,7.0898,7.0898,7.0898,7.0898,7.0898,7.0898,7.0898,7.0898,7.0898,7.0898,7.0898,7.0898,7.0898,7.0898,7.0898,7.0898,7.0898,7.0898,7.0898,7.0898,7.0979,7.1178,7.1217,7.1309,7.1496,7.1516,7.1516,7.1516,7.0655,6.978,6.8895,6.8023,6.7064,6.6099,6.6099,6.6019,6.59,6.59,6.59,6.59,6.59,6.59,6.59,6.59,6.59,6.59,6.6324,6.7055,6.8199,6.8895,6.9625,7.0706,7.0898,7.0898,7.0898,7.0898,7.0898,7.0898,7.0898,7.0898,7.0898,0.0,7.1902,0.0,0.0,0.0,7.4318,7.5126,7.5203,7.4357,7.5165,7.5588,7.5588,7.5861,7.6015,7.6015,7.6015,7.6015,7.6015,7.6015,0.0,0.0,0.0,0.0,0.0,7.6015,7.6015,7.5976,7.5707,7.5588,7.5476,7.4626,7.4315,7.4203,7.3357,7.3088,7.2934,7.2052,7.1787,7.1671,7.1091,7.0898,7.0898,7.0898,7.0898,7.0898,7.0898,7.0898,7.0898,7.0898,7.0898,7.0898,7.0898,7.0898,7.0898,7.0898,7.0898,7.0898,7.0898,7.0898,7.0898,7.0898,7.0898,7.0898,7.0898,7.0898,7.0898,7.0898,7.0898,7.0898,7.0898,7.0898,7.0979,7.1178,7.1057,7.1094,7.1275,7.1174,7.1136,7.1297,7.044,6.9592,6.8769,6.7888,6.6933,6.5942,6.5942,6.5939,6.59,6.59,6.59,6.59,6.59,6.59,6.59,6.59,6.5977,6.6285,6.675,6.7478,6.8664,6.9318,6.9975,7.0783,7.0898,7.0898,7.0898,7.0898,7.0808,7.0626,7.0611,7.0723,0.0,7.1741,7.2441,0.0,0.0,0.0,7.5165,7.5707,7.5745,7.5203,7.5707,7.6015,7.6015,7.6015,7.6015,7.6015,7.6015,7.6015,7.6015,7.6015,0.0,0.0,0.0,0.0,0.0,7.6015,7.6015,7.6015,7.6015,7.6015,7.5938,7.5396,7.5203,7.5088,7.4242,7.3969,7.3815,7.2976,7.2479,7.2098,7.1556,7.1168,7.0898,7.0898,7.0898,7.0898,7.0898,7.0898,7.0898,7.0898,7.0898,7.0898,7.0898,7.0898,7.0898,7.0898,7.0898,7.0898,7.0898,7.0898,7.0898,7.0898,7.0898,7.0898,7.0898,7.0898,7.0898,7.0898,7.0898,7.0898,7.0898,7.0898,7.094,7.1097,7.0979,7.0979,7.1097,7.0979,7.0979,7.1097,7.0542,6.9868,6.9071,6.7872,6.6814,6.59,6.59,6.59,0.0,6.59,6.59,6.59,6.59,6.59,6.59,6.5939,0.0,6.6942,6.7151,6.7718,6.9391,6.97,6.9942,7.07,7.0798,7.0784,7.0784,7.0784,7.0611,7.018,7.0128,0.0,7.1391,7.1992,0.0,0.0,0.0,0.0,7.5976,7.6015,7.6015,7.6015,7.6015,7.6015,7.6015,7.6015,7.6015,7.6015,7.6015,7.6015,7.6015,7.6015,0.0,0.0,0.0,0.0,0.0,7.6015,7.6015,7.6015,7.6015,7.6015,7.6015,7.6015,7.6015,7.5861,7.5088,7.478,7.4665,7.3853,7.3014,7.2287,7.2287,7.1633,7.0898,7.0898,7.0898,7.0898,7.0898,7.0898,7.0898,7.0898,7.0898,7.0898,7.0898,7.0898,7.0898,7.0898,7.0898,7.0898,7.0898,7.0898,7.0898,7.0898,7.0898,7.0898,7.0898,7.0898,7.0898,7.0898,7.0898,7.0898,7.0898,7.0898,7.0898,7.0898,7.0898,7.0898,7.0898,7.0898,7.0898,7.0898,7.086,7.0423,6.9588,6.7914,6.6692,6.59,6.59,6.59,6.59,0.0,6.59,6.59,6.59,6.59,0.0,6.6362,6.6865,6.7058,6.7783,6.866,6.9536,6.9546,6.9608,7.0199,6.9923,6.9673,6.9673,6.9673,6.9854,7.0367,7.0422,7.0924,7.2182,7.3047,0.0,0.0,0.0,7.5784,7.5976,7.6015,7.6015,7.6015,7.6015,7.6015,7.6015,7.6015,7.6015,7.6015,7.6015,7.6015,7.6015,7.6015,0.0,0.0,0.0,0.0,7.6015,7.6015,7.6015,7.6015,7.6015,7.6015,7.6015,7.6015,7.6015,7.5976,7.5784,7.5707,7.5553,7.4703,7.3857,7.3203,7.3203,7.2126,7.0898,7.0898,7.0898,7.0898,7.0898,7.0898,7.0898,7.0898,7.0898,7.0898,7.0898,7.0898,7.0898,7.0898,7.0898,7.0898,7.0898,7.0898,7.0898,7.0898,7.0898,7.0898,7.0898,7.0898,7.0898,7.0898,7.0898,7.0898,7.0898,7.0898,7.0898,7.0898,7.0898,7.0898,7.0898,7.0898,7.0898,7.0898,7.0304,6.955,6.8715,6.7635,6.6692,6.59,6.59,6.59,6.59,6.59,6.59,6.59,6.59,6.59,6.59,6.6343,6.6865,6.7252,6.8112,6.8951,6.945,6.9604,6.9687,6.9729,6.9496,6.9302,6.9302,6.909,6.9218,7.0038,7.0145,7.0831,0.0,0.0,0.0,0.0,0.0,7.6015,7.6015,7.6015,7.6015,7.6015,7.6015,7.6015,7.6015,7.6015,7.6015,7.6015,7.6015,7.6015,7.6015,7.6015,7.6015,0.0,0.0,0.0,7.6015,7.6015,7.6015,7.6015,7.6015,7.6015,7.6015,7.6015,7.6015,7.6015,7.6015,7.6015,7.5938,7.5434,7.4742,7.4046,7.4046,7.3126,7.201,7.1591,7.1517,7.1398,7.1014,7.0898,7.0898,7.0898,7.0898,7.1017,7.1415,7.1492,7.1611,7.201,7.2087,7.2087,7.2087,7.1772,7.1492,7.1492,7.1174,7.0898,7.0898,7.0898,7.0898,7.0898,7.0898,7.0898,7.0898,7.0898,7.0898,7.0898,7.0898,7.0898,7.0898,7.0898,7.0898,7.0898,7.0462,6.9829,6.8995,6.811,6.7289,6.6455,6.6061,6.59,6.59,6.5936,6.5945,6.5926,6.5824,6.582,6.5932,6.6196,6.6603,6.7487,6.8239,6.8856,6.9222,6.955,6.9621,6.9246,6.9106,6.9053,6.9053,6.8665,6.8734,6.9657,6.9769,0.0,7.2837,0.0,0.0,0.0,0.0,7.5822,7.5756,7.591,7.595,7.5887,7.5947,7.6015,7.6015,7.6015,7.6015,7.6015,7.6015,7.6015,7.6015,7.6015,7.6015,0.0,0.0,0.0,7.6015,7.6015,7.6015,7.6015,7.6015,7.6015,7.6015,7.6015,7.6015,7.6015,7.6015,7.6015,7.6015,7.6015,7.5515,7.4895,7.4895,7.4434,7.3703,7.2825,7.2479,7.2248,7.1475,7.129,7.1297,7.1297,7.1297,7.1492,7.2248,7.2395,7.2619,7.3371,7.349,7.349,7.349,7.2895,7.2346,7.2206,7.1573,7.1056,7.0937,7.0898,7.0898,7.0898,7.0898,7.0898,7.0898,7.0898,7.0898,7.0898,7.0898,7.0898,7.0898,7.0898,7.0898,7.0898,7.0898,7.0503,6.9707,6.8847,6.7946,6.709,6.6259,6.59,6.59,6.6082,6.6166,6.5974,6.5559,6.5387,6.6081,6.6508,6.6966,6.775,6.8258,6.8686,6.9198,6.8619,6.8179,6.855,0.0,6.7943,0.0,0.0,6.8375,6.987,0.0,7.0903,0.0,0.0,0.0,0.0,0.0,7.5027,7.4583,7.5476,7.5783,7.5258,7.5721,7.6015,7.6015,7.6015,7.6015,7.6015,7.6015,7.6015,7.6015,7.6015,7.6015,0.0,0.0,7.6015,7.6015,7.6015,7.6015,7.6015,7.6015,7.6015,7.6015,7.6015,7.6015,7.6015,7.6015,7.6015,7.6015,7.6015,7.5899,7.5784,7.5784,7.5707,7.5438,7.4549,7.3818,7.328,7.3122,7.3084,7.3118,7.3118,7.3118,7.3157,7.3276,7.3287,7.3342,7.3461,7.3499,7.3499,7.3499,7.3384,7.3056,7.2311,7.2087,7.173,7.0979,7.0898,7.0898,7.0898,7.0898,7.0898,7.0898,7.0898,7.0898,7.0898,7.0898,7.0898,7.0898,7.0898,7.0898,7.0898,7.0898,7.0503,6.9707,6.8813,6.7955,6.709,6.6259,6.59,6.5457,6.5673,6.5898,6.5778,6.5863,6.611,6.6476,6.6804,6.7133,6.7503,6.805,6.8493,6.8446,6.8272,6.8129,6.8072,0.0,6.77,6.77,6.8061,6.8788,0.0,0.0,0.0,0.0,0.0,0.0,0.0,0.0,0.0,7.4309,7.4817,7.5092,7.51,7.5387,7.5678,7.6015,7.6015,7.6015,7.6015,7.6015,7.6015,7.6015,7.6015,7.6015,7.6015,0.0,7.6015,7.6015,7.6015,7.6015,7.6015,7.6015,7.6015,7.6015,7.6015,7.6015,7.6015,7.6015,7.6015,7.6015,7.6015,7.6015,7.6015,7.6015,7.6015,7.5938,7.5511,7.4819,7.4049,7.3598,7.3507,7.3493,7.351,7.3514,7.3619,7.4039,7.4147,7.431,7.4747,7.4863,7.4863,7.4863,7.4467,7.401,7.3623,7.2766,7.2048,7.1653,7.1178,7.0898,7.0898,7.0898,7.0898,7.0898,7.0898,7.0898,7.0898,7.0898,7.0898,7.0898,7.0898,7.0898,7.0898,7.0898,7.0699,7.0343,6.9033,6.8176,6.7763,6.6497,6.59,6.5174,6.5462,6.5738,6.5916,6.6292,6.6663,6.6845,6.6967,6.709,6.727,6.7857,6.8173,6.7764,6.8021,6.8161,6.7787,6.77,6.7774,6.7951,6.8495,6.9259,0.0,0.0,0.0,0.0,0.0,0.0,0.0,0.0,0.0,7.41,7.4474,7.4818,7.5091,7.5249,7.5543,7.6011,7.6015,7.6015,7.6015,7.6015,7.6015,7.6015,7.6015,7.6015,7.6015,7.6015,7.6015,7.6015,7.6015,7.6015,7.6015,7.6015,7.6015,7.6015,7.6015,7.6015,7.6015,7.6015,7.6015,7.6015,7.6015,7.6015,7.6015,7.6015,7.6015,7.6015,7.6015,7.5511,7.4861,7.4263,7.4074,7.4081,7.4106,7.4074,7.4249,7.4881,7.4985,7.5181,7.5857,7.6015,7.6015,7.6015,7.5458,7.4943,7.4744,7.3465,7.2416,7.2244,7.1454,7.0898,7.0898,7.0898,7.0898,7.0898,7.0898,7.0898,7.0898,7.0898,7.0898,7.0898,7.0898,7.0898,7.0898,7.0898,7.0898,7.0898,6.9431,6.8612,6.836,6.6852,6.6099,6.5346,6.5777,6.6161,6.6883,6.6559,6.623,6.6995,6.6858,6.6769,6.751,6.77,6.7761,6.7714,6.7741,6.7724,6.7707,6.77,6.7951,6.8708,0.0,0.0,0.0,0.0,0.0,0.0,0.0,0.0,0.0,0.0,0.0,7.351,7.5018,7.5654,7.5113,7.5624,7.5947,7.6015,7.6015,7.6015,7.6015,7.6015,7.6015,7.6015,7.6015,7.6015,7.6015,7.6015,7.6015,7.6015,7.6015,7.6015,7.6015,7.6015,7.6015,7.6015,7.6015,7.6015,7.6015,7.6015,7.6015,7.6015,7.6015,7.6015,7.6015,7.6015,7.6015,7.6015,7.6015,7.5938,7.5899,7.5826,7.5822,7.5826,7.5826,7.5826,7.5826,7.5899,7.5896,7.5934,7.5976,7.6015,7.6015,7.6015,7.5938,7.5619,7.4824,7.396,7.3125,7.2314,7.1454,7.0898,7.0898,7.0898,7.0898,7.0898,7.0898,7.0898,7.0898,7.0898,7.0898,7.0898,7.0898,7.0898,7.0898,7.0898,7.0898,7.0898,7.0025,6.9209,6.8398,6.7446,6.6615,6.5015,6.5697,6.637,6.6696,6.6924,6.7152,6.7434,6.7358,6.7327,6.7627,6.77,0.0,0.0,6.77,6.77,6.77,6.8134,6.8568,6.8855,6.9772,0.0,0.0,0.0,0.0,0.0,0.0,0.0,0.0,0.0,0.0,7.2864,7.3454,7.3885,7.4045,7.4266,7.4706,7.5434,7.5438,7.5612,7.6015,7.6015,7.6015,7.6015,7.6015,7.6015,7.6015,7.6015,7.6015,7.6015,7.6015,7.6015,7.6015,7.6015,7.6015,7.6015,7.6015,7.6015,7.6015,7.6015,7.6015,7.6015,7.6015,7.6015,7.6015,7.6015,7.6015,7.6015,7.6015,7.6015,7.6015,7.6015,7.6015,7.6015,7.6015,7.6015,7.6015,7.6015,7.6015,7.6015,7.6015,7.6015,7.6015,7.6015,7.6015,7.5896,7.5577,7.4786,7.3951,7.3105,7.2248,7.1492,7.0979,7.0898,7.0898,7.0898,7.0898,7.0898,7.0898,7.0898,7.0898,7.0898,7.0898,7.0898,7.0898,7.0898,7.0898,7.0898,7.0105,6.9252,6.8381,6.7497,6.6654,6.5182,6.5896,6.6549,6.6813,6.7297,6.77,6.77,6.77,6.77,6.77,6.77,6.77,6.77,0.0,0.0,0.0,6.8531,6.9075,6.9589,7.061,0.0,0.0,0.0,0.0,0.0,0.0,0.0,0.0,0.0,0.0,0.0,7.2957,7.3269,7.3657,7.3675,7.4045,7.4857,7.4862,7.5036,7.5464,7.5464,7.565,7.6015,7.6015,7.6015,7.6015,7.6015,7.6015,7.6015,7.6015,7.6015,7.6015,7.6015,7.6015,7.6015,7.6015,7.6015,7.6015,7.6015,7.6015,7.6015,7.6015,7.6015,7.6015,7.6015,7.6015,7.6015,7.6015,7.6015,7.6015,7.6015,7.6015,7.6015,7.6015,7.6015,7.6015,7.6015,7.6015,7.6015,7.6015,7.6015,7.6015,7.6015,7.6015,7.6015,7.6015,7.5262,7.4416,7.3616,7.2741,7.1852,7.0979,7.0898,7.0898,7.0898,7.0898,7.0898,7.0898,7.0898,7.0898,7.0898,7.0898,7.0898,7.0898,7.0898,7.0898,7.0898,7.0343,6.963,6.8796,6.7914,6.7051,6.6072,6.6512,6.6696,6.7517,6.77,6.77,6.77,6.77,6.77,6.77,6.77,6.77,6.77,6.77,0.0,6.8781,6.8892,6.9479,7.1087,7.1307,0.0,0.0,0.0,0.0,0.0,0.0,0.0,0.0,0.0,0.0,0.0,7.3957,7.4277,7.4277,7.4277,7.4282,7.4288,7.4288,7.4288,7.4293,7.4293,7.4904,7.5965,7.6007,7.5973,7.5973,7.6015,7.6015,7.6015,7.6015,7.6015,7.6015,7.6015,7.6015,7.6015,7.6015,7.6015,7.6015,7.6015,7.6015,7.6015,7.6015,7.6015,7.6015,7.6015,7.6015,7.6015,7.6015,7.6015,7.6015,7.6015,7.6015,7.6015,7.6015,7.6015,7.6015,7.6015,7.6015,7.6015,7.6015,7.6015,7.6015,7.6015,7.6015,7.6015,7.6015,7.5262,7.4429,7.3596,7.2738,7.1849,7.0979,7.0898,7.0898,7.0898,7.0898,7.0898,7.0898,7.0898,7.0898,7.0898,7.0898,7.0898,7.0898,7.0898,7.0898,7.0898,7.0898,7.05,6.9672,6.8825,6.792,6.6219,6.6923,6.7407,6.7627,6.77,6.77,6.77,6.77,6.77,6.77,6.77,6.77,6.77,6.8171,0.0,6.8855,0.0,0.0,7.1233,7.1791,0.0,0.0,0.0,0.0,0.0,0.0,0.0,0.0,0.0,0.0,0.0,7.2923,7.3037,7.3037,7.3037,7.3243,7.3651,7.3657,7.3882,7.4293,7.4293,7.4474,7.4837,7.5192,7.5383,7.54,7.5818,7.6015,7.6015,7.6015,7.6015,7.6015,7.6015,7.6015,7.6015,7.6015,7.6015,7.6015,7.6015,7.6015,7.6015,7.6015,7.6015,7.6015,7.6015,7.6015,7.6015,7.6015,7.6015,7.6015,7.6015,7.6015,7.6015,7.6015,7.6015,7.6015,7.6015,7.6015,7.6015,7.6015,7.6015,7.6015,7.6015,7.6015,7.6015,7.6015,7.5777,7.5091,7.3696,7.2188,7.1178,7.0937,7.0898,7.0898,7.0898,7.0898,7.0898,7.0898,7.0898,7.0898,7.0898,7.0898,7.0898,7.0898,7.0898,7.0898,7.0898,7.0898,7.05,6.9669,6.8826,6.793,6.6769,6.7327,6.77,6.77,6.77,6.77,6.77,6.77,6.77,6.77,6.77,6.7811,6.8134,6.8568,0.0,6.9729,7.0683,0.0,0.0,0.0,0.0,0.0,0.0,0.0,0.0,0.0,0.0,0.0,0.0,0.0,0.0,7.2488,7.2488,7.2488,7.2488,7.2679,7.3057,7.302,7.3237,7.3597,7.3597,7.3597,7.3627,7.441,7.4799,7.4813,7.5156,7.5459,7.5624,7.5624,7.5795,7.6015,7.6015,7.6015,7.6015,7.6015,7.6015,7.6015,7.6015,7.6015,7.6015,7.6015,7.6015,7.6015,7.6015,7.6015,7.6015,7.6015,7.6015,7.6015,7.6015,7.6015,7.6015,7.6015,7.6015,7.6015,7.6015,7.6015,7.6015,7.6015,7.6015,7.6015,7.6015,7.6015,7.6015,7.6015,7.5419,7.4626,7.3619,7.1968,7.0898,7.0898,7.0898,7.0898,7.0898,7.0898,7.0898,7.0898,7.0898,7.0898,7.0898,7.0898,7.0898,7.0898,7.0898,7.0898,7.0898,7.0898,7.0661,7.0144,6.8953,6.8137,6.7474,6.77,6.77,6.77,6.77,6.77,6.77,6.77,6.77,6.77,6.77,6.7958,6.8745,6.8965,6.9516,7.105,7.1344,0.0,0.0,0.0,0.0,0.0,0.0,0.0,0.0,0.0,0.0,0.0,0.0,0.0,0.0,7.2488,7.2488,7.2488,7.2488,7.2488,7.2488,7.2488,7.2488,0.0,7.2488,7.2488,7.2539,7.3675,7.4244,7.4293,7.4293,7.4588,7.5036,7.5036,7.5362,7.5868,7.5868,7.5852,7.5924,7.5924,7.5947,7.6015,7.6015,7.6015,7.6015,7.6015,7.6015,7.6015,7.6015,7.6015,7.6015,7.6015,7.6015,7.6015,7.6015,7.6015,7.6015,7.6015,7.6015,7.6015,7.6015,7.6015,7.6015,7.6015,7.6015,7.6015,7.6015,7.6015,7.6015,7.6015,7.4628,7.3594,7.35,7.2048,7.0979,7.0898,7.0898,7.0898,7.0898,7.0898,7.0898,7.0898,7.0898,7.0898,7.0898,7.0898,7.0898,7.0898,7.0898,7.0898,7.0898,7.0898,7.0898,7.086,6.927,6.8497,6.7474,6.77,6.77,6.77,6.77,6.77,6.77,6.77,6.77,6.77,6.77,6.7958,6.8745,6.9412,7.0146,7.1123,7.1821,7.2305,0.0,0.0,0.0,0.0,0.0,0.0,0.0,0.0,0.0,0.0,0.0,0.0,7.2488,7.2488,7.2488,7.2488,7.2488,7.2488,7.2488,7.2488,7.2488,0.0,7.2488,7.2488,7.2524,7.3275,7.3853,7.4293,7.4293,7.4369,7.448,7.448,7.4552,7.4655,7.4655,7.4909,7.5289,7.5289,7.5588,7.6015,7.6015,7.6015,7.6015,7.6015,7.6015,7.6015,7.6015,7.6015,7.6015,7.6015,7.6015,7.6015,7.6015,7.6015,7.6015,7.6015,7.6015,7.6015,7.6015,7.6015,7.6015,7.6015,7.6015,7.6015,7.6015,7.6015,7.6015,7.6015,7.5104,7.4227,7.358,7.2566,7.1653,7.0979,7.0898,7.0898,7.0898,7.0898,7.0898,7.0898,7.0898,7.0898,7.0898,7.0898,7.0898,7.0898,7.0898,7.0898,7.0898,7.0898,7.0898,7.0898,6.9868,6.9052,6.759,6.77,6.77,6.77,6.77,6.77,6.77,6.77,6.77,6.77,6.8024,6.8531,6.9339,7.0139,7.0947,7.1754,7.2232,7.2488,7.2488,0.0,0.0,0.0,0.0,0.0,0.0,0.0,0.0,0.0,0.0,7.2488,7.2488,7.2488,7.2488,7.2488,7.2488,7.2488,7.2488,7.2488,7.2488,7.2488,7.2488,7.2488,7.2503,7.283,7.3132,7.3435,7.3435,7.3615,7.387,7.387,7.4038,7.4293,7.4293,7.448,7.4735,7.4735,7.4905,7.5199,7.5199,7.5199,7.5239,7.5501,7.5571,7.5608,7.5921,7.6015,7.6015,7.6015,7.6015,7.6015,7.6015,7.6015,7.6015,7.6015,7.6015,7.6015,7.6015,7.6015,7.6015,7.6015,7.6015,7.6015,7.6015,7.6015,7.6015,7.6015,7.5262,7.4409,7.3591,7.2731,7.1852,7.0979,7.0898,7.0898,7.0898,7.0898,7.0898,7.0898,7.0898,7.0898,7.0898,7.0898,7.0898,7.0898,7.0898,7.0898,7.0898,7.0898,7.0898,7.0898,7.0067,6.9224,6.77,6.77,6.77,6.77,6.77,6.77,6.77,6.77,6.7737,6.7884,6.8458,6.9148,6.9963,7.0763,7.1564,7.2378,7.2488,7.2488,7.2488,7.2488,0.0,0.0,0.0,0.0,0.0,0.0,0.0,0.0,0.0,7.2488,7.2488,7.2488,7.2488,7.2488,7.2488,7.2488,7.2488,7.2488,7.2488,7.2488,7.2488,7.2488,7.2488,7.2488,7.2488,7.2488,7.2488,7.2782,7.3225,7.3225,7.3554,7.3986,7.3986,7.4049,7.4145,7.4145,7.4211,7.4293,7.4293,7.4293,7.4374,7.4833,7.4967,7.5051,7.5561,7.57,7.5738,7.5819,7.5857,7.5857,7.5976,7.6015,7.6015,7.6015,7.6015,7.6015,7.6015,7.6015,7.6015,7.6015,7.6015,7.6015,7.6015,7.6015,7.6015,7.6015,7.5381,7.4586,7.3635,7.2857,7.2048,7.1017,7.0898,7.0898,7.0898,7.0898,7.0898,7.0898,7.0898,7.0898,7.0898,7.0898,7.0898,7.0898,7.0898,7.0898,7.0898,7.0898,7.0898,7.0898,7.0224,6.9351,6.77,6.77,6.77,6.77,6.77,6.77,6.77,6.77,6.7921,6.8605,6.8818,6.9148,6.9963,7.0763,7.1564,7.2378,7.2488,7.2488,7.2488,7.2488,0.0,0.0,0.0,0.0,0.0,0.0,0.0,0.0,7.2488,7.2488,7.2488,7.2488,7.2488,7.2488,7.2488,7.2488,7.2488,7.2488,7.2488,7.2488,7.2488,7.2488,7.2488,7.2488,7.2488,7.2488,7.2488,7.2553,7.2609,7.2609,7.2665,7.2756,7.2756,7.3077,7.3535,7.3535,7.3847,7.4293,7.4293,7.4293,7.4309,7.4385,7.4394,7.4401,7.4491,7.4548,7.4625,7.5101,7.5223,7.5343,7.5857,7.6015,7.6015,7.6015,7.6015,7.6015,7.6015,7.6015,7.6015,7.6015,7.6015,7.6015,7.6015,7.6015,7.6015,7.6015,7.5896,7.5262,7.3711,7.3413,7.2685,7.1059,7.0898,7.0898,7.0898,7.0898,7.0898,7.0898,7.0898,7.0898,7.0898,7.0898,7.0898,7.0898,7.0898,7.0898,7.0898,7.0898,7.0898,7.0898,7.0779,6.9906,6.77,6.77,6.77,6.77,6.77,6.77,6.77,6.77,6.7914,6.8745,6.9259,6.9816,7.0617,7.1424,7.2085,7.2452,7.2488,7.2488,7.2488,7.2488,7.2488,0.0,0.0,0.0,0.0,0.0,0.0,0.0,7.2488,7.2488,7.2488,7.2488,7.2488,7.2488,7.2488,7.2488,7.2488,7.2488,7.2488,7.2488,7.2488,7.2488,7.2488,7.2488,7.2488,7.2488,7.2488,7.2488,7.2488,7.2488,7.2488,7.2488,7.2488,7.2658,7.2919,7.2919,7.304,7.3301,7.3301,7.3301,7.3365,7.3675,7.3785,7.3865,7.4187,7.4291,7.4358,7.4572,7.4652,7.4705,7.4985,7.5262,7.55,7.55,7.5738,7.6015,7.6015,7.6015,7.6015,7.6015,7.6015,7.6015,7.6015,7.6015,7.6015,7.6015,7.6015,7.5381,7.3715,7.349,7.2842,7.1097,7.0898,7.0898,7.0898,7.0898,7.0898,7.0898,7.0898,7.0898,7.0898,7.0898,7.0898,7.0898,7.0898,7.0898,7.0898,7.0898,7.0898,7.0898,7.0898,6.9986,6.77,6.77,6.77,6.77,6.77,6.77,6.77,6.7841,6.8244,6.9038,6.9853,7.066,7.1461,7.2085,7.2488,7.2488,7.2488,7.2488,7.2488,7.2488,7.2488,0.0,0.0,0.0,0.0,0.0,0.0,0.0,7.2488,7.2488,7.2488,7.2488,7.2488,7.2488,7.2488,7.2488,7.2488,7.2488,7.2488,7.2488,7.2488,7.2488,7.2488,7.2488,7.2488,7.2488,7.2488,7.2488,7.2488,7.2488,7.2488,7.2488,7.2488,7.2488,7.2488,7.2488,7.2488,7.2488,7.2488,7.2488,7.2589,7.3037,7.3164,7.3274,7.3691,7.385,7.388,7.4037,7.4068,7.4117,7.4278,7.4597,7.4918,7.4889,7.5223,7.5658,7.5938,7.6015,7.6015,7.6015,7.6015,7.6015,7.6015,7.6015,7.6015,7.6015,7.6015,7.5381,7.3715,7.349,7.2842,7.1097,7.0898,7.0898,7.0898,7.0898,7.0898,7.0898,7.0898,7.0898,7.0898,7.0898,7.0898,7.0898,7.0898,7.0898,7.0898,7.0898,7.0898,7.0898,7.0898,6.9986,6.77,6.77,6.77,6.77,6.77,6.77,6.77,6.8274,6.9082,6.9853,7.069,7.149,7.2305,7.2452,7.2488,7.2488,7.2488,7.2488,7.2488,7.2488,7.2488,7.2488,0.0,0.0,0.0,0.0,0.0,0.0,7.2488,7.2488,7.2488,7.2488,7.2488,7.2488,7.2488,7.2488,7.2488,7.2488,7.2488,7.2488,7.2488,7.2488,7.2488,7.2488,7.2488,7.2488,7.2488,7.2488,7.2488,7.2488,7.2488,7.2488,7.2488,7.2488,7.2488,7.2488,7.2488,7.2488,7.2488,7.2488,7.2503,7.2539,7.256,7.2538,7.2566,7.2586,7.2702,7.3286,7.3438,7.3565,7.4145,7.4307,7.4339,7.4329,7.4387,7.4667,7.5777,7.6015,7.6015,7.6015,7.6015,7.6015,7.6015,7.6015,7.6015,7.6015,7.6015,7.5381,7.3715,7.349,7.2842,7.1097,7.0898,7.0898,7.0898,7.0898,7.0898,7.0898,7.0898,7.0898,7.0898,7.0898,7.0898,7.0898,7.0898,7.0898,7.0898,7.0898,7.0898,7.0898,7.0898,6.9986,6.77,6.77,6.77,6.77,6.77,6.77,6.77,6.8311,6.9112,6.9933,7.0727,7.1564,7.2342,7.2488,7.2488,7.2488,7.2488,7.2488,7.2488,7.2488,7.2488,7.2488,7.2488,0.0,0.0,0.0,0.0,0.0,0.0,7.2488,7.2488,7.2488,7.2488,7.2488,7.2488,7.2488,7.2488,7.2488,7.2488,7.2488,7.2488,7.2488,7.2488,7.2488,7.2488,7.2488,7.2488,7.2488,7.2488,7.2488,7.2488,7.2488,7.2488,7.2488,7.2488,7.2488,7.2488,7.2488,7.2488,7.2488,7.2488,7.2488,7.2488,7.2488,7.2488,7.2488,7.2532,7.2745,7.2825,7.2862,7.3075,7.3441,7.3806,7.4206,7.4305,7.4416,7.4837,7.55,7.6015,7.6015,7.6015,7.6015,7.6015,7.6015,7.6015,7.6015,7.6015,7.5381,7.3715,7.349,7.2842,7.1097,7.0898,7.0898,7.0898,7.0898,7.0898,7.0898,7.0898,7.0898,7.0898,7.0898,7.0898,7.0898,7.0898,7.0898,7.0898,7.0898,7.0898,7.0898,7.0898,6.9986,6.77,6.77,6.77,6.77,6.77,6.77,6.77,6.8538,6.9449,7.0007,7.0947,7.1865,7.2415,7.2488,7.2488,7.2488,7.2488,7.2488,7.2488,7.2488,7.2488,7.2488,7.2488,0.0,0.0,0.0,0.0,0.0,0.0,0.0,7.2488,7.2488,7.2488,7.2488,7.2488,7.2488,7.2488,7.2488,7.2488,7.2488,7.2488,7.2488,7.2488,7.2488,7.2488,7.2488,7.2488,7.2488,7.2488,7.2488,7.2488,7.2488,7.2488,7.2488,7.2488,7.2488,7.2488,7.2488,7.2488,7.2488,7.2488,7.2488,7.2488,7.2488,7.2488,7.2488,7.2488,7.2488,7.2488,7.2488,7.2488,7.2781,7.3199,7.361,7.3859,7.4,7.4004,7.4903,7.57,7.57,7.5857,7.6015,7.6015,7.6015,7.6015,7.6015,7.5738,7.5062,7.3673,7.3252,7.2524,7.1056,7.0898,7.0898,7.0898,7.0898,7.0898,7.0898,7.0898,7.0898,7.0898,7.0898,7.0898,7.0898,7.0898,7.0898,7.0898,7.0898,7.0898,7.0898,7.0898,7.0007,0.0,0.0,0.0,6.77,6.77,6.77,6.77,6.8942,7.0117,7.0117,7.1394,7.2488,7.2488,7.2488,7.2488,7.2488,7.2488,7.2488,7.2488,7.2488,7.2488,7.2488,7.2488,7.2488,0.0,0.0,0.0,0.0,7.2488,7.2488,7.2488,7.2488,7.2488,7.2488,7.2488,7.2488,7.2488,7.2488,7.2488,7.2488,7.2488,7.2488,7.2488,7.2488,7.2488,7.2488,7.2488,7.2488,7.2488,7.2488,7.2488,7.2488,7.2488,7.2488,7.2488,7.2488,7.2488,7.2488,7.2488,7.2488,7.2488,7.2488,7.2488,7.2488,7.2488,7.2488,7.2488,7.2488,7.2488,7.2488,7.2488,7.2488,7.2488,7.2488,7.295,7.3361,7.3361,7.4255,7.5049,7.5055,7.5538,7.5938,7.5976,7.5976,7.5976,7.6015,7.5262,7.439,7.36,7.2738,7.1852,7.0979,7.0898,7.0898,7.0898,7.0898,7.0898,7.0898,7.0898,7.0898,7.0898,7.0898,7.0898,7.0898,7.0898,7.0898,7.0898,7.0898,7.0898,7.0898,7.086,6.9925,6.77,0.0,0.0,0.0,0.0,0.0,6.77,6.8942,7.0117,7.0117,7.1394,7.2488,7.2488,7.2488,7.2488,7.2488,7.2488,7.2488,7.2488,7.2488,7.2488,7.2488,7.2488,7.2488,0.0,0.0,0.0,0.0,7.2488,7.2488,7.2488,7.2488,7.2488,7.2488,7.2488,7.2488,7.2488,7.2488,7.2488,7.2488,7.2488,7.2488,7.2488,7.2488,7.2488,7.2488,7.2488,7.2488,7.2488,7.2488,7.2488,7.2488,7.2488,7.2488,7.2488,7.2488,7.2488,7.2488,7.2488,7.2488,7.2488,7.2488,7.2488,7.2488,7.2488,7.2488,7.2488,7.2488,7.2488,7.2488,7.2488,7.2488,7.2488,7.2488,7.262,7.2745,7.2745,7.3353,7.4009,7.4438,7.4667,7.4905,7.5262,7.5343,7.55,7.5934,7.5262,7.4416,7.3581,7.2744,7.1852,7.0979,7.0898,7.0898,7.0898,7.0898,7.0898,7.0898,7.0898,7.0898,7.0898,7.0898,7.0898,7.0898,7.0898,7.0898,7.0898,7.0898,7.0898,7.086,6.9669,6.8497,0.0,0.0,0.0,0.0,0.0,0.0,6.8134,6.9199,7.0183,7.055,7.1608,7.2488,7.2488,7.2488,7.2488,7.2488,7.2488,7.2488,7.2488,7.2488,7.2488,7.2488,7.2488,7.2488,0.0,7.2488,7.2488,7.2488,7.2488,7.2488,7.2488,7.2488,7.2488,7.2488,7.2488,7.2488,7.2488,7.2488,7.2488,7.2488,7.2488,7.2488,7.2488,7.2488,7.2488,7.2488,7.2488,7.2488,7.2488,7.2488,7.2488,7.2488,7.2488,7.2488,7.2488,7.2488,7.2488,7.2488,7.2488,7.2488,7.2488,7.2488,7.2488,7.2488,7.2488,7.2488,7.2488,7.2488,7.2488,7.2488,7.2488,7.2488,7.2488,7.2488,7.2488,7.2488,7.2488,7.2781,7.3188,7.3792,7.4131,7.4454,7.5021,7.5111,7.53,7.5896,7.4982,7.4031,7.3542,7.2405,7.1454,7.094,7.0898,7.0898,7.0898,7.0898,7.0898,7.0898,7.0898,7.0898,7.0898,7.0898,7.0898,7.0898,7.0898,7.0898,7.0898,7.0898,7.0741,7.0385,6.9,6.7943,0.0,0.0,0.0,0.0,0.0,0.0,6.8598,6.9449,7.0293,7.102,7.1865,7.2488,7.2488,7.2488,7.2488,7.2488,7.2488,7.2488,7.2488,7.2488,7.2488,7.2488,7.2488,7.2488,7.2488,7.2488,7.2488,7.2488,7.2488,7.2488,7.2488,7.2488,7.2488,7.2488,7.2488,7.2488,7.2488,7.2488,7.2488,7.2488,7.2488,7.2488,7.2488,7.2488,7.2488,7.2488,7.2488,7.2488,7.2488,7.2488,7.2488,7.2488,7.2488,7.2488,7.2488,7.2488,7.2488,7.2488,7.2488,7.2488,7.2488,7.2488,7.2488,7.2488,7.2488,7.2488,7.2488,7.2488,7.2488,7.2488,7.2488,7.2488,7.2488,7.2488,7.2488,7.2488,7.2488,7.2488,7.2657,7.3199,7.3735,7.4278,7.4814,7.497,7.522,7.5815,7.4548,7.3513,7.35,7.1968,7.0898,7.0898,7.0898,7.0898,7.0898,7.0898,7.0898,7.0898,7.0898,7.0898,7.0898,7.0898,7.0898,7.0898,7.0898,7.0898,7.0898,7.0898,7.0423,6.955,6.8748,6.7882,0.0,0.0,0.0,0.0,0.0,0.0,6.7921,6.9052,7.0146,7.0293,7.1505,7.2488,7.2488,7.2488,7.2488,7.2488,7.2488,7.2488,7.2488,7.2488,7.2488,7.2488,7.2488,7.2488,7.2488,7.2488,7.2488,7.2488,7.2488,7.2488,7.2488,7.2488,7.2488,7.2488,7.2488,7.2488,7.2488,7.2488,7.2488,7.2488,7.2488,7.2488,7.2488,7.2488,7.2488,7.2488,7.2488,7.2488,7.2488,7.2488,7.2488,7.2488,7.2488,7.2488,7.2488,7.2488,7.2488,7.2488,7.2488,7.2488,7.2488,7.2488,7.2488,7.2488,7.2488,7.2488,7.2488,7.2488,7.2488,7.2488,7.2488,7.2488,7.2488,7.2488,7.2488,7.2488,7.2488,7.2488,7.2532,7.2657,7.2781,7.3031,7.3617,7.4124,7.4628,7.5181,7.4268,7.3513,7.35,7.1968,7.0898,7.0898,7.0898,7.0898,7.0898,7.0898,7.0898,7.0898,7.0898,7.0898,7.0898,7.0898,7.0898,7.0898,7.0898,7.0898,7.0898,7.0898,7.0144,6.8638,6.8469,6.7606,0.0,0.0,0.0,6.77,0.0,0.0,0.0,6.9229,7.022,7.0624,7.1644,7.2488,7.2488,7.2488,7.2488,7.2488,7.2488,7.2488,7.2488,7.2488,7.2488,7.2488,7.2488,7.2488,7.2488,7.2488,7.2488,7.2488,7.2488,7.2488,7.2488,7.2488,7.2488,7.2488,7.2488,7.2488,7.2488,7.2488,7.2488,7.2488,7.2488,7.2488,7.2488,7.2488,7.2488,7.2488,7.2488,7.2488,7.2488,7.2488,7.2488,7.2488,7.2488,7.2488,7.2488,7.2488,7.2488,7.2488,7.2488,7.2488,7.2488,7.2488,7.2488,7.2488,7.2488,7.2488,7.2488,7.2488,7.2488,7.2488,7.2488,7.2488,7.2488,7.2488,7.2488,7.2488,7.2488,7.2488,7.2488,7.2488,7.2488,7.2701,7.328,7.3666,7.4033,7.4628,7.3754,7.3038,7.3066,7.1772,7.0898,7.0898,7.0898,7.0898,7.0898,7.0898,7.0898,7.0898,7.0898,7.0898,7.0898,7.0898,7.0898,7.0898,7.0898,7.0898,7.0898,7.0503,6.9669,6.8401,6.7952,6.709,0.0,0.0,0.0,0.0,0.0,6.8098,0.0,0.0,0.0,7.116,7.1938,7.2488,7.2488,7.2488,7.2459,7.2305,0.0,0.0,0.0,7.2415,0.0,7.2488,7.2488,7.2488,7.2488,7.2488,7.2488,7.2488,7.2488,7.2488,7.2488,7.2488,7.2488,7.2488,7.2488,7.2488,7.2488,7.2488,7.2488,7.2488,7.2488,7.2488,7.2488,7.2488,7.2488,7.2488,7.2488,7.2488,7.2488,7.2488,7.2488,7.2488,7.2488,7.2488,7.2488,7.2488,7.2488,7.2488,7.2488,7.2488,7.2488,7.2488,7.2488,7.2488,7.2488,7.2488,7.2488,7.2488,7.2488,7.2488,7.2488,7.2488,7.2488,7.2488,7.2488,7.2488,7.2488,7.2488,7.2488,7.2488,7.2488,7.2657,7.3155,7.3324,7.3563,7.4057,7.3173,7.2472,7.2591,7.1492,7.0779,7.0898,7.0898,7.0898,7.0898,7.0898,7.0898,7.0898,7.0898,7.0898,7.0898,7.0898,7.0898,7.0898,7.0898,7.0818,7.0661,6.9868,6.9085,6.8393,6.7526,6.6654,0.0,0.0,0.0,0.0,6.8244,0.0,0.0,0.0,7.1197,7.127,0.0,7.2488,7.2488,0.0,0.0,0.0,0.0,0.0,7.1527,7.2048,7.2488,7.2488,7.2488,7.2488,7.2488,7.2488,7.2488,7.2488,7.2488,7.2488,7.2488,7.2488,7.2488,7.2488,7.2488,7.2488,7.2488,7.2488,7.2488,7.2488,7.2488,7.2488,7.2488,7.2488,7.2488,7.2488,7.2488,7.2488,7.2488,7.2488,7.2488,7.2488,7.2488,7.2488,7.2488,7.2488,7.2488,7.2488,7.2488,7.2488,7.2488,7.2488,7.2488,7.2488,7.2488,7.2488,7.2488,7.2488,7.2488,7.2488,7.2488,7.2488,7.2488,7.2488,7.2488,7.2488,7.2488,7.2488,7.2488,7.2488,7.2488,7.2532,7.2576,7.3031,7.3401,7.3494,7.2596,7.2057,7.2531,7.1178,7.0381,7.086,7.0898,7.0898,7.0898,7.0898,7.0898,7.0898,7.0898,7.0898,7.0898,7.0898,7.0898,7.0898,7.0898,7.0542,6.9826,6.8956,6.8487,6.8382,6.7519,6.6654,0.0,0.0,0.0,0.0,0.0,0.0,0.0,0.0,7.1307,0.0,0.0,0.0,0.0,0.0,0.0,0.0,7.2268,0.0,0.0,0.0,7.2488,7.2488,0.0,0.0,7.2488,0.0,0.0,0.0,7.2488,7.2488,7.2488,7.2488,7.2488,7.2488,7.2488,7.2488,7.2488,7.2488,7.2488,7.2488,7.2488,7.2488,7.2488,7.2488,7.2488,7.2488,7.2488,7.2488,7.2488,7.2488,7.2488,7.2488,7.2488,7.2488,7.2488,7.2488,7.2488,7.2488,7.2488,7.2488,7.2488,7.2488,7.2488,7.2488,7.2488,7.2488,7.2488,7.2488,7.2488,7.2488,7.2488,7.2488,7.2488,7.2488,7.2488,7.2488,7.2488,7.2488,7.2488,7.2488,7.2488,7.2488,7.2488,7.2701,7.2869,7.2869,7.1954,7.1347,7.1567,7.0722,7.0186,7.0423,7.0699,7.0898,7.0898,7.0898,7.0898,7.0898,7.0898,7.0898,7.0898,7.0898,7.0898,7.0898,7.0423,7.0025,6.9707,6.8304,6.7641,6.7644,6.6772,6.6218,6.9441,0.0,0.0,0.0,0.0,0.0,0.0,0.0,0.0,0.0,0.0,0.0,0.0,0.0,0.0,0.0,0.0,7.2415,0.0,7.2342,7.2488,0.0,0.0,0.0,0.0,7.2488,7.2488,7.2488,7.2488,7.2488,7.2488,7.2488,7.2488,7.2488,7.2488,7.2488,7.2488,7.2488,7.2488,7.2488,7.2488,7.2488,7.2488,7.2488,7.2488,7.2488,7.2488,7.2488,7.2488,7.2488,7.2488,7.2488,7.2488,7.2488,7.2488,7.2488,7.2488,7.2488,7.2488,7.2488,7.2488,7.2488,7.2488,7.2488,7.2488,7.2488,7.2488,7.2488,7.2488,7.2488,7.2488,7.2488,7.2488,7.2488,7.2488,7.2488,7.2488,7.2488,7.2488,7.2488,7.2488,7.2488,7.2488,7.2488,7.2488,7.2488,7.1449,7.0737,7.088,7.0164,6.9703,6.9865,7.0343,7.0661,7.0661,7.0818,7.0898,7.0898,7.0898,7.0898,7.0898,7.0898,7.0898,7.0898,7.0343,6.9801,6.9356,6.8084,6.7208,6.6772,6.6179,6.59,0.0,0.0,0.0,6.9883,0.0,0.0,0.0,0.0,7.2452,0.0,0.0,0.0,0.0,0.0,0.0,0.0,0.0,0.0,0.0,7.2011,7.2488,0.0,0.0,0.0,0.0,7.2488,7.2488,7.2488,7.2488,7.2488,7.2488,7.2488,7.2488,7.2488,7.2488,7.2488,7.2488,7.2488,7.2488,7.2488,7.2488,7.2488,7.2488,7.2488,7.2488,7.2488,7.2488,7.2488,7.2488,7.2488,7.2488,7.2488,7.2488,7.2488,7.2488,7.2488,7.2488,7.2488,7.2488,7.2488,7.2488,7.2488,7.2488,7.2488,7.2488,7.2488,7.2488,7.2488,7.2488,7.2488,7.2488,7.2488,7.2488,7.2488,7.2488,7.2488,7.2488,7.2488,7.2488,7.2488,7.2488,7.2488,7.2488,7.2488,7.2488,7.2488,7.1157,7.032,7.0837,6.9526,6.8757,6.9273,6.9826,7.0144,7.0144,7.058,7.0898,7.0898,7.0898,7.0898,7.0898,7.0898,7.0898,7.0898,7.086,7.0075,6.8434,6.8395,6.7526,6.5939,6.59,6.59,0.0,0.0,6.8744,7.038,0.0,0.0,0.0,0.0,0.0,0.0,0.0,0.0,0.0,0.0,0.0,0.0,0.0,0.0,0.0,7.2342,7.2488,7.2488,0.0,0.0,0.0,0.0,0.0,7.2488,7.2488,7.2488,7.2488,7.2488,7.2488,7.2488,7.2488,7.2488,7.2488,7.2488,7.2488,7.2488,7.2488,7.2488,7.2488,7.2488,7.2488,7.2488,7.2488,7.2488,7.2488,7.2488,7.2488,7.2488,7.2488,7.2488,7.2488,7.2488,7.2488,7.2488,7.2488,7.2488,7.2488,7.2488,7.2488,7.2488,7.2488,7.2488,7.2488,7.2488,7.2488,7.2488,7.2488,7.2488,7.2488,7.2488,7.2488,7.2488,7.2488,7.2488,7.2488,7.2488,7.2488,7.2488,7.2488,7.2488,7.2488,7.2488,7.112,7.016,7.034,6.9279,6.8569,6.876,6.9252,6.97,7.006,7.0262,7.0503,7.0898,7.058,7.0542,7.0898,7.0898,7.0898,7.0898,7.0381,6.9528,6.8413,6.7811,6.6971,6.59,6.59,6.59,6.8891,6.8695,0.0,7.0194,7.0162,0.0,7.1215,0.0,0.0,0.0,0.0,0.0,0.0,0.0,0.0,7.2488,7.2488,7.2488,0.0,7.2488,0.0,7.2488,7.2488,7.2488,7.2488,7.2488,7.2488,7.2488,7.2488,7.2488,0.0,0.0,7.2488,7.2488,7.2488,7.2488,7.2488,7.2488,7.2488,7.2488,7.2488,7.2488,7.2488,7.2488,7.2488,7.2488,7.2488,7.2488,7.2488,7.2488,7.2488,7.2488,7.2488,7.2488,7.2488,7.2488,7.2488,7.2488,7.2488,7.2488,7.2488,7.2488,7.2488,7.2488,7.2488,7.2488,7.2569,7.2863,7.2716,7.2569,7.2863,7.2716,7.2488,7.2488,7.2488,7.2488,7.2488,7.2488,7.2488,7.2488,7.2488,7.2488,7.2488,7.2488,7.2488,7.2488,7.112,7.0109,7.0092,6.8987,6.8238,6.8238,6.8696,6.9297,7.0056,6.9945,7.0033,7.057,7.0118,7.0067,7.058,7.0622,7.086,7.1335,7.0262,6.9431,6.8876,6.7673,6.6692,6.59,6.59,6.59]},{"header":{"parameterUnit":"m.s-1","parameterCategory":1,"la1":30.6,"la2":29.2853,"lo1":-89.7004,"lo2":-87.6739,"dy":0.0162,"dx":0.0183,"nx":112,"ny":82,"refTime":"2023-10-02T12:00:00:Z","depth":0,"parameterNumber":3,"parameterNumberName":"V-component_of_WINDS"},"data":[0.0,0.0,0.0,0.0,0.0,0.0,0.0,0.0,0.0,0.0,0.0,0.0,0.0,0.0,0.0,0.0,0.0,0.0,0.0,0.0,0.0,0.0,0.0,0.0,0.0,0.0,0.0,0.0,0.0,0.0,0.0,0.0,0.0,0.0,0.0,0.0,0.0,0.0,0.0,0.0,0.0,0.0,0.0,0.0,0.0,0.0,0.0,0.0,0.0,0.0,0.0,0.0,0.0,0.0,0.0,0.0,0.0,0.0,0.0,0.0,0.0,0.0,0.0,0.0,0.0,0.0,0.0,0.0,0.0,0.0,0.0,0.0,0.0,0.0,0.0,0.0,0.0,0.0,0.0,0.0,0.0,0.0,0.0,0.0,0.0,0.0,0.0,0.0,0.0,0.0,0.0,0.0,0.0,0.0,0.0,0.0,0.0,0.0,0.0,0.0,0.0,0.0,0.0,0.0,0.0,0.0,0.0,0.0,0.0,0.0,0.0,0.0,0.0,0.0,0.0,0.0,0.0,0.0,0.0,0.0,0.0,0.0,0.0,0.0,0.0,0.0,0.0,0.0,0.0,0.0,0.0,0.0,0.0,0.0,0.0,0.0,0.0,0.0,0.0,0.0,0.0,0.0,0.0,0.0,0.0,0.0,0.0,0.0,0.0,0.0,0.0,0.0,0.0,0.0,0.0,0.0,0.0,0.0,0.0,0.0,0.0,0.0,0.0,0.0,0.0,0.0,0.0,0.0,0.0,0.0,0.0,0.0,0.0,0.0,0.0,0.0,0.0,0.0,0.0,0.0,0.0,0.0,0.0,0.0,0.0,0.0,0.0,0.0,0.0,0.0,0.0,0.0,0.0,0.0,0.0,0.0,0.0,0.0,0.0,0.0,0.0,0.0,0.0,0.0,0.0,0.0,0.0,0.0,0.0,0.0,0.0,0.0,0.0,0.0,0.0,0.0,0.0,0.0,0.0,0.0,0.0,0.0,0.0,0.0,0.0,0.0,0.0,0.0,0.0,0.0,0.0,0.0,0.0,0.0,0.0,0.0,0.0,0.0,0.0,0.0,0.0,0.0,0.0,0.0,0.0,0.0,0.0,0.0,0.0,0.0,0.0,0.0,0.0,0.0,0.0,0.0,0.0,0.0,0.0,0.0,0.0,0.0,0.0,0.0,0.0,0.0,0.0,0.0,0.0,0.0,0.0,0.0,0.0,0.0,0.0,0.0,0.0,0.0,0.0,0.0,0.0,0.0,0.0,0.0,0.0,0.0,0.0,0.0,0.0,0.0,0.0,0.0,0.0,0.0,0.0,0.0,0.0,0.0,0.0,0.0,0.0,0.0,0.0,0.0,0.0,0.0,0.0,0.0,0.0,0.0,0.0,0.0,0.0,0.0,0.0,0.0,0.0,0.0,0.0,0.0,0.0,0.0,0.0,0.0,0.0,0.0,0.0,0.0,0.0,0.0,0.0,0.0,0.0,0.0,0.0,0.0,0.0,0.0,0.0,0.0,0.0,0.0,0.0,0.0,0.0,0.0,0.0,0.0,0.0,0.0,0.0,0.0,0.0,0.0,0.0,0.0,0.0,0.0,0.0,0.0,0.0,0.0,0.0,0.0,0.0,0.0,0.0,0.0,0.0,0.0,0.0,0.0,0.0,0.0,0.0,0.0,0.0,0.0,0.0,0.0,0.0,0.0,0.0,0.0,0.0,0.0,0.0,0.0,0.0,0.0,0.0,0.0,0.0,0.0,0.0,0.0,0.0,0.0,0.0,0.0,0.0,0.0,0.0,0.0,0.0,0.0,0.0,0.0,0.0,0.0,0.0,0.0,0.0,0.0,0.0,0.0,0.0,0.0,0.0,0.0,0.0,0.0,0.0,0.0,0.0,0.0,0.0,0.0,0.0,0.0,0.0,0.0,0.0,0.0,0.0,0.0,0.0,0.0,0.0,0.0,0.0,0.0,0.0,0.0,0.0,0.0,0.0,0.0,0.0,0.0,0.0,0.0,0.0,0.0,0.0,0.0,0.0,0.0,0.0,0.0,0.0,0.0,0.0,0.0,0.0,0.0,0.0,0.0,0.0,0.0,0.0,0.0,0.0,0.0,0.0,0.0,0.0,0.0,0.0,0.0,0.0,0.0,0.0,0.0,0.0,0.0,0.0,0.0,0.0,0.0,0.0,0.0,0.0,0.0,0.0,0.0,0.0,0.0,0.0,0.0,0.0,0.0,0.0,0.0,0.0,0.0,0.0,0.0,0.0,0.0,0.0,0.0,0.0,0.0,0.0,0.0,0.0,0.0,0.0,0.0,0.0,0.0,0.0,0.0,0.0,0.0,0.0,0.0,0.0,0.0,0.0,0.0,0.0,0.0,0.0,0.0,0.0,0.0,0.0,0.0,0.0,0.0,0.0,0.0,0.0,0.0,0.0,0.0,0.0,0.0,0.0,0.0,0.0,0.0,0.0,0.0,0.0,0.0,0.0,0.0,0.0,0.0,0.0,0.0,0.0,0.0,0.0,0.0,0.0,0.0,0.0,0.0,0.0,0.0,0.0,0.0,0.0,0.0,0.0,0.0,0.0,0.0,0.0,0.0,0.0,0.0,0.0,0.0,0.0,0.0,0.0,0.0,0.0,0.0,0.0,0.0,0.0,0.0,0.0,0.0,0.0,0.0,0.0,0.0,0.0,0.0,0.0,0.0,0.0,0.0,0.0,0.0,0.0,0.0,0.0,0.0,0.0,0.0,0.0,0.0,0.0,0.0,0.0,0.0,0.0,0.0,0.0,0.0,0.0,0.0,0.0,0.0,0.0,0.0,0.0,0.0,0.0,0.0,0.0,0.0,0.0,0.0,0.0,0.0,0.0,0.0,0.0,0.0,0.0,0.0,0.0,0.0,0.0,0.0,0.0,0.0,0.0,0.0,0.0,0.0,0.0,0.0,0.0,0.0,0.0,0.0,0.0,0.0,0.0,0.0,0.0,0.0,0.0,0.0,0.0,0.0,0.0,0.0,0.0,0.0,0.0,0.0,0.0,0.0,0.0,0.0,0.0,0.0,0.0,0.0,0.0,0.0,0.0,0.0,0.0,0.0,0.0,0.0,0.0,0.0,0.0,0.0,0.0,0.0,0.0,0.0,0.0,0.0,0.0,0.0,0.0,0.0,0.0,0.0,0.0,0.0,0.0,0.0,0.0,0.0,0.0,0.0,0.0,0.0,0.0,0.0,0.0,0.0,0.0,0.0,0.0,0.0,0.0,0.0,0.0,0.0,0.0,0.0,0.0,0.0,0.0,0.0,0.0,0.0,0.0,0.0,0.0,0.0,0.0,0.0,0.0,0.0,0.0,0.0,0.0,0.0,0.0,0.0,0.0,0.0,0.0,0.0,0.0,0.0,0.0,0.0,0.0,0.0,0.0,0.0,0.0,0.0,0.0,0.0,0.0,0.0,0.0,0.0,0.0,0.0,0.0,0.0,0.0,0.0,0.0,0.0,0.0,0.0,0.0,0.0,0.0,0.0,0.0,0.0,0.0,0.0,0.0,0.0,0.0,0.0,0.0,0.0,0.0,0.0,0.0,0.0,0.0,0.0,0.0,0.0,0.0,0.0,0.0,0.0,0.0,0.0,0.0,0.0,0.0,0.0,0.0,0.0,0.0,0.0,0.0,0.0,0.0,0.0,0.0,0.0,0.0,0.0,0.0,0.0,0.0,0.0,0.0,0.0,0.0,0.0,0.0,0.0,0.0,0.0,0.0,0.0,0.0,0.0,0.0,0.0,0.0,0.0,0.0,0.0,0.0,0.0,0.0,0.0,0.0,0.0,0.0,0.0,0.0,0.0,0.0,0.0,0.0,0.0,0.0,0.0,0.0,0.0,0.0,0.0,0.0,0.0,0.0,0.0,0.0,0.0,0.0,0.0,0.0,0.0,0.0,0.0,0.0,0.0,0.0,0.0,0.0,0.0,0.0,0.0,0.0,0.0,0.0,0.0,0.0,0.0,0.0,0.0,0.0,0.0,0.0,0.0,0.0,0.0,0.0,0.0,0.0,0.0,0.0,0.0,0.0,0.0,0.0,0.0,0.0,0.0,0.0,0.0,0.0,0.0,0.0,0.0,0.0,0.0,0.0,0.0,0.0,0.0,0.0,0.0,0.0,0.0,0.0,0.0,0.0,0.0,0.0,0.0,0.0,0.0,0.0,0.0,0.0,0.0,0.0,0.0,0.0,0.0,0.0,0.0,0.0,0.0,0.0,0.0,0.0,0.0,0.0,0.0,0.0,0.0,0.0,0.0,0.0,0.0,0.0,0.0,0.0,0.0,0.0,0.0,0.0,0.0,0.0,0.0,0.0,0.0,0.0,0.0,0.0,0.0,0.0,0.0,0.0,0.0,0.0,0.0,0.0,0.0,0.0,0.0,0.0,0.0,0.0,0.0,0.0,0.0,0.0,0.0,0.0,0.0,0.0,0.0,0.0,0.0,0.0,0.0,0.0,0.0,0.0,0.0,0.0,0.0,0.0,0.0,0.0,0.0,0.0,0.0,0.0,0.0,0.0,0.0,0.0,0.0,0.0,0.0,0.0,0.0,0.0,0.0,0.0,0.0,0.0,0.0,0.0,0.0,0.0,0.0,0.0,0.0,0.0,0.0,0.0,0.0,0.0,0.0,0.0,0.0,0.0,0.0,0.0,0.0,0.0,0.0,0.0,0.0,0.0,0.0,0.0,0.0,0.0,0.0,0.0,0.0,0.0,0.0,0.0,0.0,0.0,0.0,0.0,0.0,0.0,0.0,0.0,0.0,0.0,0.0,0.0,0.0,0.0,0.0,0.0,0.0,0.0,0.0,0.0,0.0,0.0,0.0,0.0,0.0,0.0,0.0,0.0,0.0,0.0,0.0,0.0,0.0,0.0,0.0,0.0,0.0,0.0,0.0,0.0,0.0,0.0,0.0,0.0,0.0,0.0,0.0,0.0,0.0,0.0,0.0,0.0,0.0,0.0,0.0,0.0,0.0,0.0,0.0,0.0,0.0,0.0,0.0,0.0,0.0,0.0,0.0,0.0,0.0,0.0,0.0,0.0,0.0,0.0,0.0,0.0,0.0,0.0,0.0,0.0,0.0,0.0,0.0,0.0,0.0,0.0,0.0,0.0,0.0,0.0,0.0,0.0,0.0,0.0,0.0,0.0,0.0,0.0,0.0,0.0,0.0,0.0,0.0,0.0,0.0,0.0,0.0,0.0,0.0,0.0,0.0,0.0,0.0,0.0,0.0,0.0,0.0,0.0,0.0,0.0,0.0,0.0,0.0,0.0,0.0,0.0,0.0,0.0,0.0,0.0,0.0,0.0,0.0,0.0,0.0,0.0,0.0,0.0,0.0,0.0,0.0,0.0,0.0,0.0,0.0,0.0,0.0,0.0,0.0,0.0,0.0,0.0,0.0,0.0,0.0,0.0,0.0,0.0,0.0,0.0,0.0,0.0,0.0,0.0,0.0,0.0,0.0,0.0,0.0,0.0,0.0,0.0,0.0,0.0,0.0,0.0,0.0,0.0,0.0,0.0,0.0,0.0,0.0,0.0,0.0,0.0,0.0,0.0,0.0,0.0,0.0,0.0,0.0,0.0,0.0,0.0,0.0,0.0,0.0,0.0,0.0,0.0,0.0,0.0,0.0,0.0,0.0,0.0,0.0,0.0,0.0,0.0,0.0,0.0,0.0,0.0,0.0,0.0,0.0,0.0,0.0,0.0,0.0,0.0,0.0,0.0,0.0,0.0,0.0,0.0,0.0,0.0,0.0,0.0,0.0,0.0,0.0,0.0,0.0,0.0,0.0,0.0,0.0,0.0,0.0,0.0,0.0,0.0,0.0,0.0,0.0,0.0,0.0,0.0,0.0,0.0,0.0,0.0,0.0,0.0,0.0,0.0,0.0,0.0,0.0,0.0,0.0,0.0,0.0,0.0,0.0,0.0,0.0,0.0,0.0,0.0,0.0,0.0,0.0,0.0,0.0,0.0,0.0,0.0,0.0,0.0,0.0,0.0,0.0,0.0,0.0,0.0,0.0,0.0,0.0,0.0,0.0,0.0,0.0,0.0,0.0,0.0,0.0,0.0,0.0,0.0,0.0,0.0,0.0,0.0,0.0,0.0,0.0,0.0,0.0,0.0,0.0,0.0,0.0,0.0,0.0,0.0,0.0,0.0,0.0,0.0,0.0,0.0,0.0,0.0,0.0,0.0,0.0,0.0,0.0,0.0,0.0,0.0,0.0,0.0,0.0,0.0,0.0,0.0,0.0,0.0,0.0,0.0,0.0,0.0,0.0,0.0,0.0,0.0,0.0,0.0,0.0,0.0,0.0,0.0,0.0,0.0,0.0,0.0,0.0,0.0,0.0,0.0,0.0,0.0,0.0,0.0,0.0,0.0,0.0,0.0,0.0,0.0,0.0,0.0,0.0,0.0,0.0,0.0,0.0,0.0,0.0,0.0,0.0,0.0,0.0,0.0,0.0,0.0,0.0,0.0,0.0,0.0,0.0,0.0,0.0,0.0,0.0,0.0,0.0,0.0,0.0,0.0,0.0,0.0,0.0,0.0,0.0,0.0,0.0,0.0,0.0,0.0,0.0,0.0,0.0,0.0,0.0,0.0,0.0,1.1604,1.1604,1.138,0.4948,0.2028,0.2029,0.202,0.1258,0.0,0.0,0.0,0.0,0.0,0.0,0.0,0.0,0.0,0.0,0.0,0.0,0.0,0.0,0.0,0.0,0.0,0.0,0.0,0.0,0.0,0.0,0.0,0.0,0.0,0.0,0.0,0.0,0.0,0.0,0.0,0.0,0.0,0.0,0.0,0.0,0.0,0.0,0.0,0.0,0.0,0.0,0.0,0.0,0.0,0.0,0.0,0.0,0.0,0.0,0.0,0.0,0.0,0.0,0.0,0.0,0.0,0.0,0.0,0.0,0.0,0.0,0.0,0.0,0.0,0.0,0.0,0.0,0.0,0.0,0.0,0.0,0.0,0.0,0.0,0.0,0.0,0.0,0.0,0.0,0.0,0.0,0.0,0.0,1.0695,1.0695,0.0,0.0,0.0,0.0,0.0,0.0,0.0,0.0,0.0,0.0,0.0,0.0,0.0,1.0065,1.0077,1.0065,1.0582,1.1606,1.1604,1.1604,1.157,1.0534,1.0065,1.0076,1.0081,0.0,0.0,0.0,0.0,0.0,0.0,0.0,0.0,0.0,0.0,0.0,0.0,0.0,0.0,0.0,0.0,0.0,0.0,0.0,0.0,0.0,0.0,0.0,0.0,0.0,0.0,0.0,0.0,0.0,0.0,0.0,0.0,0.0,0.0,0.0,0.0,0.0,0.0,0.0,0.0,0.0,0.0,0.0,0.0,0.0,0.0,0.0,0.0,0.0,0.0,0.0,0.0,0.0,0.0,0.0,0.0,0.0,0.0,0.0,0.0,0.0,0.0,0.0,0.0,0.0,0.0,0.0,0.0,0.0,0.0,0.0,0.0,0.0,0.0,0.0,0.0,0.0,0.0,0.0,0.0,0.0,0.0,0.0,0.0,1.0698,1.0822,1.1166,1.121,1.1209,0.0,0.0,0.0,0.0,0.0,0.0,0.0,0.0,0.0,1.1597,1.1597,1.1604,1.1606,1.1604,1.1597,1.1597,1.1608,1.1608,1.1597,1.1597,1.1611,1.1606,1.1608,0.7177,0.0,0.0,0.0,0.0,0.0,0.0,0.0,0.0,0.0,0.0,0.0,0.0,0.0,0.0,0.0,0.0,0.0,0.0,0.0,0.0,0.0,0.0,0.0,0.0,0.0,0.0,0.0,0.0,0.0,0.0,0.0,0.0,0.0,0.0,0.0,0.0,0.0,0.0,0.0,0.0,0.0,0.0,0.0,0.0,0.0,0.0,0.0,0.0,0.0,0.0,0.0,0.0,0.0,0.0,0.0,0.0,0.0,0.0,0.0,0.0,0.0,0.0,0.0,0.0,0.0,0.0,0.0,0.0,0.0,0.0,0.0,0.0,0.0,0.0,0.0,0.0,0.0,0.0,0.0,0.0,0.0,0.0,0.0,1.09,1.1104,1.1549,1.1598,1.1597,0.0,0.0,0.0,0.0,0.0,0.0,1.1602,1.1602,1.1602,1.1602,1.1602,1.1602,1.1602,1.1602,1.1602,1.1602,1.1602,1.1602,1.1602,1.1602,1.1604,1.1602,1.1592,0.8311,0.2814,0.0821,0.0,0.0,0.0,0.0,0.0,0.0,0.0,0.0,0.0,0.0,0.0,0.0,0.0,0.0,0.0,0.0,0.0,0.0,0.0,0.0,0.0,0.0,0.0,0.0,0.0,0.0,0.0,0.0,0.0,0.0,0.0,0.0,0.0,0.0,0.0,0.0,0.0,0.0,0.0,0.0,0.0,0.0,0.0,0.0,0.0,0.0,0.0,0.0,0.0,0.0,0.0,0.0,0.0,0.0,0.0,0.0,0.0,0.0,0.0,0.0,0.0,0.0,0.0,0.0,0.0,0.0,0.0,0.0,0.0,0.0,0.0,0.0,0.0,0.0,0.0,0.0,0.0,0.0,0.0,0.0,0.0,0.0,0.0,1.1593,1.16,0.0,0.0,0.0,0.0,1.1602,1.1602,1.1602,1.1602,1.1602,1.1602,1.1602,1.1602,1.1602,1.1602,1.1602,1.1602,1.1602,1.1602,1.1602,1.1602,1.1602,1.1604,1.1597,1.1593,1.1378,1.0431,0.304,0.0,0.0,0.0,0.0,0.0,0.0,0.0,0.0,0.0,0.0,0.0,0.0,0.0,0.0,0.0,0.0,0.0,0.0,0.0,0.0,0.0,0.0,0.0,0.0,0.0,0.0,0.0,0.0,0.0,0.0,0.0,0.0,0.0,0.0,0.0,0.0,0.0,0.0,0.0,0.0,0.0,0.0,0.0,0.0,0.0,0.0,0.0,0.0,0.0,0.0,0.0,0.0,0.0,0.0,0.0,0.0,0.0,0.0,0.0,0.0,0.0,0.0,0.0,0.0,0.0,0.0,0.0,0.0,0.0,0.0,0.0,0.0,0.0,0.0,0.0,0.0,0.0,0.0,0.0,0.0,0.0,0.0,0.0,1.1603,1.1603,0.0,1.1602,1.1602,1.1602,1.1602,1.1602,1.1602,1.1602,1.1602,1.1602,1.1602,1.1602,1.1602,1.1602,1.1602,1.1602,1.1602,1.1599,1.1603,1.161,1.1593,1.1611,1.162,1.202,1.2186,1.1953,0.9177,0.487,0.0,0.0,0.0,0.0,0.0,0.0,0.0,0.0,0.0,0.0,0.0,0.0,0.0,0.0,0.0,0.0,0.0,0.0,0.0,0.0,0.0,0.0,0.0,0.0,0.0,0.0,0.0,0.0,0.0,0.0,0.0,0.0,0.0,0.0,0.0,0.0,0.0,0.0,0.0,0.0,0.0,0.0,0.0,0.0,0.0,0.0,0.0,0.0,0.0,0.0,0.0,0.0,0.0,0.0,0.0,0.0,0.0,0.0,0.0,0.0,0.0,0.0,0.0,0.0,0.0,0.0,0.0,0.0,0.0,0.0,0.0,0.0,0.0,0.0,0.0,0.0,0.0,0.0,0.0,0.0,0.0,1.16,1.1606,1.1602,1.1602,1.1602,1.1602,1.1602,1.1602,1.1602,1.1602,1.1602,1.1602,1.1602,1.1602,1.1602,1.1602,1.1602,1.1667,1.1669,1.1597,1.1592,1.172,1.1893,1.1901,1.1894,1.1928,1.2338,1.2507,1.2507,1.2503,0.7568,0.0,0.0,0.0,0.0,0.0,0.0,0.0,0.0,0.0,0.0,0.0,0.0,0.0,0.0,0.0,0.0,0.0,0.0,0.0,0.0,0.0,0.0,0.0,0.0,0.0,0.0,0.0,0.0,0.0,0.0,0.0,0.0,0.0,0.0,0.0,0.0,0.0,0.0,0.0,0.0,0.0,0.0,0.0,0.0,0.0,0.0,0.0,0.0,0.0,0.0,0.0,0.0,0.0,0.0,0.0,0.0,0.0,0.0,0.0,0.0,0.0,0.0,0.0,0.0,0.0,0.0,0.0,0.0,0.0,0.0,0.0,0.0,0.0,0.0,0.0,0.0,0.0,0.0,0.0,1.1602,1.1602,1.1602,1.1602,1.1602,1.1602,1.1602,1.1602,1.1602,1.1602,1.1602,1.1602,1.1602,1.1602,1.1602,1.1602,1.1608,1.1608,1.1626,1.1805,1.18,1.1635,1.1633,1.193,1.2492,1.2499,1.2508,1.2495,1.2495,1.2495,1.2478,1.2213,0.7326,0.0,0.0,0.0,0.0,0.0,0.0,0.0,0.0,0.0,0.0,0.0,0.0,0.0,0.0,0.0,0.0,0.0,0.0,0.0,0.0,0.0,0.0,0.0,0.0,0.0,0.0,0.0,0.0,0.0,0.0,0.0,0.0,0.0,0.0,0.0,0.0,0.0,0.0,0.0,0.0,0.0,0.0,0.0,0.0,0.0,0.0,0.0,0.0,0.0,0.0,0.0,0.0,0.0,0.0,0.0,0.0,0.0,0.0,0.0,0.0,0.0,0.0,0.0,0.0,0.0,0.0,0.0,0.0,0.0,0.0,0.0,0.0,0.0,0.0,0.0,0.0,0.0,0.0,1.1602,1.1602,1.1602,1.1602,1.1602,1.1602,1.1602,1.1602,1.1602,1.1602,1.1602,1.1602,1.1602,1.1602,1.1602,1.1602,1.1602,1.1739,1.1867,1.1964,1.2017,1.2111,1.2247,1.2249,1.2343,1.2502,1.2491,1.2502,1.2505,1.2506,1.2508,1.2037,0.5942,0.2073,0.0,0.0,0.0,0.0,0.0,0.0,0.0,0.0,0.0,0.0,0.0,0.0,0.0,0.0,0.0,0.0,0.0,0.0,0.0,0.0,0.0,0.0,0.0,0.0,0.0,0.0,0.0,0.0,0.0,0.0,0.0,0.0,0.0,0.0,0.0,0.0,0.0,0.0,0.0,0.0,0.0,0.0,0.0,0.0,0.0,0.0,0.0,0.0,0.0,0.0,0.0,0.0,0.0,0.0,0.0,0.0,0.0,0.0,0.0,0.0,0.0,0.0,0.0,0.0,0.0,0.0,0.0,0.0,0.0,0.0,0.0,0.0,0.0,0.0,0.0,0.0,0.0,1.1602,1.1602,1.1602,1.1602,1.1602,1.1602,1.1602,1.1602,1.1602,1.1602,1.1602,1.1602,1.1602,1.1602,1.1602,1.1602,1.1629,1.169,1.1807,1.1937,1.2098,1.2155,1.2256,1.2369,1.2464,1.2494,1.2501,1.2506,1.2501,0.0,1.2502,1.2503,1.2115,0.7248,0.3164,0.0,0.0,0.0,0.0,0.0,0.0,0.0,0.0,0.0,0.0,0.0,0.0,0.0,0.0,0.0,0.0,0.0,0.0,0.0,0.0,0.0,0.0,0.0,0.0,0.0,0.0,0.0,0.0,0.0,0.0,0.0,0.0,0.0,0.0,0.0,0.2983,0.3977,0.045,0.0,0.0,0.0,0.0,0.0,0.0,0.0,0.0,0.0,0.0,0.0,0.0,0.0,0.0,0.0,0.0,0.0,0.0,0.0,0.0,0.0,0.0,0.0,0.0,0.0,0.0,0.0,0.0,0.0,0.0,0.0,0.0,0.0,0.0,0.0,0.0,0.0,0.0,0.0,1.1602,1.1602,1.1602,1.1602,1.1602,1.1602,1.1602,1.1602,1.1602,1.1602,1.1602,1.1602,1.1602,1.1608,1.1622,0.0,0.0,0.0,0.0,1.1945,1.2125,1.2256,1.2292,1.2235,1.2402,1.2501,1.2501,1.2501,1.2501,1.2501,1.2501,1.2502,1.251,1.2491,0.784,0.0665,0.0177,0.0,0.0,0.0,0.0,0.0,0.0,0.0,0.0,0.0,0.0,0.0,0.0,0.0,0.0,0.0,0.0,0.0,0.0,0.0,0.0,0.0,0.0,0.0,0.0,0.0,0.0,0.0,0.0,0.0,0.0,0.0,0.0329,0.1268,0.774,0.9813,0.2365,0.0586,0.0,0.0,0.0,0.0,0.0,0.0,0.0,0.0,0.0,0.0,0.0,0.0,0.0,0.0,0.0,0.0,0.0,0.0,0.0,0.0,0.0,0.0,0.0,0.0,0.0,0.0,0.0,0.0,0.0,0.0,0.0,0.0,0.0,0.0,0.0,0.0,0.0,1.1602,1.1602,1.1602,1.1602,1.1602,1.1602,1.1602,1.1602,1.1602,1.1602,1.1602,1.1602,1.1602,1.1602,1.1649,1.1764,1.1753,0.0,1.2031,1.2154,1.2216,1.2262,1.2386,1.2441,1.2441,0.0,0.0,1.2501,1.2501,1.2501,1.2501,1.2501,1.2508,1.2495,1.2503,0.9567,0.4749,0.1333,0.0,0.0,0.0,0.0,0.0,0.0,0.0,0.0,0.0,0.0,0.0,0.0,0.0,0.0,0.0,0.0,0.0,0.0,0.0,0.0,0.0,0.0,0.0,0.0,0.0,0.0,0.0,0.0,0.0,0.0,0.0,0.23,0.9071,1.1467,1.1914,1.0297,0.4179,0.0,0.0,0.0,0.0,0.0,0.0,0.0,0.0,0.0,0.0,0.0,0.0,0.0,0.0,0.0,0.0,0.0,0.0,0.0,0.0,0.0,0.0,0.0,0.0,0.0,0.0,0.0,0.0,0.0,0.0,0.0,0.0,0.0,1.1602,0.0,0.0,1.1602,1.1602,1.1602,1.1602,1.1602,1.1602,1.1602,1.1602,1.1602,1.1602,1.1602,1.1602,1.1602,1.1602,1.1669,1.1737,1.1811,1.1904,1.2038,1.2188,1.2269,1.2325,1.2393,1.2467,1.2501,1.2501,1.2501,1.2501,1.2501,1.2501,1.2501,1.2501,1.2501,1.2501,1.2508,1.2503,1.1286,0.9197,0.7076,0.3683,0.0,0.0,0.0,0.0,0.0,0.0,0.0,0.0,0.0,0.0,0.0,0.0,0.0,0.0,0.0,0.0,0.0,0.0,0.0,0.0,0.0,0.0,0.0,0.0,0.0,0.0,0.338,0.6261,0.6263,0.6247,0.768,1.1882,1.2497,1.2497,1.2497,0.8842,0.4649,0.045,0.0,0.0,0.0,0.0,0.0,0.0,0.0,0.0,0.0,0.0,0.0,0.0,0.0,0.0,0.0,0.0,0.0,0.0,0.0,0.0,0.0,0.0,0.0,0.0,0.0,0.0,0.0,1.1602,1.1602,1.1602,1.1602,1.1602,1.1602,1.1602,1.1602,1.1602,1.1602,1.1602,1.1602,1.1602,1.1602,1.1602,1.1602,1.1602,1.1602,1.1629,1.1642,1.1642,1.1778,1.1872,1.19,1.2059,1.2195,1.2325,1.2332,1.2386,1.2501,1.2501,1.2501,1.2501,1.2501,1.2501,1.2501,1.2501,1.2501,1.2501,1.2501,1.2501,1.2501,1.249,1.2503,1.251,1.2498,0.8379,0.2324,0.1525,0.1233,0.1216,0.1216,0.1216,0.1216,0.1216,0.0667,0.0,0.0,0.0,0.0,0.0,0.0,0.0,0.0,0.0,0.0,0.0,0.0,0.0,0.0,0.1271,0.2423,0.2438,0.7883,1.2505,1.2491,1.2503,1.2503,1.2503,1.2502,1.2495,1.2503,1.2491,0.9922,0.3144,0.0977,0.0,0.0,0.0,0.0,0.0,0.0,0.0,0.0,0.0,0.0,0.0,0.0,0.0,0.0,0.0,0.0,0.0,0.0,0.0,1.1602,1.1602,1.1602,1.1602,1.1602,1.1602,0.0,1.1602,1.1602,1.1602,1.1602,1.1602,1.1602,1.1602,1.1602,1.1602,1.1602,1.1602,1.1602,1.1602,1.1602,1.1602,1.1602,1.1602,1.1602,1.1717,1.1773,1.1773,1.197,1.2113,1.223,1.2276,1.2332,1.2474,1.2481,1.2488,1.2501,1.2501,1.2501,1.2501,1.2501,1.2501,1.2501,1.2501,1.2501,1.2501,1.2501,1.2501,1.2501,1.2508,1.2508,1.2508,1.2495,1.1934,1.0653,0.6959,0.5591,0.5594,0.5594,0.5594,0.5594,0.5594,0.305,0.0,0.0,0.0,0.0,0.0,0.0,0.0,0.0,0.0,0.0,0.0,0.0,0.0,0.0,0.5845,1.1103,1.1112,1.1863,1.251,1.2495,1.2508,1.2508,1.2508,1.2501,1.2501,1.2508,1.2496,1.2134,1.1203,0.4432,0.0,0.0,0.0,0.0,0.0,0.0,0.0,0.0,0.0,0.0,0.0,0.0,0.0,0.0,0.0,0.0,0.0,0.0,0.0,1.1602,1.1602,1.1602,1.1602,1.1602,1.1602,1.1602,1.1602,1.1602,1.1602,1.1602,1.1602,1.1602,1.1602,1.1602,0.0,1.1602,1.1602,1.1602,1.1602,1.1629,1.1717,1.1723,1.1723,1.1723,1.1778,1.1852,1.1977,1.2127,1.2242,1.2303,1.2366,1.244,1.2501,1.2501,1.2501,1.2501,1.2501,1.2501,1.2501,1.2501,1.2501,1.2501,1.2501,1.2501,1.2501,1.2501,1.2501,1.2501,1.2501,1.2501,1.2501,1.2501,1.2489,1.2289,1.055,0.9913,0.991,0.991,0.991,0.991,0.991,0.8705,0.6815,0.4398,0.3656,0.3151,0.0685,0.0,0.0,0.0,0.0,0.0,0.0,0.3732,0.7283,0.7283,1.0025,1.2504,1.2509,1.2502,1.2502,1.2501,1.2501,1.2501,1.2501,1.2501,1.2501,1.2501,1.2495,1.2503,1.2498,0.4991,0.0,0.0,0.0,0.0,0.0,0.0,0.0,0.0,0.0,0.0,0.0,0.0,0.0,0.0,0.0,0.0,0.0,0.0,0.0,1.1602,1.1602,1.1602,1.1602,1.1602,1.1602,1.1602,1.1602,1.1602,1.1602,1.1602,1.1602,1.1602,1.1602,1.1602,1.1602,1.1602,1.1602,1.1602,1.1635,1.1696,1.178,1.1852,1.1893,1.1933,1.194,1.2006,1.2133,1.2283,1.2364,1.2364,1.2447,1.2501,1.2501,1.2501,1.2501,1.2501,1.2501,1.2501,1.2501,1.2501,1.2501,1.2501,1.2501,1.2501,1.2501,1.2501,1.2501,1.2501,1.2501,1.2501,1.2501,1.2501,1.2501,1.2508,1.2509,1.2497,1.2498,1.2498,1.2498,1.2498,1.2498,1.2505,1.1934,0.8929,0.8004,0.7376,0.4315,0.3455,0.3455,0.3455,0.3455,0.3453,0.3451,0.8078,1.2505,1.251,1.2503,1.249,1.2508,1.2501,1.2501,1.2501,1.2501,1.2501,1.2501,1.2501,1.2501,1.2501,1.2489,1.1604,0.9295,0.3625,0.0,0.0,0.0,0.0,0.0,0.0,0.0,0.0,0.0,0.0,0.0,0.0,0.0,0.0,0.0,0.0,0.0,0.0,0.0,1.1602,1.1602,1.1602,1.1602,1.1602,1.1602,1.1602,1.1602,1.1602,1.1602,1.1602,1.1602,1.1602,1.1602,1.1602,1.1602,1.1602,1.1602,1.1602,1.1717,1.1805,1.1793,1.1965,1.2133,0.0,1.2277,1.2296,1.2284,1.2413,1.2494,1.2494,1.2501,1.2501,1.2501,1.2501,1.2501,1.2501,1.2501,1.2501,1.2501,1.2501,1.2501,1.2501,1.2501,1.2501,1.2501,1.2501,1.2501,1.2501,1.2501,1.2501,1.2501,1.2501,1.2501,1.2501,1.2501,1.2501,1.2508,1.2508,1.2508,1.2508,1.2508,1.2509,1.2478,1.2355,1.2304,1.2284,1.2167,1.2128,1.2128,1.2128,1.2128,1.2115,1.2122,1.2316,1.2503,1.2489,1.2501,1.2501,1.2501,1.2501,1.2501,1.2501,1.2501,1.2501,1.2501,1.2501,1.2501,1.2501,1.249,0.9392,0.1251,0.0156,0.0,0.0,0.0,0.0,0.0,0.0,0.0,0.0,0.0,0.0,0.0,0.0,0.0,0.0,0.0,0.0,0.0,0.0,0.0,1.1602,1.1602,1.1602,1.1602,1.1602,1.1602,1.1602,1.1602,1.1602,1.1602,1.1602,1.1602,1.1602,1.1602,1.1602,1.1602,1.1602,1.1635,1.173,1.1766,1.1886,1.2115,1.2182,0.0,0.0,0.0,0.0,1.2427,1.2474,1.2501,1.2501,1.2501,1.2501,1.2501,1.2501,1.2501,1.2501,1.2501,1.2501,1.2501,1.2501,1.2501,1.2501,1.2501,1.2501,1.2501,1.2501,1.2501,1.2501,1.2501,1.2501,1.2501,1.2501,1.2501,1.2501,1.2501,1.2501,1.2501,1.2501,1.2501,1.2501,1.2501,1.2489,1.2502,1.2502,1.2509,1.2496,1.2496,1.2496,1.2496,1.2496,1.2496,1.2496,1.2502,1.2502,1.2495,1.2501,1.2501,1.2501,1.2501,1.2501,1.2501,1.2501,1.2501,1.2501,1.2501,1.2501,1.2501,1.2501,0.7647,0.3132,0.0293,0.0,0.0,0.0,0.0,0.0,0.0,0.0,0.0,0.0,0.0,0.0,0.0,0.0,0.0,0.0,0.0,0.0,0.0,0.0,0.0,1.1602,1.1602,1.1602,1.1602,1.1602,1.1602,1.1602,1.1602,1.1602,1.1602,1.1602,1.1602,1.1602,1.1602,1.1602,1.1602,1.1642,1.171,1.178,1.1906,1.2067,1.2264,1.2332,1.24,0.0,0.0,0.0,1.2494,1.2501,1.2501,1.2501,1.2501,1.2501,1.2501,1.2501,1.2501,1.2501,1.2501,1.2501,1.2501,1.2501,1.2501,1.2501,1.2501,1.2501,1.2501,1.2501,1.2501,1.2501,1.2501,1.2501,1.2501,1.2501,1.2501,1.2501,1.2501,1.2501,1.2501,1.2501,1.2501,1.2501,1.2501,1.2501,1.2501,1.2501,1.2501,1.2501,1.2501,1.2501,1.2501,1.2501,1.2501,1.2501,1.2501,1.2501,1.2501,1.2501,1.2501,1.2501,1.2501,1.2501,1.2501,1.2501,1.2501,1.2501,1.2501,1.2501,1.2508,1.2502,0.7791,0.4476,0.4469,0.1778,0.0,0.0,0.0,0.0,0.0,0.0,0.0,0.0,0.0,0.0,0.0,0.0,0.0,0.0,0.0,0.0,0.0,0.0,0.0,1.1602,1.1602,1.1602,1.1602,1.1602,1.1602,1.1602,1.1602,1.1602,1.1602,1.1602,1.1602,1.1602,1.1602,1.1602,1.1608,1.1723,1.1818,1.1813,1.2108,1.2291,0.0,0.0,0.0,0.0,0.0,0.0,1.2501,0.0,1.2501,1.2501,1.2501,1.2501,1.2501,1.2501,1.2501,1.2501,1.2501,1.2501,1.2501,1.2501,1.2501,1.2501,1.2501,1.2501,1.2501,1.2501,1.2501,1.2501,1.2501,1.2501,1.2501,1.2501,1.2501,1.2501,1.2501,1.2501,1.2501,1.2501,1.2501,1.2501,1.2501,1.2501,1.2501,1.2501,1.2501,1.2501,1.2501,1.2501,1.2501,1.2501,1.2501,1.2501,1.2501,1.2501,1.2501,1.2501,1.2501,1.2501,1.2501,1.2501,1.2501,1.2501,1.2501,1.2501,1.2501,1.2501,1.2495,1.251,1.2491,1.2504,1.2499,0.5379,0.0469,0.0039,0.0,0.0,0.0,0.0,0.0,0.0,0.0,0.0,0.0,0.0,0.0,0.0,0.0,0.0,0.0,0.0,0.0,1.1602,1.1602,1.1602,1.1602,1.1602,1.1602,1.1602,1.1602,1.1602,1.1602,1.1602,1.1602,1.1602,1.1602,1.1635,1.1726,1.1773,1.1893,1.2142,1.2244,1.2351,1.2433,1.2481,1.2501,1.2501,1.2501,0.0,0.0,1.2501,1.2501,1.2501,1.2501,1.2501,1.2501,1.2501,1.2501,1.2501,1.2501,1.2501,1.2501,1.2501,1.2501,1.2501,1.2501,1.2501,1.2501,1.2501,1.2501,1.2501,1.2501,1.2501,1.2501,1.2501,1.2501,1.2501,1.2501,1.2501,1.2501,1.2501,1.2501,1.2501,1.2501,1.2501,1.2501,1.2501,1.2501,1.2501,1.2501,1.2501,1.2501,1.2501,1.2501,1.2501,1.2501,1.2501,1.2501,1.2501,1.2501,1.2501,1.2501,1.2501,1.2501,1.2501,1.2501,1.2501,1.2501,1.2501,1.2508,1.2495,1.2495,1.2509,1.2504,1.06,0.678,0.0528,0.0,0.0,0.0,0.0,0.0,0.0,0.0,0.0,0.0,0.0,0.0,0.0,0.0,0.0,0.0,0.0,0.0,1.1602,1.1602,1.1602,1.1602,1.1602,1.1602,1.1602,1.1602,1.1602,1.1602,1.1602,1.1602,1.1602,1.1656,1.1717,1.178,1.1927,1.2094,1.2264,1.2345,1.2413,1.2494,1.2501,1.2501,1.2501,1.2501,1.2501,0.0,1.2501,1.2501,1.2501,1.2501,1.2501,1.2501,1.2501,1.2501,1.2501,1.2501,1.2501,1.2501,1.2501,1.2501,1.2501,1.2501,1.2501,1.2501,0.0,1.2501,1.2501,1.2501,1.2501,1.2501,1.2501,1.2501,1.2501,1.2501,1.2501,1.2501,1.2501,1.2501,1.2501,1.2501,1.2501,1.2501,1.2501,1.2501,1.2501,1.2501,1.2501,1.2501,1.2501,1.2501,1.2501,1.2501,1.2501,1.2501,1.2501,1.2501,1.2501,1.2501,1.2501,1.2501,1.2501,1.2501,1.2501,1.2501,1.2501,1.2501,1.2501,1.2501,1.2508,1.2509,1.2503,1.06,0.589,0.2112,0.0,0.0,0.0,0.0,0.0,0.0,0.0,0.0,0.0,0.0,0.0,0.0,0.0,0.0,0.0,0.0,1.1602,1.1602,1.1602,1.1602,1.1602,1.1602,1.1602,1.1602,1.1602,1.1602,1.1602,1.1602,1.1602,1.1717,1.18,1.1839,1.2101,1.2317,1.2318,1.2427,1.2501,1.2501,1.2501,1.2501,1.2501,1.2501,1.2501,1.2501,1.2501,1.2501,1.2501,1.2501,1.2501,1.2501,1.2501,1.2501,1.2501,1.2501,1.2501,1.2501,1.2501,1.2501,1.2501,1.2501,1.2501,1.2501,0.0,0.0,1.2501,1.2501,1.2501,1.2501,1.2501,1.2501,1.2501,1.2501,1.2501,1.2501,1.2501,1.2501,1.2501,1.2501,1.2501,1.2501,1.2501,1.2501,1.2501,1.2501,1.2501,1.2501,1.2501,1.2501,1.2501,1.2501,1.2501,1.2501,1.2501,1.2501,1.2501,1.2501,1.2501,1.2501,1.2501,1.2501,1.2501,1.2501,1.2501,1.2501,1.2501,1.2501,1.2501,1.2501,1.2509,1.2504,1.2506,0.481,0.0,0.0,0.0,0.0,0.0,0.0,0.0,0.0,0.0,0.0,0.0,0.0,0.0,0.0,0.0,0.0,1.1602,1.1602,1.1602,1.1602,1.1602,1.1602,1.1602,1.1602,1.1602,1.1602,1.1602,1.1602,1.1602,1.1717,1.1852,1.2018,1.2195,1.2332,1.2447,1.2488,1.2501,1.2501,1.2501,1.2501,1.2501,1.2501,0.0,0.0,0.0,1.2501,1.2501,1.2501,1.2501,1.2501,1.2501,1.2501,1.2501,1.2501,1.2501,1.2501,1.2501,1.2501,1.2501,1.2501,1.2501,1.2501,1.2501,0.0,1.2501,1.2501,1.2501,1.2501,1.2501,1.2501,1.2501,1.2501,1.2501,1.2501,1.2501,1.2501,1.2501,1.2501,1.2501,1.2501,1.2501,1.2501,1.2501,1.2501,1.2501,1.2501,1.2501,1.2501,1.2501,1.2501,1.2501,1.2501,1.2501,1.2501,1.2501,1.2501,1.2501,1.2501,1.2501,1.2501,1.2501,1.2501,1.2501,1.2501,1.2501,1.2501,1.2501,1.2501,1.2508,1.2496,1.2499,0.4825,0.0,0.0,0.0,0.0,0.0,0.0,0.0,0.0,0.0,0.0,0.0,0.0,0.0,0.0,0.0,0.0,1.1602,1.1602,1.1602,1.1602,1.1602,1.1602,1.1602,1.1602,1.1602,1.1602,1.1602,1.1602,1.1602,1.1803,1.1991,1.2084,1.2269,1.2427,1.2494,1.2501,1.2501,1.2501,1.2501,1.2501,1.2501,1.2501,1.2501,1.2501,1.2501,1.2501,1.2501,1.2501,1.2501,1.2501,1.2501,1.2501,1.2501,1.2563,1.2604,1.2604,1.2705,1.2758,1.2758,1.2758,1.2758,1.2758,1.2758,0.0,1.2604,1.2604,1.2556,1.2501,1.2501,1.2501,1.2501,1.2501,1.2501,1.2501,1.2501,1.2501,1.2501,1.2501,1.2501,1.2501,1.2501,1.2501,1.2501,1.2501,1.2501,1.2501,1.2501,1.2501,1.2501,1.2501,1.2501,1.2501,1.2501,1.2501,1.2501,1.2501,1.2501,1.2501,1.2501,1.2501,1.2501,1.2501,1.2501,1.2501,1.2501,1.2501,1.2501,1.2501,1.2501,1.2502,1.2498,0.4819,0.0,0.0,0.0,0.0,0.0,0.0,0.0,0.0,0.0,0.0,0.0,0.0,0.0,0.0,0.0,0.0,1.1602,1.1602,1.1602,1.1602,1.1602,1.1602,1.1602,1.1602,1.1602,1.1602,1.1602,1.1608,1.1642,1.1884,1.2111,1.2145,1.2332,1.2501,1.2501,1.2501,1.2501,1.2501,1.2501,1.2501,1.2501,1.2501,0.0,1.2501,1.2501,0.0,1.2501,1.2501,1.2501,1.2501,1.2535,1.2529,1.2529,1.2685,1.276,1.276,1.2921,1.3003,1.3003,1.3003,1.3003,1.3003,1.3003,0.0,0.0,1.276,1.2705,1.2596,1.2562,1.2529,1.2549,1.2515,1.2501,1.2501,1.2501,1.2501,1.2501,1.2501,1.2501,1.2501,1.2501,1.2501,1.2501,1.2501,1.2501,1.2501,1.2501,1.2501,1.2501,1.2501,1.2501,1.2501,1.2501,1.2501,1.2501,1.2501,1.2501,1.2501,1.2501,1.2501,1.2501,1.2501,1.2501,1.2501,1.2501,1.2501,1.2501,1.2501,1.2501,1.2495,1.2491,0.6458,0.1911,0.0117,0.0,0.0,0.0,0.0,0.0,0.0,0.0,0.0,0.0,0.0,0.0,0.0,0.0,0.0892,1.1602,1.1602,1.1602,1.1602,1.1602,1.1602,1.1602,1.1602,1.1602,1.1602,1.1602,1.1642,1.1753,1.1964,1.2145,1.2262,1.24,1.2501,1.2501,1.2501,1.2501,1.2501,1.2501,1.2501,1.2501,1.2501,1.2501,1.2501,0.0,0.0,1.2501,1.2501,1.2501,1.2501,1.2617,1.2692,1.2692,1.2881,1.2982,1.2982,1.2996,1.3003,1.3003,1.3003,1.3003,1.3003,1.3003,0.0,0.0,1.2982,1.2969,1.2941,1.2746,1.2692,1.2672,1.2536,1.2501,1.2501,1.2501,1.2501,1.2501,1.2501,1.2501,1.2501,1.2501,1.2501,1.2501,1.2501,1.2501,1.2501,1.2501,1.2501,1.2501,1.2501,1.2501,1.2501,1.2501,1.2501,1.2501,1.2501,1.2501,1.2501,1.2501,1.2501,1.2501,1.2501,1.2501,1.2501,1.2501,1.2501,1.2501,1.2501,1.2501,1.2495,1.2491,1.1798,0.8113,0.0489,0.0,0.0,0.0,0.0,0.0,0.0,0.0,0.0,0.0,0.0,0.0,0.0,0.0,0.3778,1.1602,1.1602,1.1602,1.1602,1.1602,1.1602,1.1602,1.1602,1.1602,1.1602,1.1602,1.1642,1.1784,1.1959,1.2133,1.2283,1.2413,1.2501,1.2501,1.2501,1.2501,1.2501,1.2501,1.2501,1.2501,1.2501,1.2501,1.2501,0.0,0.0,1.2617,1.2617,1.2617,1.2617,1.2786,1.2887,1.2887,1.3037,1.3125,1.3112,1.32,1.3248,1.3248,1.3248,1.3248,1.3248,1.3248,0.0,0.0,1.3125,1.3077,1.2996,1.2915,1.2887,1.2854,1.2678,1.2617,1.2604,1.2535,1.2501,1.2501,1.2501,1.2501,1.2501,1.2501,1.2501,1.2501,1.2501,1.2501,1.2501,1.2501,1.2501,1.2501,1.2501,1.2501,1.2501,1.2501,1.2501,1.2501,1.2501,1.2501,1.2501,1.2501,1.2501,1.2501,1.2501,1.2501,1.2501,1.2501,1.2501,1.2501,1.2501,1.2501,1.2508,1.2502,1.2503,1.1073,0.774,0.2793,0.0,0.0,0.0,0.0,0.0,0.0,0.0,0.0,0.0,0.24,0.6986,0.6986,0.8649,1.1602,1.1602,1.1602,1.1602,1.1602,1.1602,1.1602,1.1602,1.1602,1.1602,1.1602,1.1656,1.1845,1.2004,1.2166,1.2337,1.2433,1.2501,1.2501,1.2501,1.2501,1.2501,1.2501,1.2501,1.2501,1.2501,1.2522,1.2569,0.0,0.0,1.2793,1.284,1.2821,1.28,1.2962,1.3064,1.3064,1.3186,1.3261,1.3261,1.3349,1.3403,1.3403,1.3403,1.3403,1.3403,0.0,0.0,0.0,1.3261,1.32,1.3105,1.3064,1.3064,1.3043,1.2854,1.28,1.2779,1.2604,1.2569,1.2543,1.2515,1.2501,1.2501,1.2501,1.2501,1.2501,1.2501,1.2501,1.2501,1.2501,1.2501,1.2501,1.2501,1.2501,1.2501,1.2501,1.2501,1.2501,1.2501,1.2501,1.2501,1.2501,1.2501,1.2501,1.2501,1.2501,1.2501,1.2501,1.2501,1.2501,1.2501,1.2501,1.2501,1.2501,1.2502,1.2497,1.2512,0.4641,0.1111,0.3597,0.3691,0.3691,0.3695,0.1264,0.1135,0.3432,0.3432,0.6239,1.1597,1.1597,1.1602,1.1602,1.1602,1.1602,1.1602,1.1602,1.1602,1.1602,1.1602,1.1602,1.1602,1.1602,1.169,1.2043,1.2098,1.2193,1.2454,1.2501,1.2501,1.2501,1.2501,1.2501,1.2501,1.2501,1.2501,1.2501,1.2501,1.2562,1.2699,0.0,0.0,1.2989,1.3112,1.3125,1.3003,1.3139,1.3193,1.3193,1.3322,1.3397,1.3397,1.3403,1.3403,1.3403,1.3403,1.3403,0.0,0.0,0.0,0.0,1.3397,1.3397,1.3383,1.3248,1.3193,1.3173,1.305,1.3003,1.2975,1.276,1.2705,1.2685,1.2529,1.2501,1.2501,1.2501,1.2501,1.2501,1.2501,1.2501,1.2501,1.2501,1.2501,1.2501,1.2501,1.2501,1.2501,1.2501,1.2501,1.2501,1.2501,1.2501,1.2501,1.2501,1.2501,1.2501,1.2501,1.2501,1.2501,1.2501,1.2501,1.2501,1.2501,1.2501,1.2501,1.2501,1.2501,1.2495,1.2491,0.4629,0.3718,1.2024,1.2369,1.2369,1.2369,0.4225,0.3791,1.1471,1.1478,1.1524,1.1599,1.1599,1.1604,1.1602,1.1602,1.1602,1.1602,1.1602,1.1602,1.1602,1.1602,1.1602,1.1602,1.1676,1.1805,1.2064,1.2167,1.2296,1.2467,1.2501,1.2501,1.2501,1.2501,1.2501,1.2501,1.2501,1.2501,1.2501,0.0,1.2658,0.0,0.0,0.0,1.3125,1.3268,1.3282,1.3132,1.3275,1.3349,1.3349,1.3376,1.3403,1.3403,1.3403,1.3403,1.3403,1.3403,0.0,0.0,0.0,0.0,0.0,1.3403,1.3403,1.3397,1.3349,1.3349,1.3308,1.318,1.3146,1.3105,1.2955,1.2908,1.2881,1.2705,1.2638,1.2617,1.2535,1.2501,1.2501,1.2501,1.2501,1.2501,1.2501,1.2501,1.2501,1.2501,1.2501,1.2501,1.2501,1.2501,1.2501,1.2501,1.2501,1.2501,1.2501,1.2501,1.2501,1.2501,1.2501,1.2501,1.2501,1.2501,1.2501,1.2501,1.2501,1.2501,1.2501,1.2501,1.2495,1.2491,1.0006,0.9735,1.2387,1.251,1.2503,1.2491,0.99,0.9761,1.2203,1.1799,1.1595,1.159,1.159,1.1608,1.1602,1.1602,1.1602,1.1602,1.1602,1.1602,1.1602,1.1602,1.1615,1.1669,1.1732,1.1879,1.2127,1.2242,1.2338,1.2481,1.2501,1.2501,1.2501,1.2501,1.2784,1.3549,1.3626,1.3667,0.0,1.3114,1.2753,0.0,0.0,0.0,1.3275,1.3349,1.3356,1.3282,1.3349,1.3403,1.3403,1.3403,1.3403,1.3403,1.3403,1.3403,1.3403,1.3403,0.0,0.0,0.0,0.0,0.0,1.3403,1.3403,1.3403,1.3403,1.3403,1.339,1.3315,1.3282,1.3261,1.3112,1.3084,1.3057,1.2868,1.276,1.2672,1.2597,1.2549,1.2501,1.2501,1.2501,1.2501,1.2501,1.2501,1.2501,1.2501,1.2501,1.2501,1.2501,1.2501,1.2501,1.2501,1.2501,1.2501,1.2501,1.2501,1.2501,1.2501,1.2501,1.2501,1.2501,1.2501,1.2501,1.2501,1.2501,1.2501,1.2501,1.2501,1.2489,1.2496,1.2495,1.2495,1.2496,1.2495,1.2495,1.2496,1.2498,1.2496,1.251,1.1891,1.1593,1.1602,1.1602,1.1602,0.0,1.1602,1.1602,1.1602,1.1602,1.1602,1.1602,1.1608,0.0,1.1766,1.1935,1.2093,1.2275,1.2545,1.2746,1.2725,1.2842,1.2919,1.2919,1.2919,1.3626,1.5518,1.5748,0.0,1.5827,1.4096,0.0,0.0,0.0,0.0,1.3397,1.3403,1.3403,1.3403,1.3403,1.3403,1.3403,1.3403,1.3403,1.3403,1.3403,1.3403,1.3403,1.3403,0.0,0.0,0.0,0.0,0.0,1.3403,1.3403,1.3403,1.3403,1.3403,1.3403,1.3403,1.3403,1.3376,1.3261,1.3207,1.3186,1.3064,1.2874,1.2726,1.2726,1.2611,1.2501,1.2501,1.2501,1.2501,1.2501,1.2501,1.2501,1.2501,1.2501,1.2501,1.2501,1.2501,1.2501,1.2501,1.2501,1.2501,1.2501,1.2501,1.2501,1.2501,1.2501,1.2501,1.2501,1.2501,1.2501,1.2501,1.2501,1.2501,1.2501,1.2501,1.2501,1.2501,1.2501,1.2501,1.2501,1.2501,1.2501,1.2501,1.2494,1.2497,1.2505,1.188,1.161,1.1602,1.1602,1.1602,1.1602,0.0,1.1602,1.1602,1.1602,1.1602,0.0,1.1683,1.1753,1.1786,1.3233,1.4027,1.2574,1.4941,1.6611,1.5061,1.6123,1.717,1.717,1.717,1.7416,1.8096,1.8192,1.7642,1.623,1.5756,0.0,0.0,0.0,1.3363,1.3397,1.3403,1.3403,1.3403,1.3403,1.3403,1.3403,1.3403,1.3403,1.3403,1.3403,1.3403,1.3403,1.3403,0.0,0.0,0.0,0.0,1.3403,1.3403,1.3403,1.3403,1.3403,1.3403,1.3403,1.3403,1.3403,1.3397,1.3363,1.3349,1.3322,1.3193,1.3044,1.2928,1.2928,1.2738,1.2501,1.2501,1.2501,1.2501,1.2501,1.2501,1.2501,1.2501,1.2501,1.2501,1.2501,1.2501,1.2501,1.2501,1.2501,1.2501,1.2501,1.2501,1.2501,1.2501,1.2501,1.2501,1.2501,1.2501,1.2501,1.2501,1.2501,1.2501,1.2501,1.2501,1.2501,1.2501,1.2501,1.2501,1.2501,1.2501,1.2501,1.2501,1.2495,1.2498,1.2503,1.1888,1.161,1.1602,1.1602,1.1602,1.1602,1.1602,1.1602,1.1602,1.1602,1.1602,1.1602,1.2446,1.3243,1.3301,1.4361,1.5286,1.5198,1.6289,1.7113,1.6942,1.7872,1.861,1.861,1.9384,2.0073,2.0331,2.0383,1.9685,0.0,0.0,0.0,0.0,0.0,1.3403,1.3403,1.3403,1.3403,1.3403,1.3403,1.3403,1.3403,1.3403,1.3403,1.3403,1.3403,1.3403,1.3403,1.3403,1.3403,0.0,0.0,0.0,1.3403,1.3403,1.3403,1.3403,1.3403,1.3403,1.3403,1.3403,1.3403,1.3403,1.3403,1.3403,1.339,1.3322,1.32,1.3098,1.3098,1.2915,1.2718,1.2623,1.259,1.2589,1.2522,1.2501,1.2501,1.2501,1.2501,1.2502,1.2492,1.2506,1.2506,1.2495,1.2508,1.2508,1.2508,1.2494,1.2506,1.2506,1.251,1.2501,1.2501,1.2501,1.2501,1.2501,1.2501,1.2501,1.2501,1.2501,1.2501,1.2501,1.2501,1.2501,1.2501,1.2501,1.2501,1.2501,1.2504,1.249,1.2496,1.1895,1.16,1.1606,1.1593,1.1602,1.1602,1.1849,1.2018,1.168,1.181,1.2051,1.209,1.3788,1.5396,1.5561,1.595,1.673,1.8305,1.7663,1.7379,1.8818,1.9327,1.9516,1.9516,2.0973,2.2188,2.2507,2.2543,0.0,2.0199,0.0,0.0,0.0,0.0,1.4031,1.4383,1.3769,1.3542,1.3894,1.3562,1.3403,1.3403,1.3403,1.3403,1.3403,1.3403,1.3403,1.3403,1.3403,1.3403,0.0,0.0,0.0,1.3403,1.3403,1.3403,1.3403,1.3403,1.3403,1.3403,1.3403,1.3403,1.3403,1.3403,1.3403,1.3403,1.3403,1.3315,1.3227,1.3227,1.3146,1.3017,1.2821,1.276,1.2719,1.2603,1.253,1.2491,1.2491,1.2491,1.2506,1.2496,1.2562,1.2641,1.2649,1.2648,1.2648,1.2648,1.2648,1.2614,1.2509,1.25,1.2509,1.2508,1.2501,1.2501,1.2501,1.2501,1.2501,1.2501,1.2501,1.2501,1.2501,1.2501,1.2501,1.2501,1.2501,1.2501,1.2501,1.2501,1.2491,1.2507,1.1985,1.1694,1.1603,1.159,1.1602,1.1602,1.2976,1.3932,1.2079,1.2799,1.4029,1.4329,1.5967,1.7514,1.7758,1.9311,2.0224,1.8845,2.1122,2.275,2.1347,0.0,2.3685,0.0,0.0,2.4339,2.4914,0.0,2.4328,0.0,0.0,0.0,0.0,0.0,1.6934,1.879,1.5399,1.4238,1.6061,1.4355,1.3403,1.3403,1.3403,1.3403,1.3403,1.3403,1.3403,1.3403,1.3403,1.3403,0.0,0.0,1.3403,1.3403,1.3403,1.3403,1.3403,1.3403,1.3403,1.3403,1.3403,1.3403,1.3403,1.3403,1.3403,1.3403,1.3403,1.3383,1.3363,1.3363,1.3349,1.3302,1.3166,1.3037,1.2942,1.2935,1.2702,1.2502,1.2502,1.2502,1.2509,1.2509,1.2902,1.3262,1.3263,1.327,1.327,1.327,1.3249,1.3087,1.2588,1.2508,1.2507,1.2495,1.2501,1.2501,1.2501,1.2501,1.2501,1.2501,1.2501,1.2501,1.2501,1.2501,1.2501,1.2501,1.2501,1.2501,1.2501,1.2501,1.2491,1.2507,1.2405,1.2097,1.1603,1.159,1.1602,1.3113,1.4729,1.6163,1.5148,1.5642,1.6445,1.6594,1.8272,1.9826,1.9955,2.0846,2.1657,2.1807,2.2471,2.3023,2.319,0.0,2.4599,2.4599,2.4751,2.5037,0.0,0.0,0.0,0.0,0.0,0.0,0.0,0.0,0.0,1.9846,1.8005,1.682,1.6606,1.5638,1.4582,1.3403,1.3403,1.3403,1.3403,1.3403,1.3403,1.3403,1.3403,1.3403,1.3403,0.0,1.3403,1.3403,1.3403,1.3403,1.3403,1.3403,1.3403,1.3403,1.3403,1.3403,1.3403,1.3403,1.3403,1.3403,1.3403,1.3403,1.3403,1.3403,1.3403,1.339,1.3336,1.3214,1.3078,1.2936,1.2775,1.2628,1.2528,1.2508,1.2588,1.2909,1.3199,1.3396,1.339,1.3411,1.3411,1.3411,1.3403,1.33,1.3023,1.2708,1.2502,1.2493,1.2491,1.2501,1.2501,1.2501,1.2501,1.2501,1.2501,1.2501,1.2501,1.2501,1.2501,1.2501,1.2501,1.2501,1.2501,1.2501,1.2506,1.2502,1.2503,1.2194,1.1606,1.1594,1.1602,1.5159,1.6777,1.8463,1.8551,1.8657,1.8781,1.8852,2.0514,2.2062,2.2142,2.2232,2.2769,2.4309,2.3339,2.2806,2.4359,2.4599,2.4626,2.4711,2.493,2.5229,0.0,0.0,0.0,0.0,0.0,0.0,0.0,0.0,0.0,2.0615,1.9217,1.7833,1.6647,1.6102,1.5069,1.3424,1.3403,1.3403,1.3403,1.3403,1.3403,1.3403,1.3403,1.3403,1.3403,1.3403,1.3403,1.3403,1.3403,1.3403,1.3403,1.3403,1.3403,1.3403,1.3403,1.3403,1.3403,1.3403,1.3403,1.3403,1.3403,1.3403,1.3403,1.3403,1.3403,1.3403,1.3403,1.3336,1.32,1.299,1.2936,1.2896,1.2754,1.2707,1.2842,1.3309,1.3391,1.3405,1.3397,1.3403,1.3403,1.3403,1.3411,1.3404,1.3411,1.3016,1.2667,1.2515,1.2499,1.2501,1.2501,1.2501,1.2501,1.2501,1.2501,1.2501,1.2501,1.2501,1.2501,1.2501,1.2501,1.2501,1.2501,1.2501,1.2501,1.2501,1.2497,1.2195,1.1593,1.16,1.1599,1.7376,1.9036,2.0741,2.1048,2.0906,2.0783,2.1083,2.2634,2.4075,2.4322,2.437,2.4433,2.4562,2.4488,2.442,2.4581,2.4599,2.4711,2.5029,0.0,0.0,0.0,0.0,0.0,0.0,0.0,0.0,0.0,0.0,0.0,2.276,1.7147,1.4706,1.6545,1.4657,1.3562,1.3403,1.3403,1.3403,1.3403,1.3403,1.3403,1.3403,1.3403,1.3403,1.3403,1.3403,1.3403,1.3403,1.3403,1.3403,1.3403,1.3403,1.3403,1.3403,1.3403,1.3403,1.3403,1.3403,1.3403,1.3403,1.3403,1.3403,1.3403,1.3403,1.3403,1.3403,1.3403,1.339,1.3383,1.3349,1.337,1.3349,1.3349,1.3349,1.3349,1.3383,1.3404,1.3411,1.3397,1.3403,1.3403,1.3403,1.339,1.3397,1.3404,1.3353,1.3141,1.2568,1.2499,1.2501,1.2501,1.2501,1.2501,1.2501,1.2501,1.2501,1.2501,1.2501,1.2501,1.2501,1.2501,1.2501,1.2501,1.2501,1.2501,1.2501,1.2505,1.2184,1.1599,1.1608,1.1596,1.9413,2.1168,2.2975,2.3108,2.3166,2.3225,2.3364,2.3935,2.4484,2.4572,2.4599,0.0,0.0,2.4599,2.4599,2.4599,2.4778,2.4957,2.5082,2.5417,0.0,0.0,0.0,0.0,0.0,0.0,0.0,0.0,0.0,0.0,2.5111,2.2808,2.123,2.0665,1.9856,1.8129,1.5411,1.5391,1.4719,1.3403,1.3403,1.3403,1.3403,1.3403,1.3403,1.3403,1.3403,1.3403,1.3403,1.3403,1.3403,1.3403,1.3403,1.3403,1.3403,1.3403,1.3403,1.3403,1.3403,1.3403,1.3403,1.3403,1.3403,1.3403,1.3403,1.3403,1.3403,1.3403,1.3403,1.3403,1.3403,1.3403,1.3403,1.3403,1.3403,1.3403,1.3403,1.3403,1.3403,1.3403,1.3403,1.3403,1.3403,1.3403,1.3404,1.3411,1.3397,1.3185,1.2582,1.2496,1.2506,1.2495,1.2501,1.2501,1.2501,1.2501,1.2501,1.2501,1.2501,1.2501,1.2501,1.2501,1.2501,1.2501,1.2501,1.2501,1.2501,1.2499,1.2386,1.2154,1.1769,1.1603,2.1612,2.2911,2.4222,2.4297,2.4452,2.4599,2.4599,2.4599,2.4599,2.4599,2.4599,2.4599,2.4599,0.0,0.0,0.0,2.4943,2.5163,2.535,2.5743,0.0,0.0,0.0,0.0,0.0,0.0,0.0,0.0,0.0,0.0,0.0,2.4721,2.3652,2.2146,2.2086,2.0665,1.767,1.7649,1.6893,1.546,1.546,1.4726,1.3403,1.3403,1.3403,1.3403,1.3403,1.3403,1.3403,1.3403,1.3403,1.3403,1.3403,1.3403,1.3403,1.3403,1.3403,1.3403,1.3403,1.3403,1.3403,1.3403,1.3403,1.3403,1.3403,1.3403,1.3403,1.3403,1.3403,1.3403,1.3403,1.3403,1.3403,1.3403,1.3403,1.3403,1.3403,1.3403,1.3403,1.3403,1.3403,1.3403,1.3403,1.3403,1.3403,1.3403,1.3398,1.3247,1.2836,1.2622,1.2488,1.2495,1.2501,1.2501,1.2501,1.2501,1.2501,1.2501,1.2501,1.2501,1.2501,1.2501,1.2501,1.2501,1.2501,1.2501,1.2501,1.2502,1.2493,1.2498,1.188,1.1597,2.4048,2.4209,2.4275,2.4532,2.4599,2.4599,2.4599,2.4599,2.4599,2.4599,2.4599,2.4599,2.4599,2.4599,0.0,2.5056,2.5096,2.531,2.5917,2.5998,0.0,0.0,0.0,0.0,0.0,0.0,0.0,0.0,0.0,0.0,0.0,2.112,1.9968,1.9968,1.9968,1.9947,1.9927,1.9927,1.9927,1.9907,1.9907,1.7638,1.3459,1.3445,1.3417,1.3417,1.3403,1.3403,1.3403,1.3403,1.3403,1.3403,1.3403,1.3403,1.3403,1.3403,1.3403,1.3403,1.3403,1.3403,1.3403,1.3403,1.3403,1.3403,1.3403,1.3403,1.3403,1.3403,1.3403,1.3403,1.3403,1.3403,1.3403,1.3403,1.3403,1.3403,1.3403,1.3403,1.3403,1.3403,1.3403,1.3403,1.3403,1.3403,1.3403,1.3403,1.3398,1.3396,1.3391,1.2867,1.2507,1.2495,1.2501,1.2501,1.2501,1.2501,1.2501,1.2501,1.2501,1.2501,1.2501,1.2501,1.2501,1.2501,1.2501,1.2501,1.2501,1.2501,1.251,1.2481,1.1884,1.1614,2.4102,2.4337,2.4492,2.4572,2.4599,2.4599,2.4599,2.4599,2.4599,2.4599,2.4599,2.4599,2.4599,2.4791,0.0,2.5082,0.0,0.0,2.5971,2.6152,0.0,0.0,0.0,0.0,0.0,0.0,0.0,0.0,0.0,0.0,0.0,2.482,2.4482,2.4482,2.4482,2.3732,2.2166,2.2146,2.1382,1.9907,1.9907,1.9217,1.7923,1.6369,1.5658,1.5576,1.4052,1.3403,1.3403,1.3403,1.3403,1.3403,1.3403,1.3403,1.3403,1.3403,1.3403,1.3403,1.3403,1.3403,1.3403,1.3403,1.3403,1.3403,1.3403,1.3403,1.3403,1.3403,1.3403,1.3403,1.3403,1.3403,1.3403,1.3403,1.3403,1.3403,1.3403,1.3403,1.3403,1.3403,1.3403,1.3403,1.3403,1.3403,1.3403,1.3403,1.3404,1.3241,1.2829,1.2607,1.2491,1.2508,1.2501,1.2501,1.2501,1.2501,1.2501,1.2501,1.2501,1.2501,1.2501,1.2501,1.2501,1.2501,1.2501,1.2501,1.2501,1.2501,1.251,1.25,1.233,1.2016,2.4302,2.4484,2.4599,2.4599,2.4599,2.4599,2.4599,2.4599,2.4599,2.4599,2.4599,2.4639,2.4778,2.4957,0.0,2.5422,2.577,0.0,0.0,0.0,0.0,0.0,0.0,0.0,0.0,0.0,0.0,0.0,0.0,0.0,0.0,2.6406,2.6406,2.6406,2.6406,2.5759,2.4422,2.441,2.3752,2.2479,2.2479,2.2479,2.2378,1.9309,1.7914,1.7853,1.6533,1.5481,1.4657,1.4657,1.4176,1.3403,1.3403,1.3403,1.3403,1.3403,1.3403,1.3403,1.3403,1.3403,1.3403,1.3403,1.3403,1.3403,1.3403,1.3403,1.3403,1.3403,1.3403,1.3403,1.3403,1.3403,1.3403,1.3403,1.3403,1.3403,1.3403,1.3403,1.3403,1.3403,1.3403,1.3403,1.3403,1.3403,1.3403,1.3403,1.3405,1.318,1.2588,1.2508,1.2501,1.2501,1.2501,1.2501,1.2501,1.2501,1.2501,1.2501,1.2501,1.2501,1.2501,1.2501,1.2501,1.2501,1.2501,1.2501,1.2501,1.2501,1.2499,1.2506,1.2508,1.2187,2.4538,2.4599,2.4599,2.4599,2.4599,2.4599,2.4599,2.4599,2.4599,2.4599,2.4599,2.4693,2.5042,2.5122,2.5323,2.5904,2.6011,0.0,0.0,0.0,0.0,0.0,0.0,0.0,0.0,0.0,0.0,0.0,0.0,0.0,0.0,2.6406,2.6406,2.6406,2.6406,2.6406,2.6406,2.6406,2.6406,0.0,2.6406,2.6406,2.6268,2.2086,2.0089,1.9907,1.9907,1.877,1.6893,1.6893,1.5761,1.3997,1.3997,1.3866,1.3687,1.3687,1.3562,1.3403,1.3403,1.3403,1.3403,1.3403,1.3403,1.3403,1.3403,1.3403,1.3403,1.3403,1.3403,1.3403,1.3403,1.3403,1.3403,1.3403,1.3403,1.3403,1.3403,1.3403,1.3403,1.3403,1.3403,1.3403,1.3403,1.3403,1.3403,1.3403,1.339,1.3184,1.2588,1.2502,1.2495,1.2501,1.2501,1.2501,1.2501,1.2501,1.2501,1.2501,1.2501,1.2501,1.2501,1.2501,1.2501,1.2501,1.2501,1.2501,1.2501,1.2501,1.2501,1.2494,1.2507,1.2174,2.4538,2.4599,2.4599,2.4599,2.4599,2.4599,2.4599,2.4599,2.4599,2.4599,2.4599,2.4693,2.5042,2.5264,2.5531,2.5931,2.6185,2.6339,0.0,0.0,0.0,0.0,0.0,0.0,0.0,0.0,0.0,0.0,0.0,0.0,2.6406,2.6406,2.6406,2.6406,2.6406,2.6406,2.6406,2.6406,2.6406,0.0,2.6406,2.6406,2.6307,2.3632,2.1482,1.9907,1.9907,1.9623,1.9197,1.9197,1.8912,1.8505,1.8505,1.7445,1.5917,1.5917,1.4843,1.3403,1.3403,1.3403,1.3403,1.3403,1.3403,1.3403,1.3403,1.3403,1.3403,1.3403,1.3403,1.3403,1.3403,1.3403,1.3403,1.3403,1.3403,1.3403,1.3403,1.3403,1.3403,1.3403,1.3403,1.3403,1.3403,1.3403,1.3403,1.3403,1.3391,1.3193,1.2581,1.2489,1.2493,1.2495,1.2501,1.2501,1.2501,1.2501,1.2501,1.2501,1.2501,1.2501,1.2501,1.2501,1.2501,1.2501,1.2501,1.2501,1.2501,1.2501,1.2501,1.2501,1.2496,1.2176,2.4559,2.4599,2.4599,2.4599,2.4599,2.4599,2.4599,2.4599,2.4599,2.4599,2.4738,2.4943,2.5237,2.555,2.5844,2.6139,2.6312,2.6406,2.6406,0.0,0.0,0.0,0.0,0.0,0.0,0.0,0.0,0.0,0.0,2.6406,2.6406,2.6406,2.6406,2.6406,2.6406,2.6406,2.6406,2.6406,2.6406,2.6406,2.6406,2.6406,2.6366,2.5211,2.4071,2.3,2.3,2.2419,2.1422,2.1422,2.0837,1.9907,1.9907,1.9197,1.8179,1.8179,1.7465,1.6521,1.6521,1.6521,1.6336,1.5275,1.4925,1.4739,1.3707,1.3403,1.3403,1.3403,1.3403,1.3403,1.3403,1.3403,1.3403,1.3403,1.3403,1.3403,1.3403,1.3403,1.3403,1.3403,1.3403,1.3403,1.3403,1.3403,1.3403,1.3403,1.3398,1.3288,1.2976,1.2681,1.2488,1.2495,1.2501,1.2501,1.2501,1.2501,1.2501,1.2501,1.2501,1.2501,1.2501,1.2501,1.2501,1.2501,1.2501,1.2501,1.2501,1.2501,1.2501,1.2501,1.2493,1.2323,2.4599,2.4599,2.4599,2.4599,2.4599,2.4599,2.4599,2.4599,2.4613,2.4666,2.4917,2.5189,2.5464,2.5778,2.6091,2.6366,2.6406,2.6406,2.6406,2.6406,0.0,0.0,0.0,0.0,0.0,0.0,0.0,0.0,0.0,2.6406,2.6406,2.6406,2.6406,2.6406,2.6406,2.6406,2.6406,2.6406,2.6406,2.6406,2.6406,2.6406,2.6406,2.6406,2.6406,2.6406,2.6406,2.535,2.366,2.366,2.2619,2.1019,2.1019,2.0797,2.0453,2.0453,2.0211,1.9907,1.9907,1.9907,1.9603,1.7772,1.6663,1.5717,1.394,1.339,1.3397,1.339,1.3397,1.3397,1.3397,1.3403,1.3403,1.3403,1.3403,1.3403,1.3403,1.3403,1.3403,1.3403,1.3403,1.3403,1.3403,1.3403,1.3403,1.3403,1.3398,1.3403,1.3398,1.2867,1.2502,1.2502,1.2501,1.2501,1.2501,1.2501,1.2501,1.2501,1.2501,1.2501,1.2501,1.2501,1.2501,1.2501,1.2501,1.2501,1.2501,1.2501,1.2501,1.2501,1.2501,1.2502,2.4599,2.4599,2.4599,2.4599,2.4599,2.4599,2.4599,2.4599,2.4679,2.497,2.5069,2.5189,2.5464,2.5778,2.6091,2.6366,2.6406,2.6406,2.6406,2.6406,0.0,0.0,0.0,0.0,0.0,0.0,0.0,0.0,2.6406,2.6406,2.6406,2.6406,2.6406,2.6406,2.6406,2.6406,2.6406,2.6406,2.6406,2.6406,2.6406,2.6406,2.6406,2.6406,2.6406,2.6406,2.6406,2.6228,2.5958,2.5958,2.5799,2.5541,2.5541,2.4363,2.2679,2.2679,2.1503,1.9907,1.9907,1.9907,1.9846,1.9562,1.6898,1.3768,1.3491,1.3396,1.341,1.3411,1.3391,1.3391,1.3397,1.3403,1.3403,1.3403,1.3403,1.3403,1.3403,1.3403,1.3403,1.3403,1.3403,1.3403,1.3403,1.3403,1.3403,1.3403,1.3404,1.3398,1.3412,1.2862,1.2489,1.249,1.2501,1.2501,1.2501,1.2501,1.2501,1.2501,1.2501,1.2501,1.2501,1.2501,1.2501,1.2501,1.2501,1.2501,1.2501,1.2501,1.2501,1.2501,1.25,1.2503,2.4599,2.4599,2.4599,2.4599,2.4599,2.4599,2.4599,2.4599,2.4698,2.5042,2.5229,2.5411,2.5724,2.6018,2.6259,2.6393,2.6406,2.6406,2.6406,2.6406,2.6406,0.0,0.0,0.0,0.0,0.0,0.0,0.0,2.6406,2.6406,2.6406,2.6406,2.6406,2.6406,2.6406,2.6406,2.6406,2.6406,2.6406,2.6406,2.6406,2.6406,2.6406,2.6406,2.6406,2.6406,2.6406,2.6406,2.6406,2.6406,2.6406,2.6406,2.6406,2.5819,2.4952,2.4952,2.435,2.3552,2.3552,2.3552,2.3352,2.2086,2.0138,1.8117,1.7277,1.5347,1.4412,1.9307,1.717,1.3404,1.3391,1.3398,1.3398,1.3398,1.3397,1.3403,1.3403,1.3403,1.3403,1.3403,1.3403,1.3403,1.3403,1.3403,1.3403,1.3403,1.3403,1.3398,1.3392,1.2876,1.2496,1.2496,1.2501,1.2501,1.2501,1.2501,1.2501,1.2501,1.2501,1.2501,1.2501,1.2501,1.2501,1.2501,1.2501,1.2501,1.2501,1.2501,1.2501,1.2501,1.2501,1.2498,2.4599,2.4599,2.4599,2.4599,2.4599,2.4599,2.4599,2.4671,2.4818,2.5149,2.5424,2.5718,2.6032,2.6259,2.6406,2.6406,2.6406,2.6406,2.6406,2.6406,2.6406,0.0,0.0,0.0,0.0,0.0,0.0,0.0,2.6406,2.6406,2.6406,2.6406,2.6406,2.6406,2.6406,2.6406,2.6406,2.6406,2.6406,2.6406,2.6406,2.6406,2.6406,2.6406,2.6406,2.6406,2.6406,2.6406,2.6406,2.6406,2.6406,2.6406,2.6406,2.6406,2.6406,2.6406,2.6406,2.6406,2.6406,2.6406,2.6129,2.4482,2.3596,2.2993,2.1894,1.9292,1.8057,2.4571,2.172,1.6707,1.6701,1.6709,1.6159,1.3922,1.3391,1.3404,1.339,1.3403,1.3403,1.3403,1.3403,1.3403,1.3403,1.3403,1.3403,1.3403,1.3403,1.3398,1.3392,1.2876,1.2496,1.2496,1.2501,1.2501,1.2501,1.2501,1.2501,1.2501,1.2501,1.2501,1.2501,1.2501,1.2501,1.2501,1.2501,1.2501,1.2501,1.2501,1.2501,1.2501,1.2501,1.2498,2.4599,2.4599,2.4599,2.4599,2.4599,2.4599,2.4599,2.485,2.5144,2.5424,2.5751,2.6065,2.6339,2.6393,2.6406,2.6406,2.6406,2.6406,2.6406,2.6406,2.6406,2.6406,0.0,0.0,0.0,0.0,0.0,0.0,2.6406,2.6406,2.6406,2.6406,2.6406,2.6406,2.6406,2.6406,2.6406,2.6406,2.6406,2.6406,2.6406,2.6406,2.6406,2.6406,2.6406,2.6406,2.6406,2.6406,2.6406,2.6406,2.6406,2.6406,2.6406,2.6406,2.6406,2.6406,2.6406,2.6406,2.6406,2.6406,2.6366,2.6268,2.6208,2.6155,2.6076,2.5905,2.5812,2.6267,2.6073,2.5713,2.5711,2.5722,2.364,1.5355,1.3409,1.3397,1.3404,1.3403,1.3403,1.3403,1.3403,1.3403,1.3403,1.3403,1.3403,1.3403,1.3403,1.3398,1.3392,1.2876,1.2496,1.2496,1.2501,1.2501,1.2501,1.2501,1.2501,1.2501,1.2501,1.2501,1.2501,1.2501,1.2501,1.2501,1.2501,1.2501,1.2501,1.2501,1.2501,1.2501,1.2501,1.2498,2.4599,2.4599,2.4599,2.4599,2.4599,2.4599,2.4599,2.4863,2.5176,2.5432,2.5764,2.6091,2.6353,2.6406,2.6406,2.6406,2.6406,2.6406,2.6406,2.6406,2.6406,2.6406,2.6406,0.0,0.0,0.0,0.0,0.0,0.0,2.6406,2.6406,2.6406,2.6406,2.6406,2.6406,2.6406,2.6406,2.6406,2.6406,2.6406,2.6406,2.6406,2.6406,2.6406,2.6406,2.6406,2.6406,2.6406,2.6406,2.6406,2.6406,2.6406,2.6406,2.6406,2.6406,2.6406,2.6406,2.6406,2.6406,2.6406,2.6406,2.6406,2.6406,2.6406,2.6406,2.6406,2.64,2.6387,2.6394,2.6407,2.6394,2.6413,2.5616,2.2488,2.1746,2.0201,1.461,1.3398,1.3403,1.3403,1.3403,1.3403,1.3403,1.3403,1.3403,1.3403,1.3403,1.3398,1.3392,1.2876,1.2496,1.2496,1.2501,1.2501,1.2501,1.2501,1.2501,1.2501,1.2501,1.2501,1.2501,1.2501,1.2501,1.2501,1.2501,1.2501,1.2501,1.2501,1.2501,1.2501,1.2501,1.2498,2.4599,2.4599,2.4599,2.4599,2.4599,2.4599,2.4599,2.4925,2.5277,2.5459,2.5844,2.6179,2.6379,2.6406,2.6406,2.6406,2.6406,2.6406,2.6406,2.6406,2.6406,2.6406,2.6406,0.0,0.0,0.0,0.0,0.0,0.0,0.0,2.6406,2.6406,2.6406,2.6406,2.6406,2.6406,2.6406,2.6406,2.6406,2.6406,2.6406,2.6406,2.6406,2.6406,2.6406,2.6406,2.6406,2.6406,2.6406,2.6406,2.6406,2.6406,2.6406,2.6406,2.6406,2.6406,2.6406,2.6406,2.6406,2.6406,2.6406,2.6406,2.6406,2.6406,2.6406,2.6406,2.6406,2.6406,2.6406,2.6406,2.6406,2.64,2.6394,2.6406,2.6405,2.4805,1.9009,1.5473,1.339,1.339,1.3397,1.3403,1.3403,1.3403,1.3403,1.3403,1.3397,1.3404,1.3405,1.2875,1.2503,1.2509,1.2501,1.2501,1.2501,1.2501,1.2501,1.2501,1.2501,1.2501,1.2501,1.2501,1.2501,1.2501,1.2501,1.2501,1.2501,1.2501,1.2501,1.2501,1.2501,1.2383,0.0,0.0,0.0,2.4599,2.4599,2.4599,2.4599,2.5072,2.5499,2.5499,2.5985,2.6406,2.6406,2.6406,2.6406,2.6406,2.6406,2.6406,2.6406,2.6406,2.6406,2.6406,2.6406,2.6406,0.0,0.0,0.0,0.0,2.6406,2.6406,2.6406,2.6406,2.6406,2.6406,2.6406,2.6406,2.6406,2.6406,2.6406,2.6406,2.6406,2.6406,2.6406,2.6406,2.6406,2.6406,2.6406,2.6406,2.6406,2.6406,2.6406,2.6406,2.6406,2.6406,2.6406,2.6406,2.6406,2.6406,2.6406,2.6406,2.6406,2.6406,2.6406,2.6406,2.6406,2.6406,2.6406,2.6406,2.6406,2.6406,2.6406,2.6406,2.6406,2.6406,2.6394,2.6407,2.6407,1.9745,1.3698,1.3445,1.3404,1.339,1.3397,1.3397,1.3397,1.3403,1.3398,1.3389,1.3371,1.2867,1.2488,1.2495,1.2501,1.2501,1.2501,1.2501,1.2501,1.2501,1.2501,1.2501,1.2501,1.2501,1.2501,1.2501,1.2501,1.2501,1.2501,1.2501,1.2501,1.2501,1.2494,1.2172,2.4599,0.0,0.0,0.0,0.0,0.0,2.4599,2.5072,2.5499,2.5499,2.5985,2.6406,2.6406,2.6406,2.6406,2.6406,2.6406,2.6406,2.6406,2.6406,2.6406,2.6406,2.6406,2.6406,0.0,0.0,0.0,0.0,2.6406,2.6406,2.6406,2.6406,2.6406,2.6406,2.6406,2.6406,2.6406,2.6406,2.6406,2.6406,2.6406,2.6406,2.6406,2.6406,2.6406,2.6406,2.6406,2.6406,2.6406,2.6406,2.6406,2.6406,2.6406,2.6406,2.6406,2.6406,2.6406,2.6406,2.6406,2.6406,2.6406,2.6406,2.6406,2.6406,2.6406,2.6406,2.6406,2.6406,2.6406,2.6406,2.6406,2.6406,2.6406,2.6406,2.6387,2.6387,2.6387,2.4521,2.0938,1.4617,1.3397,1.3397,1.3398,1.3391,1.3398,1.3411,1.3398,1.3247,1.2809,1.2602,1.2488,1.2495,1.2501,1.2501,1.2501,1.2501,1.2501,1.2501,1.2501,1.2501,1.2501,1.2501,1.2501,1.2501,1.2501,1.2501,1.2501,1.2501,1.2501,1.2494,1.25,1.2174,0.0,0.0,0.0,0.0,0.0,0.0,2.4778,2.5165,2.5545,2.5678,2.6085,2.6406,2.6406,2.6406,2.6406,2.6406,2.6406,2.6406,2.6406,2.6406,2.6406,2.6406,2.6406,2.6406,0.0,2.6406,2.6406,2.6406,2.6406,2.6406,2.6406,2.6406,2.6406,2.6406,2.6406,2.6406,2.6406,2.6406,2.6406,2.6406,2.6406,2.6406,2.6406,2.6406,2.6406,2.6406,2.6406,2.6406,2.6406,2.6406,2.6406,2.6406,2.6406,2.6406,2.6406,2.6406,2.6406,2.6406,2.6406,2.6406,2.6406,2.6406,2.6406,2.6406,2.6406,2.6406,2.6406,2.6406,2.6406,2.6406,2.6406,2.6406,2.6406,2.6406,2.6406,2.6406,2.6406,2.64,2.4889,1.9816,1.8827,1.8823,1.8813,1.5815,1.3405,1.3404,1.3411,1.3179,1.2575,1.2502,1.2499,1.2489,1.2501,1.2501,1.2501,1.2501,1.2501,1.2501,1.2501,1.2501,1.2501,1.2501,1.2501,1.2501,1.2501,1.2501,1.2501,1.2501,1.2493,1.249,1.2244,1.1942,0.0,0.0,0.0,0.0,0.0,0.0,2.4989,2.5277,2.5585,2.5871,2.6179,2.6406,2.6406,2.6406,2.6406,2.6406,2.6406,2.6406,2.6406,2.6406,2.6406,2.6406,2.6406,2.6406,2.6406,2.6406,2.6406,2.6406,2.6406,2.6406,2.6406,2.6406,2.6406,2.6406,2.6406,2.6406,2.6406,2.6406,2.6406,2.6406,2.6406,2.6406,2.6406,2.6406,2.6406,2.6406,2.6406,2.6406,2.6406,2.6406,2.6406,2.6406,2.6406,2.6406,2.6406,2.6406,2.6406,2.6406,2.6406,2.6406,2.6406,2.6406,2.6406,2.6406,2.6406,2.6406,2.6406,2.6406,2.6406,2.6406,2.6406,2.6406,2.6406,2.6406,2.6406,2.6406,2.6406,2.6406,2.64,2.6394,2.6405,2.6394,2.6401,1.9171,1.3411,1.3411,1.3396,1.319,1.2588,1.2508,1.2501,1.2501,1.2501,1.2501,1.2501,1.2501,1.2501,1.2501,1.2501,1.2501,1.2501,1.2501,1.2501,1.2501,1.2501,1.2501,1.2501,1.2501,1.2497,1.2498,1.1871,1.1607,0.0,0.0,0.0,0.0,0.0,0.0,2.4679,2.5112,2.5531,2.5585,2.6026,2.6406,2.6406,2.6406,2.6406,2.6406,2.6406,2.6406,2.6406,2.6406,2.6406,2.6406,2.6406,2.6406,2.6406,2.6406,2.6406,2.6406,2.6406,2.6406,2.6406,2.6406,2.6406,2.6406,2.6406,2.6406,2.6406,2.6406,2.6406,2.6406,2.6406,2.6406,2.6406,2.6406,2.6406,2.6406,2.6406,2.6406,2.6406,2.6406,2.6406,2.6406,2.6406,2.6406,2.6406,2.6406,2.6406,2.6406,2.6406,2.6406,2.6406,2.6406,2.6406,2.6406,2.6406,2.6406,2.6406,2.6406,2.6406,2.6406,2.6406,2.6406,2.6406,2.6406,2.6406,2.6406,2.6406,2.6406,2.64,2.64,2.64,2.6401,2.6386,1.917,1.339,1.3405,1.3409,1.319,1.2588,1.2508,1.2501,1.2501,1.2501,1.2501,1.2501,1.2501,1.2501,1.2501,1.2501,1.2501,1.2501,1.2501,1.2501,1.2501,1.2501,1.2501,1.2501,1.2501,1.2506,1.2489,1.188,1.1598,0.0,0.0,0.0,2.4599,0.0,0.0,0.0,2.5197,2.5558,2.5705,2.6099,2.6406,2.6406,2.6406,2.6406,2.6406,2.6406,2.6406,2.6406,2.6406,2.6406,2.6406,2.6406,2.6406,2.6406,2.6406,2.6406,2.6406,2.6406,2.6406,2.6406,2.6406,2.6406,2.6406,2.6406,2.6406,2.6406,2.6406,2.6406,2.6406,2.6406,2.6406,2.6406,2.6406,2.6406,2.6406,2.6406,2.6406,2.6406,2.6406,2.6406,2.6406,2.6406,2.6406,2.6406,2.6406,2.6406,2.6406,2.6406,2.6406,2.6406,2.6406,2.6406,2.6406,2.6406,2.6406,2.6406,2.6406,2.6406,2.6406,2.6406,2.6406,2.6406,2.6406,2.6406,2.6406,2.6406,2.6406,2.6406,2.6406,2.6406,2.6394,2.64,2.2786,1.8416,1.4042,1.3399,1.3187,1.2576,1.2494,1.2501,1.2501,1.2501,1.2501,1.2501,1.2501,1.2501,1.2501,1.2501,1.2501,1.2501,1.2501,1.2501,1.2501,1.2501,1.2501,1.2501,1.2491,1.25,1.2485,1.1886,1.1603,0.0,0.0,0.0,0.0,0.0,2.4764,0.0,0.0,0.0,2.5944,2.6205,2.6406,2.6406,2.6406,2.6373,2.6339,0.0,0.0,0.0,2.6379,0.0,2.6406,2.6406,2.6406,2.6406,2.6406,2.6406,2.6406,2.6406,2.6406,2.6406,2.6406,2.6406,2.6406,2.6406,2.6406,2.6406,2.6406,2.6406,2.6406,2.6406,2.6406,2.6406,2.6406,2.6406,2.6406,2.6406,2.6406,2.6406,2.6406,2.6406,2.6406,2.6406,2.6406,2.6406,2.6406,2.6406,2.6406,2.6406,2.6406,2.6406,2.6406,2.6406,2.6406,2.6406,2.6406,2.6406,2.6406,2.6406,2.6406,2.6406,2.6406,2.6406,2.6406,2.6406,2.6406,2.6406,2.6406,2.6406,2.6406,2.6406,2.64,2.6401,2.6394,2.4013,1.697,1.5908,1.5074,1.28,1.2506,1.25,1.2501,1.2501,1.2501,1.2501,1.2501,1.2501,1.2501,1.2501,1.2501,1.2501,1.2501,1.2501,1.2501,1.2501,1.2507,1.2499,1.2496,1.2434,1.231,1.1831,1.1603,0.0,0.0,0.0,0.0,2.4818,0.0,0.0,0.0,2.5957,2.5984,0.0,2.6406,2.6406,0.0,0.0,0.0,0.0,0.0,2.6078,2.6246,2.6406,2.6406,2.6406,2.6406,2.6406,2.6406,2.6406,2.6406,2.6406,2.6406,2.6406,2.6406,2.6406,2.6406,2.6406,2.6406,2.6406,2.6406,2.6406,2.6406,2.6406,2.6406,2.6406,2.6406,2.6406,2.6406,2.6406,2.6406,2.6406,2.6406,2.6406,2.6406,2.6406,2.6406,2.6406,2.6406,2.6406,2.6406,2.6406,2.6406,2.6406,2.6406,2.6406,2.6406,2.6406,2.6406,2.6406,2.6406,2.6406,2.6406,2.6406,2.6406,2.6406,2.6406,2.6406,2.6406,2.6406,2.6406,2.6406,2.6406,2.6406,2.64,2.6393,2.6401,2.606,2.5082,2.493,2.1901,1.3566,1.2491,1.2509,1.2494,1.2501,1.2501,1.2501,1.2501,1.2501,1.2501,1.2501,1.2501,1.2501,1.2501,1.2501,1.2501,1.2501,1.2498,1.2509,1.2489,1.223,1.1693,1.164,1.1603,0.0,0.0,0.0,0.0,0.0,0.0,0.0,0.0,2.5998,0.0,0.0,0.0,0.0,0.0,0.0,0.0,2.6326,0.0,0.0,0.0,2.6406,2.6406,0.0,0.0,2.6406,0.0,0.0,0.0,2.6406,2.6406,2.6406,2.6406,2.6406,2.6406,2.6406,2.6406,2.6406,2.6406,2.6406,2.6406,2.6406,2.6406,2.6406,2.6406,2.6406,2.6406,2.6406,2.6406,2.6406,2.6406,2.6406,2.6406,2.6406,2.6406,2.6406,2.6406,2.6406,2.6406,2.6406,2.6406,2.6406,2.6406,2.6406,2.6406,2.6406,2.6406,2.6406,2.6406,2.6406,2.6406,2.6406,2.6406,2.6406,2.6406,2.6406,2.6406,2.6406,2.6406,2.6406,2.6406,2.6406,2.6406,2.6406,2.6394,2.6387,2.6387,2.6389,2.4719,2.01,1.5416,1.2494,1.2497,1.2506,1.2501,1.2501,1.2501,1.2501,1.2501,1.2501,1.2501,1.2501,1.2501,1.2501,1.2501,1.2497,1.2505,1.2507,1.214,1.1851,1.1604,1.1605,1.1602,2.707,0.0,0.0,0.0,0.0,0.0,0.0,0.0,0.0,0.0,0.0,0.0,0.0,0.0,0.0,0.0,0.0,2.6379,0.0,2.6353,2.6406,0.0,0.0,0.0,0.0,2.6406,2.6406,2.6406,2.6406,2.6406,2.6406,2.6406,2.6406,2.6406,2.6406,2.6406,2.6406,2.6406,2.6406,2.6406,2.6406,2.6406,2.6406,2.6406,2.6406,2.6406,2.6406,2.6406,2.6406,2.6406,2.6406,2.6406,2.6406,2.6406,2.6406,2.6406,2.6406,2.6406,2.6406,2.6406,2.6406,2.6406,2.6406,2.6406,2.6406,2.6406,2.6406,2.6406,2.6406,2.6406,2.6406,2.6406,2.6406,2.6406,2.6406,2.6406,2.6406,2.6406,2.6406,2.6406,2.6406,2.6406,2.6406,2.6406,2.6406,2.6406,2.6403,2.5965,2.4752,1.9458,1.4955,1.2732,1.2502,1.2499,1.2499,1.2507,1.2501,1.2501,1.2501,1.2501,1.2501,1.2501,1.2501,1.2501,1.2502,1.2426,1.2249,1.1814,1.1605,1.1605,1.1595,1.1602,0.0,0.0,0.0,2.602,0.0,0.0,0.0,0.0,2.6393,0.0,0.0,0.0,0.0,0.0,0.0,0.0,0.0,0.0,0.0,2.6232,2.6406,0.0,0.0,0.0,0.0,2.6406,2.6406,2.6406,2.6406,2.6406,2.6406,2.6406,2.6406,2.6406,2.6406,2.6406,2.6406,2.6406,2.6406,2.6406,2.6406,2.6406,2.6406,2.6406,2.6406,2.6406,2.6406,2.6406,2.6406,2.6406,2.6406,2.6406,2.6406,2.6406,2.6406,2.6406,2.6406,2.6406,2.6406,2.6406,2.6406,2.6406,2.6406,2.6406,2.6406,2.6406,2.6406,2.6406,2.6406,2.6406,2.6406,2.6406,2.6406,2.6406,2.6406,2.6406,2.6406,2.6406,2.6406,2.6406,2.6406,2.6406,2.6406,2.6406,2.6406,2.6406,2.6406,2.5964,2.4759,2.4365,2.1206,1.3348,1.2509,1.2506,1.2506,1.2505,1.2501,1.2501,1.2501,1.2501,1.2501,1.2501,1.2501,1.2501,1.2494,1.2218,1.1625,1.1618,1.1603,1.1608,1.1602,1.1602,0.0,0.0,3.2353,2.8928,0.0,0.0,0.0,0.0,0.0,0.0,0.0,0.0,0.0,0.0,0.0,0.0,0.0,0.0,0.0,2.6353,2.6406,2.6406,0.0,0.0,0.0,0.0,0.0,2.6406,2.6406,2.6406,2.6406,2.6406,2.6406,2.6406,2.6406,2.6406,2.6406,2.6406,2.6406,2.6406,2.6406,2.6406,2.6406,2.6406,2.6406,2.6406,2.6406,2.6406,2.6406,2.6406,2.6406,2.6406,2.6406,2.6406,2.6406,2.6406,2.6406,2.6406,2.6406,2.6406,2.6406,2.6406,2.6406,2.6406,2.6406,2.6406,2.6406,2.6406,2.6406,2.6406,2.6406,2.6406,2.6406,2.6406,2.6406,2.6406,2.6406,2.6406,2.6406,2.6406,2.6406,2.6406,2.6406,2.6406,2.6406,2.6406,2.6392,2.5949,2.4758,2.4597,2.3548,2.0797,2.0513,1.833,1.2965,1.2508,1.2491,1.2501,1.2505,1.2498,1.2501,1.2501,1.2501,1.2501,1.2509,1.2397,1.2198,1.1785,1.1602,1.1602,1.1602,1.1602,3.4114,3.4508,0.0,3.1344,3.1513,0.0,2.9158,0.0,0.0,0.0,0.0,0.0,0.0,0.0,0.0,2.6406,2.6406,2.6406,0.0,2.6406,0.0,2.6406,2.6406,2.6406,2.6406,2.6406,2.6406,2.6406,2.6406,2.6406,0.0,0.0,2.6406,2.6406,2.6406,2.6406,2.6406,2.6406,2.6406,2.6406,2.6406,2.6406,2.6406,2.6406,2.6406,2.6406,2.6406,2.6406,2.6406,2.6406,2.6406,2.6406,2.6406,2.6406,2.6406,2.6406,2.6406,2.6406,2.6406,2.6406,2.6406,2.6406,2.6406,2.6406,2.6406,2.6406,2.6413,2.652,2.6466,2.6413,2.652,2.6466,2.6406,2.6406,2.6406,2.6406,2.6406,2.6406,2.6406,2.6406,2.6406,2.6406,2.6406,2.6406,2.6406,2.6406,2.6392,2.5973,2.4756,2.4599,2.4605,2.4605,2.4601,2.131,1.3202,1.251,1.3732,1.6617,1.4107,1.2493,1.2505,1.2492,1.2494,1.2498,1.2508,1.2497,1.2494,1.1895,1.161,1.1602,1.1602,1.1602]}]]